LiveATC.Net - Listen to live air traffic control over the Internet!
Airport/ARTCC Code
Frequency Search
(e.g., 124.400, 128.75)
Site-wide search
 


Browse Feeds
Top 50 Feeds
Coverage Map
Bad Weather Areas

LiveATC FAQ
Offer LiveATC feed
Contact LiveATC.net
Press Inquiries

LiveATC on iPhone
LiveATC on Android

Windows Phone
Windows 8/10

LiveATC Mobile
(Mobile browser)

ATC Audio Archives
Interesting Recordings

LiveATC Forums

Home Page
About LiveATC.net
Make a Donation
Terms of Use
Privacy Policy

Canadian Air Freqs

AIRMETs/SIGMETs

FAA Airport Status
Nat'l Airspace Status
Arrival Demand Charts


Server Software By:
Icecast.org
Liquidsoap

Select an area of interest:
U.S. Feeds: Class B Airports | Class C Airports | Class D/Other Airports | ARTCC (Centers)
International Feeds: Canada | Europe | Oceania | Asia | South America | North/Central America | Africa
Misc Feeds: HF Feeds
Search by ICAO/IATA airport code:   (e.g., kbos, kjfk, lax, eham, etc.)


Currently Available Live Feeds: 2559
Status Updated: Wed Aug 05 2020 19:01:21 UTC


NOTICE

Unauthorized use prohibited. See LiveATC.net Terms of Service

U.S. Class D Airport and ARTCCC Feeds

 

KUES Del/Gnd/Twr/02C (Archives)
Brookfield, Wisconsin, United States

Feed Status: UP
Listen in your browser - HTML5 player(in browser, HTML5)
Click here to listen with your own player(launches your MP3 player)

KUES 051845Z 27005G14KT 10SM SKC 24/10 A3012

KUES Airport Info (Airnav.com)

KUES Flight Activity (Flightaware)

Listeners: 1 out of 1343 total

Capitol CTAF: 122.700
Waukesha Clearance Delivery: 128.700
Waukesha Ground: 121.600
Waukesha Tower: 123.700

06C CTAF
Chicago/Schaumburg, Illinois, United States

Feed Status: DOWN
Offline since: 2020-04-05 01:06:39 UTC

K06C 051855Z AUTO 26003KT 10SM SCT080 24/13 A3011 RMK AO2 T02400132

K06C Airport Info (Airnav.com)

Schaumburg CTAF: 123.000

14A CTAF (Archives)
Mooresville, North Carolina, United States

Feed Status: UP
Listen in your browser - HTML5 player(in browser, HTML5)
Click here to listen with your own player(launches your MP3 player)


Listeners: 0 out of 1343 total

Lake Norman CTAF: 122.800

17FL CTAF
Ocala, Florida, United States

Feed Status: DOWN
Offline since: 2020-07-13 07:29:38 UTC

17FL Airport Info (Airnav.com)

Jumbolair-Greystone 17FL CTAF/UNICOM: 122.700

SNJ Area CTAF 122.8 (Archives)
Cross Keys, New Jersey, United States

Feed Status: UP
Listen in your browser - HTML5 player(in browser, HTML5)
Click here to listen with your own player(launches your MP3 player)

KPNE 051854Z 32008KT 10SM CLR 29/16 A3004 RMK AO2 SLP172 T02940161

KPNE Airport Info (Airnav.com)

KPNE Flight Activity (Flightaware)

Listeners: 1 out of 1343 total

CTAF: 122.800

1B1 CTAF
Hudson, New York, United States

Feed Status: DOWN
Offline since: 2019-07-21 23:53:05 UTC

Columbia County CTAF: 123.050

1B1 Emergency/Guard
Hudson, New York, United States

Feed Status: DOWN
Offline since: 2019-07-21 23:53:05 UTC

Emergency/Guard: 121.500

MA/NH/RI/CT Area CTAF (Archives)
Hopedale, Massachusetts, United States

Feed Status: UP
Listen in your browser - HTML5 player(in browser, HTML5)
Click here to listen with your own player(launches your MP3 player)

KBOS 051854Z 24010KT 10SM BKN065 33/16 A2993 RMK AO2 SLP136 T03280156

KBOS Airport Info (Airnav.com)

KBOS Flight Activity (Flightaware)

Listeners: 0 out of 1343 total

Air-to-Air: 122.750
Bridgeport Flight Service: 122.200
CTAF: 122.700
CTAF: 122.800
CTAF: 122.900
CTAF: 123.000
Emergency/Guard: 121.500

MA/NH/RI/CT Area CTAF (Archives)
Hopedale, Massachusetts, United States

Feed Status: UP
Listen in your browser - HTML5 player(in browser, HTML5)
Click here to listen with your own player(launches your MP3 player)

KBOS 051854Z 24010KT 10SM BKN065 33/16 A2993 RMK AO2 SLP136 T03280156

KBOS Airport Info (Airnav.com)

KBOS Flight Activity (Flightaware)

Listeners: 0 out of 1343 total

Air-to-Air: 122.750
Bridgeport Flight Service: 122.200
CTAF: 122.700
CTAF: 122.800
CTAF: 122.900
CTAF: 123.000
Emergency/Guard: 121.500

MA/NH/RI/CT Area CTAF (Archives)
Hopedale, Massachusetts, United States

Feed Status: UP
Listen in your browser - HTML5 player(in browser, HTML5)
Click here to listen with your own player(launches your MP3 player)

KBOS 051854Z 24010KT 10SM BKN065 33/16 A2993 RMK AO2 SLP136 T03280156

KBOS Airport Info (Airnav.com)

KBOS Flight Activity (Flightaware)

Listeners: 0 out of 1343 total

Air-to-Air: 122.750
Bridgeport Flight Service: 122.200
CTAF: 122.700
CTAF: 122.800
CTAF: 122.900
CTAF: 123.000
Emergency/Guard: 121.500

1B9 Area Guard (Archives)
Mansfield, Massachusetts, United States

Feed Status: UP
Listen in your browser - HTML5 player(in browser, HTML5)
Click here to listen with your own player(launches your MP3 player)


Listeners: 0 out of 1343 total

Emergency/Guard: 121.500

1B9 CTAF #1 (Archives)
Mansfield, Massachusetts, United States

Feed Status: UP
Listen in your browser - HTML5 player(in browser, HTML5)
Click here to listen with your own player(launches your MP3 player)


Listeners: 0 out of 1343 total

Mansfield CTAF/UNICOM: 123.000

1B9 CTAF #2 (Archives)
Mansfield, Massachusetts, United States

Feed Status: UP
Listen in your browser - HTML5 player(in browser, HTML5)
Click here to listen with your own player(launches your MP3 player)


Listeners: 0 out of 1343 total

Mansfield CTAF/UNICOM: 123.000

1B9 CTAF/RCO (Archives)
Mansfield, Massachusetts, United States

Feed Status: UP
Listen in your browser - HTML5 player(in browser, HTML5)
Click here to listen with your own player(launches your MP3 player)


Listeners: 0 out of 1343 total

Bridgeport FSS (RCO): 122.500
Mansfield CTAF/UNICOM: 123.000

1B9 Del/RCO #1 (Archives)
Mansfield, Massachusetts, United States

Feed Status: UP
Listen in your browser - HTML5 player(in browser, HTML5)
Click here to listen with your own player(launches your MP3 player)


Listeners: 0 out of 1343 total

Mansfield Clearance Delivery (RCO): 122.500

1B9 Del/RCO #2 (Archives)
Mansfield, Massachusetts, United States

Feed Status: UP
Listen in your browser - HTML5 player(in browser, HTML5)
Click here to listen with your own player(launches your MP3 player)


Listeners: 0 out of 1343 total

Mansfield Clearance Delivery (RCO): 122.500

1C9 CTAF (Archives)
Hollister, California, United States

Feed Status: UP
Listen in your browser - HTML5 player(in browser, HTML5)
Click here to listen with your own player(launches your MP3 player)

K1C9 Airport Info (Airnav.com)

K1C9 Flight Activity (Flightaware)

Listeners: 0 out of 1343 total

Frazier CTAF: 123.050

1G3 CTAF (Archives)
Kent, Ohio, United States

Feed Status: UP
Listen in your browser - HTML5 player(in browser, HTML5)
Click here to listen with your own player(launches your MP3 player)

K1G3 Airport Info (Airnav.com)

K1G3 Flight Activity (Flightaware)

Listeners: 0 out of 1343 total

Kent CTAF: 122.725

KGBR/20N CTAF
Kingston, New York, United States

Feed Status: DOWN
Offline since: 2019-07-21 23:53:05 UTC

KGBR Airport Info (Airnav.com)

Great Barrington CTAF: 122.800

MA/NH/RI/CT Area CTAF (Archives)
Newburyport, Massachusetts, United States

Feed Status: UP
Listen in your browser - HTML5 player(in browser, HTML5)
Click here to listen with your own player(launches your MP3 player)

KBOS 051854Z 24010KT 10SM BKN065 33/16 A2993 RMK AO2 SLP136 T03280156

KBOS Airport Info (Airnav.com)

KBOS Flight Activity (Flightaware)

Listeners: 0 out of 1343 total

Air-to-Air: 122.750
Bridgeport Flight Service: 122.200
CTAF: 122.700
CTAF: 122.800
CTAF: 122.900
CTAF: 123.000
Emergency/Guard: 121.500

MA/NH/RI/CT Area CTAF (Archives)
Newburyport, Massachusetts, United States

Feed Status: UP
Listen in your browser - HTML5 player(in browser, HTML5)
Click here to listen with your own player(launches your MP3 player)

KBOS 051854Z 24010KT 10SM BKN065 33/16 A2993 RMK AO2 SLP136 T03280156

KBOS Airport Info (Airnav.com)

KBOS Flight Activity (Flightaware)

Listeners: 0 out of 1343 total

Air-to-Air: 122.750
Bridgeport Flight Service: 122.200
CTAF: 122.700
CTAF: 122.800
CTAF: 122.900
CTAF: 123.000
Emergency/Guard: 121.500

MA/NH/RI/CT Area CTAF (Archives)
Newburyport, Massachusetts, United States

Feed Status: UP
Listen in your browser - HTML5 player(in browser, HTML5)
Click here to listen with your own player(launches your MP3 player)

KBOS 051854Z 24010KT 10SM BKN065 33/16 A2993 RMK AO2 SLP136 T03280156

KBOS Airport Info (Airnav.com)

KBOS Flight Activity (Flightaware)

Listeners: 0 out of 1343 total

Air-to-Air: 122.750
Bridgeport Flight Service: 122.200
CTAF: 122.700
CTAF: 122.800
CTAF: 122.900
CTAF: 123.000
Emergency/Guard: 121.500

2GC CTAF (Archives)
Fayetteville, North Carolina, United States

Feed Status: UP
Listen in your browser - HTML5 player(in browser, HTML5)
Click here to listen with your own player(launches your MP3 player)

KFAY 051853Z AUTO 14003KT 10SM CLR 29/22 A3004 RMK AO2 SLP166 T02940222

KFAY Airport Info (Airnav.com)

KFAY Flight Activity (Flightaware)

Listeners: 0 out of 1343 total

Grays Creek CTAF: 122.900

2O3 CTAF (Archives)
Angwin, California, United States

Feed Status: UP
Listen in your browser - HTML5 player(in browser, HTML5)
Click here to listen with your own player(launches your MP3 player)


Listeners: 1 out of 1343 total

Angwin CTAF: 123.000

KJWY/2TS6 CTAF/Unicom (Archives)
Midlothian, Texas, United States

Feed Status: UP
Listen in your browser - HTML5 player(in browser, HTML5)
Click here to listen with your own player(launches your MP3 player)

KJWY 051855Z AUTO 06008KT 020V080 10SM CLR 30/22 A3001 RMK AO2 T03000217

KJWY Airport Info (Airnav.com)

KJWY Flight Activity (Flightaware)

Listeners: 0 out of 1343 total

Mid-Way CTAF/UNICOM: 122.975

39N CTAF (Archives)
Princeton/Rocky Hill, New Jersey, United States

Feed Status: UP
Listen in your browser - HTML5 player(in browser, HTML5)
Click here to listen with your own player(launches your MP3 player)


Listeners: 0 out of 1343 total

Princeton CTAF: 122.725

3CK/KBUU CTAF (Archives)
Chicago/Lake In The Hills, Illinois, United States

Feed Status: UP
Listen in your browser - HTML5 player(in browser, HTML5)
Click here to listen with your own player(launches your MP3 player)

K3CK Airport Info (Airnav.com)

K3CK Flight Activity (Flightaware)

Listeners: 1 out of 1343 total

Lake in the Hills CTAF: 123.050

KLXT/3GV CTAF (Archives)
Grain Valley, Missouri, United States

Feed Status: UP
Listen in your browser - HTML5 player(in browser, HTML5)
Click here to listen with your own player(launches your MP3 player)

KOJC 051853Z 14008KT 10SM CLR 24/14 A3008 RMK AO2 SLP179 T02390144

KOJC Airport Info (Airnav.com)

KOJC Flight Activity (Flightaware)

Listeners: 0 out of 1343 total

Lee's Summit/Grain Valley CTAF: 122.800

3M5 CTAF (Archives)
Huntsville, Alabama, United States

Feed Status: UP
Listen in your browser - HTML5 player(in browser, HTML5)
Click here to listen with your own player(launches your MP3 player)


Listeners: 0 out of 1343 total

Moontown CTAF: 122.700

KBLM/N12/3N6/KMJX
Old Bridge, New Jersey, United States

Feed Status: DOWN
Offline since: 2020-08-04 22:30:22 UTC

KBLM 041656Z AUTO 15027G37KT 5SM HZ SCT013 OVC020 23/ A2954 RMK AO2 PK WND 13046/1558 RAE45 PRESFR SLP002 P0005 T0228

KBLM Airport Info (Airnav.com)

3N6 Old Bridge CTAF: 123.075
Emergency/Guard: 121.500
Monmouth Clearance: 120.950
Monmouth Clearance: 126.150
Monmouth CTAF: 123.000
N12 Lakewood CTAF: 122.800
Ocean County KMJX CTAF: 122.700

3R9 CTAF (Archives)
Lakeway, Texas, United States

Feed Status: UP
Listen in your browser - HTML5 player(in browser, HTML5)
Click here to listen with your own player(launches your MP3 player)


Listeners: 0 out of 1343 total

Lakeway CTAF: 123.000

3S8 CTAF (Archives)
Grants Pass, Oregon, United States

Feed Status: UP
Listen in your browser - HTML5 player(in browser, HTML5)
Click here to listen with your own player(launches your MP3 player)


Listeners: 0 out of 1343 total

Grants Pass CTAF: 122.800

44N/KMGJ CTAF (Archives)
Millbrook, New York, United States

Feed Status: UP
Listen in your browser - HTML5 player(in browser, HTML5)
Click here to listen with your own player(launches your MP3 player)


Listeners: 0 out of 1343 total

44N Sky Acres CTAF: 122.800
CTAF 122.700: 122.700
CTAF 122.9: 122.900
KMGJ Orange County Clearance: 123.850
KMGJ Orange County CTAF: 122.725

47N CTAF (Archives)
Manville, New Jersey, United States

Feed Status: UP
Listen in your browser - HTML5 player(in browser, HTML5)
Click here to listen with your own player(launches your MP3 player)


Listeners: 0 out of 1343 total

Central Jersey CTAF: 122.700

NY1/4B0 CTAF
South Bethlehem, New York, United States

Feed Status: DOWN
Offline since: 2019-07-21 23:53:05 UTC

Kline Kill CTAF: 122.900

4S1 CTAF (Archives)
Gold Beach, Oregon, United States

Feed Status: UP
Listen in your browser - HTML5 player(in browser, HTML5)
Click here to listen with your own player(launches your MP3 player)

K4S1 Airport Info (Airnav.com)

K4S1 Flight Activity (Flightaware)

Listeners: 0 out of 1343 total

Gold Beach CTAF: 122.800

51FL/KCDK/KCTY/X60 CTAF (Archives)
Chiefland, Florida, United States

Feed Status: UP
Listen in your browser - HTML5 player(in browser, HTML5)
Click here to listen with your own player(launches your MP3 player)


Listeners: 0 out of 1343 total

Cedar Key CTAF: 122.900
Cross City CTAF: 122.800
Emergency/Guard: 121.500
Jacksonville Approach/Departure: 118.600
Jacksonville Center: 127.800
Williston CTAF: 122.975

KMTC Area CTAF (Archives)
Ray, Michigan, United States

Feed Status: UP
Listen in your browser - HTML5 player(in browser, HTML5)
Click here to listen with your own player(launches your MP3 player)

KMTC 051856Z 27008KT 10SM SCT060 22/11 A3010 RMK AO2A SLP196 T02220113

KMTC Airport Info (Airnav.com)

KMTC Flight Activity (Flightaware)

Listeners: 0 out of 1343 total

Air to Air: 123.450
Marine City CTAF (76G): 123.000
Port Huron CTAF: 123.050
Ray CTAF: 122.700
Romeo CTAF: 122.800
St Clair CTAF: 122.800
Troy CTAF: 123.050

5A2 Area Emergency/Guard (Archives)
Warner Robins, Georgia, United States

Feed Status: UP
Listen in your browser - HTML5 player(in browser, HTML5)
Click here to listen with your own player(launches your MP3 player)


Listeners: 0 out of 1343 total

Emergency/Guard: 121.500

5A2/5GE1 CTAF (Archives)
Warner Robins, Georgia, United States

Feed Status: UP
Listen in your browser - HTML5 player(in browser, HTML5)
Click here to listen with your own player(launches your MP3 player)


Listeners: 0 out of 1343 total

Warner Robins/Peachtree Landings CTAF: 122.900

5C1 CTAF (Archives)
San Antonio, Texas, United States

Feed Status: UP
Listen in your browser - HTML5 player(in browser, HTML5)
Click here to listen with your own player(launches your MP3 player)

K5C1 051855Z AUTO 14009KT 10SM CLR 32/16 A3005 RMK AO1

K5C1 Airport Info (Airnav.com)

K5C1 Flight Activity (Flightaware)

Listeners: 0 out of 1343 total

Boerne Stage CTAF: 123.000

5A2/5GE1 CTAF (Archives)
Fort Valley, Georgia, United States

Feed Status: UP
Listen in your browser - HTML5 player(in browser, HTML5)
Click here to listen with your own player(launches your MP3 player)


Listeners: 0 out of 1343 total

Warner Robins/Peachtree Landings CTAF: 122.900

KMTC Area CTAF (Archives)
St Clair, Michigan, United States

Feed Status: UP
Listen in your browser - HTML5 player(in browser, HTML5)
Click here to listen with your own player(launches your MP3 player)

KMTC 051856Z 27008KT 10SM SCT060 22/11 A3010 RMK AO2A SLP196 T02220113

KMTC Airport Info (Airnav.com)

KMTC Flight Activity (Flightaware)

Listeners: 0 out of 1343 total

Air to Air: 123.450
Marine City CTAF (76G): 123.000
Port Huron CTAF: 123.050
Ray CTAF: 122.700
Romeo CTAF: 122.800
St Clair CTAF: 122.800
Troy CTAF: 123.050

64FA CTAF
Palm City, Florida, United States

Feed Status: DOWN
Offline since: 2020-08-05 18:51:04 UTC

Naked Lady Ranch CTAF: 122.900

MA/NH/RI/CT Area CTAF (Archives)
Stow, Massachusetts, United States

Feed Status: UP
Listen in your browser - HTML5 player(in browser, HTML5)
Click here to listen with your own player(launches your MP3 player)

KBOS 051854Z 24010KT 10SM BKN065 33/16 A2993 RMK AO2 SLP136 T03280156

KBOS Airport Info (Airnav.com)

KBOS Flight Activity (Flightaware)

Listeners: 0 out of 1343 total

Air-to-Air: 122.750
Bridgeport Flight Service: 122.200
CTAF: 122.700
CTAF: 122.800
CTAF: 122.900
CTAF: 123.000
Emergency/Guard: 121.500

MA/NH/RI/CT Area CTAF (Archives)
Stow, Massachusetts, United States

Feed Status: UP
Listen in your browser - HTML5 player(in browser, HTML5)
Click here to listen with your own player(launches your MP3 player)

KBOS 051854Z 24010KT 10SM BKN065 33/16 A2993 RMK AO2 SLP136 T03280156

KBOS Airport Info (Airnav.com)

KBOS Flight Activity (Flightaware)

Listeners: 0 out of 1343 total

Air-to-Air: 122.750
Bridgeport Flight Service: 122.200
CTAF: 122.700
CTAF: 122.800
CTAF: 122.900
CTAF: 123.000
Emergency/Guard: 121.500

MA/NH/RI/CT Area CTAF (Archives)
Stow, Massachusetts, United States

Feed Status: UP
Listen in your browser - HTML5 player(in browser, HTML5)
Click here to listen with your own player(launches your MP3 player)

KBOS 051854Z 24010KT 10SM BKN065 33/16 A2993 RMK AO2 SLP136 T03280156

KBOS Airport Info (Airnav.com)

KBOS Flight Activity (Flightaware)

Listeners: 0 out of 1343 total

Air-to-Air: 122.750
Bridgeport Flight Service: 122.200
CTAF: 122.700
CTAF: 122.800
CTAF: 122.900
CTAF: 123.000
Emergency/Guard: 121.500

6K5 CTAF
Sisters, Oregon, United States

Feed Status: DOWN
Offline since: 2020-05-22 15:01:39 UTC

K6K5 Airport Info (Airnav.com)

Sisters CTAF: 122.900

KMTC Area CTAF (Archives)
Marine City, Michigan, United States

Feed Status: UP
Listen in your browser - HTML5 player(in browser, HTML5)
Click here to listen with your own player(launches your MP3 player)

KMTC 051856Z 27008KT 10SM SCT060 22/11 A3010 RMK AO2A SLP196 T02220113

KMTC Airport Info (Airnav.com)

KMTC Flight Activity (Flightaware)

Listeners: 0 out of 1343 total

Air to Air: 123.450
Marine City CTAF (76G): 123.000
Port Huron CTAF: 123.050
Ray CTAF: 122.700
Romeo CTAF: 122.800
St Clair CTAF: 122.800
Troy CTAF: 123.050

77S CTAF (Archives)
Creswell, Oregon, United States

Feed Status: UP
Listen in your browser - HTML5 player(in browser, HTML5)
Click here to listen with your own player(launches your MP3 player)


Listeners: 0 out of 1343 total

Creswell CTAF: 122.700

7B2 CTAF (Archives)
Northampton, Massachusetts, United States

Feed Status: UP
Listen in your browser - HTML5 player(in browser, HTML5)
Click here to listen with your own player(launches your MP3 player)


Listeners: 0 out of 1343 total

Northampton CTAF: 122.700

7FL6 CTAF (Archives)
Daytona Beach, Florida, United States

Feed Status: UP
Listen in your browser - HTML5 player(in browser, HTML5)
Click here to listen with your own player(launches your MP3 player)


Listeners: 0 out of 1343 total

Spruce Creek CTAF/UNICOM: 122.725

KMTC Area CTAF (Archives)
Romeo, Michigan, United States

Feed Status: UP
Listen in your browser - HTML5 player(in browser, HTML5)
Click here to listen with your own player(launches your MP3 player)

KMTC 051856Z 27008KT 10SM SCT060 22/11 A3010 RMK AO2A SLP196 T02220113

KMTC Airport Info (Airnav.com)

KMTC Flight Activity (Flightaware)

Listeners: 0 out of 1343 total

Air to Air: 123.450
Marine City CTAF (76G): 123.000
Port Huron CTAF: 123.050
Ray CTAF: 122.700
Romeo CTAF: 122.800
St Clair CTAF: 122.800
Troy CTAF: 123.050

KGIF/F57 CTAF (Archives)
Winter Haven, Florida, United States

Feed Status: UP
Listen in your browser - HTML5 player(in browser, HTML5)
Click here to listen with your own player(launches your MP3 player)

KGIF 051853Z AUTO 10006KT 6SM TSRA SCT100 BKN120 26/23 A3004 RMK AO2 LTG DSNT N-E RAB00E16B30 TSE20B31 SLP171 P0003 T02560228

KGIF Airport Info (Airnav.com)

KGIF Flight Activity (Flightaware)

Listeners: out of 1343 total

Winter Haven CTAF: 123.050

F70 CTAF (Archives)
Murrieta/Temecula, California, United States

Feed Status: UP
Listen in your browser - HTML5 player(in browser, HTML5)
Click here to listen with your own player(launches your MP3 player)

KF70 051855Z AUTO 20007KT 10SM CLR 26/12 A2996 RMK AO1

KF70 Airport Info (Airnav.com)

KF70 Flight Activity (Flightaware)

Listeners: 0 out of 1343 total

French Valley CTAF: 122.800

FA40 CTAF (Archives)
New Port Richey, Florida, United States

Feed Status: UP
Listen in your browser - HTML5 player(in browser, HTML5)
Click here to listen with your own player(launches your MP3 player)


Listeners: 1 out of 1343 total

Hidden Lake CTAF: 123.000

I35 CTAF/ZID (Archives)
Harlan, Kentucky, United States

Feed Status: UP
Listen in your browser - HTML5 player(in browser, HTML5)
Click here to listen with your own player(launches your MP3 player)

KI35 051855Z AUTO 01004KT 10SM SCT033 BKN110 26/19 A3010 RMK AO2 T02610187

KI35 Airport Info (Airnav.com)

KI35 Flight Activity (Flightaware)

Listeners: 0 out of 1343 total

Harlan CTAF: 122.800
Indy Center (Sector 21 London Low): 121.325
Indy Center (Sector 21 London Low): 124.625
Indy Center (Sector 25 AZQ Low): 126.575

I40 AWOS (Archives)
Coshocton, Ohio, United States

Feed Status: UP
Listen in your browser - HTML5 player(in browser, HTML5)
Click here to listen with your own player(launches your MP3 player)


Listeners: 0 out of 1343 total

Coshocton AWOS: 118.875

I40 CTAF (Archives)
Coshocton, Ohio, United States

Feed Status: UP
Listen in your browser - HTML5 player(in browser, HTML5)
Click here to listen with your own player(launches your MP3 player)


Listeners: 0 out of 1343 total

Coshocton CTAF: 123.000

K1H0 CTAF/Unicom (Archives)
St. Louis, Missouri, United States

Feed Status: UP
Listen in your browser - HTML5 player(in browser, HTML5)
Click here to listen with your own player(launches your MP3 player)

K1H0 Airport Info (Airnav.com)

K1H0 Flight Activity (Flightaware)

Listeners: 0 out of 1343 total

Creve Coeur CTAF: 122.800

KIXD Ground/Tower/K34 (Archives)
Gardner, Kansas, United States

Feed Status: UP
Listen in your browser - HTML5 player(in browser, HTML5)
Click here to listen with your own player(launches your MP3 player)

KIXD 051853Z 13004KT 10SM CLR 25/13 A3009 RMK AO2 SLP182 T02500128

KIXD Airport Info (Airnav.com)

KIXD Flight Activity (Flightaware)

Listeners: 1 out of 1343 total

K34 CTAF: 122.800
New Century Ground: 124.300
New Century Tower: 133.000

KAAO CTAF/KBEC Twr
Wichita, Kansas, United States

Feed Status: DOWN
Offline since: 2020-06-19 23:35:05 UTC

KAAO 051854Z AUTO 17008KT 10SM CLR 28/17 A3004 RMK AO2 SLP163 T02780172

KAAO Airport Info (Airnav.com)

Beech Tower: 126.800
Jabara CTAF: 122.700

KACK App/Dep (Archives)
Nantucket, Massachusetts, United States

Feed Status: UP
Listen in your browser - HTML5 player(in browser, HTML5)
Click here to listen with your own player(launches your MP3 player)

KACK 051853Z 21011KT 10SM SCT005 BKN010 26/22 A3003 RMK AO2 SLP169 T02610222

KACK Airport Info (Airnav.com)

KACK Flight Activity (Flightaware)

Listeners: 0 out of 1343 total

Cape Approach (Nantucket Sector): 126.100

KACK ATIS (Archives)
Nantucket, Massachusetts, United States

Feed Status: UP
Listen in your browser - HTML5 player(in browser, HTML5)
Click here to listen with your own player(launches your MP3 player)

KACK 051853Z 21011KT 10SM SCT005 BKN010 26/22 A3003 RMK AO2 SLP169 T02610222

KACK Airport Info (Airnav.com)

KACK Flight Activity (Flightaware)

Listeners: 0 out of 1343 total

Nantucket ATIS: 127.500

KACK Ground (Archives)
Nantucket, Massachusetts, United States

Feed Status: UP
Listen in your browser - HTML5 player(in browser, HTML5)
Click here to listen with your own player(launches your MP3 player)

KACK 051853Z 21011KT 10SM SCT005 BKN010 26/22 A3003 RMK AO2 SLP169 T02610222

KACK Airport Info (Airnav.com)

KACK Flight Activity (Flightaware)

Listeners: 0 out of 1343 total

Nantucket Clearance Delivery: 119.375
Nantucket Ground: 132.500

KACK Tower (Archives)
Nantucket, Massachusetts, United States

Feed Status: UP
Listen in your browser - HTML5 player(in browser, HTML5)
Click here to listen with your own player(launches your MP3 player)

KACK 051853Z 21011KT 10SM SCT005 BKN010 26/22 A3003 RMK AO2 SLP169 T02610222

KACK Airport Info (Airnav.com)

KACK Flight Activity (Flightaware)

Listeners: 0 out of 1343 total

Nantucket Tower: 118.300

KADS ATIS (Archives)
Dallas, Texas, United States

Feed Status: UP
Listen in your browser - HTML5 player(in browser, HTML5)
Click here to listen with your own player(launches your MP3 player)

KADS 051847Z 11008G16KT 13SM BKN250 29/19 A3002

KADS Airport Info (Airnav.com)

KADS Flight Activity (Flightaware)

Listeners: 0 out of 1343 total

Addison ATIS: 133.400
Addison ATIS/AWOS: 133.400

KADS Ground (Archives)
Dallas, Texas, United States

Feed Status: UP
Listen in your browser - HTML5 player(in browser, HTML5)
Click here to listen with your own player(launches your MP3 player)

KADS 051847Z 11008G16KT 13SM BKN250 29/19 A3002

KADS Airport Info (Airnav.com)

KADS Flight Activity (Flightaware)

Listeners: 0 out of 1343 total

Addison Ground: 121.600

KADS Tower (Archives)
Dallas, Texas, United States

Feed Status: UP
Listen in your browser - HTML5 player(in browser, HTML5)
Click here to listen with your own player(launches your MP3 player)

KADS 051847Z 11008G16KT 13SM BKN250 29/19 A3002

KADS Airport Info (Airnav.com)

KADS Flight Activity (Flightaware)

Listeners: 0 out of 1343 total

Addison Tower: 126.000

KDAA/KADW Tower (Archives)
Camp Springs, Maryland, United States

Feed Status: UP
Listen in your browser - HTML5 player(in browser, HTML5)
Click here to listen with your own player(launches your MP3 player)

KDAA 051856Z AUTO 00000KT 10SM BKN050 30/18 A3005 RMK AO2 SLP178 T02950179 $

KDAA Airport Info (Airnav.com)

KDAA Flight Activity (Flightaware)

Listeners: 0 out of 1343 total

Andrews Tower: 118.400
Andrews Tower: 349.000
Davison Tower: 241.000
Davison Tower: 126.300
Davison Tower: 229.400

KAEG Twr/App (Archives)
Albuquerque, New Mexico, United States

Feed Status: UP
Listen in your browser - HTML5 player(in browser, HTML5)
Click here to listen with your own player(launches your MP3 player)

KABQ 051852Z 34011G17KT 10SM FEW070 BKN095 BKN120 30/05 A3017 RMK AO2 SLP118 VIRGA SE ACSL NE P0000 T03000050

KABQ Airport Info (Airnav.com)

KABQ Flight Activity (Flightaware)

Listeners: 0 out of 1343 total

Double Eagle II Ground: 121.625
Double Eagle II Tower: 120.150
Double Eagle II Tower Clearance: 124.800

KAFW Regional App (North) (Archives)
Fort Worth, Texas, United States

Feed Status: UP
Listen in your browser - HTML5 player(in browser, HTML5)
Click here to listen with your own player(launches your MP3 player)

KAFW 051853Z 06006KT 10SM SCT100 BKN150 BKN210 29/20 A3001 RMK AO2 SLP145 VCSHRA N T02940200

KAFW Airport Info (Airnav.com)

KAFW Flight Activity (Flightaware)

Listeners: 0 out of 1343 total

Regional Approach (North): 118.100

KAFW Tower/Heli (Archives)
Fort Worth, Texas, United States

Feed Status: UP
Listen in your browser - HTML5 player(in browser, HTML5)
Click here to listen with your own player(launches your MP3 player)

KAFW 051853Z 06006KT 10SM SCT100 BKN150 BKN210 29/20 A3001 RMK AO2 SLP145 VCSHRA N T02940200

KAFW Airport Info (Airnav.com)

KAFW Flight Activity (Flightaware)

Listeners: 0 out of 1343 total

Alliance Tower: 135.150
Alliance Tower (Helicopters): 120.850

KAFW Tower/Heli/App (Archives)
Fort Worth, Texas, United States

Feed Status: UP
Listen in your browser - HTML5 player(in browser, HTML5)
Click here to listen with your own player(launches your MP3 player)

KAFW 051853Z 06006KT 10SM SCT100 BKN150 BKN210 29/20 A3001 RMK AO2 SLP145 VCSHRA N T02940200

KAFW Airport Info (Airnav.com)

KAFW Flight Activity (Flightaware)

Listeners: 1 out of 1343 total

Alliance Tower: 135.150
Alliance Tower (Helicopters): 120.850
Regional Approach (North): 118.100

KAHN Tower (Archives)
Athens, Georgia, United States

Feed Status: UP
Listen in your browser - HTML5 player(in browser, HTML5)
Click here to listen with your own player(launches your MP3 player)

KAHN 051851Z VRB05KT 10SM CLR 35/20 A3002 RMK AO2 SLP156 T03500200

KAHN Airport Info (Airnav.com)

KAHN Flight Activity (Flightaware)

Listeners: 1 out of 1343 total

Athens Tower: 126.300

KAMW CTAF (Archives)
Ames, Iowa, United States

Feed Status: UP
Listen in your browser - HTML5 player(in browser, HTML5)
Click here to listen with your own player(launches your MP3 player)

KAMW 051853Z AUTO 20007KT 10SM SCT049 BKN070 23/13 A3009 RMK AO2 SLP185 T02330133

KAMW Airport Info (Airnav.com)

KAMW Flight Activity (Flightaware)

Listeners: 0 out of 1343 total

Ames CTAF: 122.700

KANE Twr/CTAF (Archives)
Minneapolis, Minnesota, United States

Feed Status: UP
Listen in your browser - HTML5 player(in browser, HTML5)
Click here to listen with your own player(launches your MP3 player)

KANE 051845Z 21006KT 10SM SCT060 BKN150 25/12 A3004

KANE Airport Info (Airnav.com)

KANE Flight Activity (Flightaware)

Listeners: 3 out of 1343 total

Anoka Tower/CTAF: 132.400

KAPA App/Dep (Archives)
Denver, Colorado, United States

Feed Status: UP
Listen in your browser - HTML5 player(in browser, HTML5)
Click here to listen with your own player(launches your MP3 player)

KAPA 051853Z 00000KT 10SM FEW080 SCT110 SCT220 32/06 A3009 RMK AO2 SLP102 T03170056

KAPA Airport Info (Airnav.com)

KAPA Flight Activity (Flightaware)

Listeners: 2 out of 1343 total

Denver Approach/Departure: 132.750

KAPA Del/Gnd (Archives)
Denver, Colorado, United States

Feed Status: UP
Listen in your browser - HTML5 player(in browser, HTML5)
Click here to listen with your own player(launches your MP3 player)

KAPA 051853Z 00000KT 10SM FEW080 SCT110 SCT220 32/06 A3009 RMK AO2 SLP102 T03170056

KAPA Airport Info (Airnav.com)

KAPA Flight Activity (Flightaware)

Listeners: 0 out of 1343 total

Centennial Clearance Delivery: 128.600
Centennial Ground: 121.800

KAPA Tower (Primary) (Archives)
Denver, Colorado, United States

Feed Status: UP
Listen in your browser - HTML5 player(in browser, HTML5)
Click here to listen with your own player(launches your MP3 player)

KAPA 051853Z 00000KT 10SM FEW080 SCT110 SCT220 32/06 A3009 RMK AO2 SLP102 T03170056

KAPA Airport Info (Airnav.com)

KAPA Flight Activity (Flightaware)

Listeners: 4 out of 1343 total

Centennial Tower: 118.900

KAPA Tower (Secondary #1) (Archives)
Denver, Colorado, United States

Feed Status: UP
Listen in your browser - HTML5 player(in browser, HTML5)
Click here to listen with your own player(launches your MP3 player)

KAPA 051853Z 00000KT 10SM FEW080 SCT110 SCT220 32/06 A3009 RMK AO2 SLP102 T03170056

KAPA Airport Info (Airnav.com)

KAPA Flight Activity (Flightaware)

Listeners: 0 out of 1343 total

Centennial Tower (Rwy 17R/35L or Rwy 28): 123.700

KAPA Tower (Secondary #2) (Archives)
Denver, Colorado, United States

Feed Status: UP
Listen in your browser - HTML5 player(in browser, HTML5)
Click here to listen with your own player(launches your MP3 player)

KAPA 051853Z 00000KT 10SM FEW080 SCT110 SCT220 32/06 A3009 RMK AO2 SLP102 T03170056

KAPA Airport Info (Airnav.com)

KAPA Flight Activity (Flightaware)

Listeners: 0 out of 1343 total

Centennial Tower (Rwy 17R/35L or Rwy 28): 124.600

KAPC Del/Gnd (Archives)
Napa, California, United States

Feed Status: UP
Listen in your browser - HTML5 player(in browser, HTML5)
Click here to listen with your own player(launches your MP3 player)

KAPC 051854Z 19011KT 10SM SCT021 21/13 A2993 RMK AO2 SLP127 T02060133

KAPC Airport Info (Airnav.com)

KAPC Flight Activity (Flightaware)

Listeners: 0 out of 1343 total

Napa Clearance Delivery: 127.850
Napa Ground: 121.700

KAPC Tower (Archives)
Napa, California, United States

Feed Status: UP
Listen in your browser - HTML5 player(in browser, HTML5)
Click here to listen with your own player(launches your MP3 player)

KAPC 051854Z 19011KT 10SM SCT021 21/13 A2993 RMK AO2 SLP127 T02060133

KAPC Airport Info (Airnav.com)

KAPC Flight Activity (Flightaware)

Listeners: 1 out of 1343 total

Napa Tower: 118.700

KAPF ATIS (Archives)
Naples, Florida, United States

Feed Status: UP
Listen in your browser - HTML5 player(in browser, HTML5)
Click here to listen with your own player(launches your MP3 player)

KAPF 051853Z 23008KT 10SM SCT025 32/26 A2999 RMK AO2 LTG DSNT E SLP153 T03170261 $

KAPF Airport Info (Airnav.com)

KAPF Flight Activity (Flightaware)

Listeners: 0 out of 1343 total

Naples ATIS: 134.225

KAPF Del/Gnd (Archives)
Naples, Florida, United States

Feed Status: UP
Listen in your browser - HTML5 player(in browser, HTML5)
Click here to listen with your own player(launches your MP3 player)

KAPF 051853Z 23008KT 10SM SCT025 32/26 A2999 RMK AO2 LTG DSNT E SLP153 T03170261 $

KAPF Airport Info (Airnav.com)

KAPF Flight Activity (Flightaware)

Listeners: 0 out of 1343 total

Naples Clearance Delivery: 118.000
Naples Ground: 121.600

KAPF Del/Gnd/Twr (Archives)
Naples, Florida, United States

Feed Status: UP
Listen in your browser - HTML5 player(in browser, HTML5)
Click here to listen with your own player(launches your MP3 player)

KAPF 051853Z 23008KT 10SM SCT025 32/26 A2999 RMK AO2 LTG DSNT E SLP153 T03170261 $

KAPF Airport Info (Airnav.com)

KAPF Flight Activity (Flightaware)

Listeners: 0 out of 1343 total

Naples Clearance Delivery: 118.000
Naples Ground: 121.600
Naples Tower: 128.500

KAPF Ft Myers App/Dep (Archives)
Naples, Florida, United States

Feed Status: UP
Listen in your browser - HTML5 player(in browser, HTML5)
Click here to listen with your own player(launches your MP3 player)

KAPF 051853Z 23008KT 10SM SCT025 32/26 A2999 RMK AO2 LTG DSNT E SLP153 T03170261 $

KAPF Airport Info (Airnav.com)

KAPF Flight Activity (Flightaware)

Listeners: 0 out of 1343 total

Fort Myers Approach/Departure: 124.125
Fort Myers Approach/Departure: 126.800

KAPF Tower (Archives)
Naples, Florida, United States

Feed Status: UP
Listen in your browser - HTML5 player(in browser, HTML5)
Click here to listen with your own player(launches your MP3 player)

KAPF 051853Z 23008KT 10SM SCT025 32/26 A2999 RMK AO2 LTG DSNT E SLP153 T03170261 $

KAPF Airport Info (Airnav.com)

KAPF Flight Activity (Flightaware)

Listeners: 0 out of 1343 total

Naples Tower: 128.500

KAPN App/Dep/ZMP (Archives)
Alpena, Michigan, United States

Feed Status: UP
Listen in your browser - HTML5 player(in browser, HTML5)
Click here to listen with your own player(launches your MP3 player)

KAPN 051854Z 31006KT 10SM BKN055 BKN070 21/10 A3006 RMK AO2 SLP179 T02110100 $

KAPN Airport Info (Airnav.com)

KAPN Flight Activity (Flightaware)

Listeners: 2 out of 1343 total

Alpena Approach/Departure: 128.425
Minneapolis Center (Sector 01 Low): 125.475

KAPN Tower (Archives)
Alpena, Michigan, United States

Feed Status: UP
Listen in your browser - HTML5 player(in browser, HTML5)
Click here to listen with your own player(launches your MP3 player)

KAPN 051854Z 31006KT 10SM BKN055 BKN070 21/10 A3006 RMK AO2 SLP179 T02110100 $

KAPN Airport Info (Airnav.com)

KAPN Flight Activity (Flightaware)

Listeners: 1 out of 1343 total

Alpena Tower: 121.350

KARB Gnd/Twr
Ann Arbor, Michigan, United States

Feed Status: DOWN
Offline since: 2020-06-25 18:32:05 UTC

KARB 051853Z VRB04KT 10SM SCT060 23/10 A3012 RMK AO2 SLP198 T02280100

KARB Airport Info (Airnav.com)

Ann Arbor Ground: 121.600
Ann Arbor Tower: 120.300

KARR Tower (Archives)
Chicago/Aurora, Illinois, United States

Feed Status: UP
Listen in your browser - HTML5 player(in browser, HTML5)
Click here to listen with your own player(launches your MP3 player)

KARR 051852Z VRB03KT 10SM FEW043 BKN080 23/13 A3012 RMK AO2 SLP197 T02280128

KARR Airport Info (Airnav.com)

KARR Flight Activity (Flightaware)

Listeners: 2 out of 1343 total

Aurora Tower: 120.600

KASE ATIS (Archives)
Aspen, Colorado, United States

Feed Status: UP
Listen in your browser - HTML5 player(in browser, HTML5)
Click here to listen with your own player(launches your MP3 player)

KASE 051857Z 25011G17KT 10SM CLR 28/M05 A3024 RMK AO2 T02831050

KASE Airport Info (Airnav.com)

KASE Flight Activity (Flightaware)

Listeners: 0 out of 1343 total

Aspen ATIS: 120.400

KASE Gnd/Twr/App/Center (Archives)
Aspen, Colorado, United States

Feed Status: UP
Listen in your browser - HTML5 player(in browser, HTML5)
Click here to listen with your own player(launches your MP3 player)

KASE 051857Z 25011G17KT 10SM CLR 28/M05 A3024 RMK AO2 T02831050

KASE Airport Info (Airnav.com)

KASE Flight Activity (Flightaware)

Listeners: 0 out of 1343 total

Aspen Approach/Departure: 123.800
Aspen Ground: 121.900
Aspen Tower/CTAF: 118.850
Denver Center (Sector 26 POWDR Low): 119.850

KASE Ground/Tower (Archives)
Aspen, Colorado, United States

Feed Status: UP
Listen in your browser - HTML5 player(in browser, HTML5)
Click here to listen with your own player(launches your MP3 player)

KASE 051857Z 25011G17KT 10SM CLR 28/M05 A3024 RMK AO2 T02831050

KASE Airport Info (Airnav.com)

KASE Flight Activity (Flightaware)

Listeners: 0 out of 1343 total

Aspen Ground: 121.900
Aspen Tower/CTAF: 118.850

KASE Tower (Archives)
Aspen, Colorado, United States

Feed Status: UP
Listen in your browser - HTML5 player(in browser, HTML5)
Click here to listen with your own player(launches your MP3 player)

KASE 051857Z 25011G17KT 10SM CLR 28/M05 A3024 RMK AO2 T02831050

KASE Airport Info (Airnav.com)

KASE Flight Activity (Flightaware)

Listeners: 0 out of 1343 total

Aspen Tower/CTAF: 118.850

KASG App/Dep (Archives)
Springdale, Arkansas, United States

Feed Status: UP
Listen in your browser - HTML5 player(in browser, HTML5)
Click here to listen with your own player(launches your MP3 player)

KASG 051848Z 11006KT 10SM BKN037 26/18 A3010

KASG Airport Info (Airnav.com)

KASG Flight Activity (Flightaware)

Listeners: 0 out of 1343 total

Razorback Approach/Departure: 126.600

KASG Gnd/Twr (Archives)
Springdale, Arkansas, United States

Feed Status: UP
Listen in your browser - HTML5 player(in browser, HTML5)
Click here to listen with your own player(launches your MP3 player)

KASG 051848Z 11006KT 10SM BKN037 26/18 A3010

KASG Airport Info (Airnav.com)

KASG Flight Activity (Flightaware)

Listeners: 0 out of 1343 total

Springdale Ground: 121.600
Springdale Tower: 118.200

KASG Gnd/Twr/App (Archives)
Springdale, Arkansas, United States

Feed Status: UP
Listen in your browser - HTML5 player(in browser, HTML5)
Click here to listen with your own player(launches your MP3 player)

KASG 051848Z 11006KT 10SM BKN037 26/18 A3010

KASG Airport Info (Airnav.com)

KASG Flight Activity (Flightaware)

Listeners: 1 out of 1343 total

Razorback Approach/Departure: 126.600
Springdale Ground: 121.600
Springdale Tower: 118.200

KASH ATIS #1 (Archives)
Nashua, New Hampshire, United States

Feed Status: UP
Listen in your browser - HTML5 player(in browser, HTML5)
Click here to listen with your own player(launches your MP3 player)

KASH 051856Z 27009G16KT 220V330 10SM BKN060 32/18 A2995 RMK AO2 SLP145 T03170178

KASH Airport Info (Airnav.com)

KASH Flight Activity (Flightaware)

Listeners: 0 out of 1343 total

Nashua ATIS: 125.100

KASH ATIS #2 (Archives)
Nashua, New Hampshire, United States

Feed Status: UP
Listen in your browser - HTML5 player(in browser, HTML5)
Click here to listen with your own player(launches your MP3 player)

KASH 051856Z 27009G16KT 220V330 10SM BKN060 32/18 A2995 RMK AO2 SLP145 T03170178

KASH Airport Info (Airnav.com)

KASH Flight Activity (Flightaware)

Listeners: 0 out of 1343 total

Nashua ATIS: 125.100

KASH Ground/FBO (Archives)
Nashua, New Hampshire, United States

Feed Status: UP
Listen in your browser - HTML5 player(in browser, HTML5)
Click here to listen with your own player(launches your MP3 player)

KASH 051856Z 27009G16KT 220V330 10SM BKN060 32/18 A2995 RMK AO2 SLP145 T03170178

KASH Airport Info (Airnav.com)

KASH Flight Activity (Flightaware)

Listeners: 0 out of 1343 total

Infinity Aviation: 129.750
Nashua Ground: 121.800

KASH Ground/FBO/Twr (Archives)
Nashua, New Hampshire, United States

Feed Status: UP
Listen in your browser - HTML5 player(in browser, HTML5)
Click here to listen with your own player(launches your MP3 player)

KASH 051856Z 27009G16KT 220V330 10SM BKN060 32/18 A2995 RMK AO2 SLP145 T03170178

KASH Airport Info (Airnav.com)

KASH Flight Activity (Flightaware)

Listeners: 0 out of 1343 total

Infinity Aviation: 129.750
Nashua Ground: 121.800
Nashua Tower: 133.200

KASH Tower (Archives)
Nashua, New Hampshire, United States

Feed Status: UP
Listen in your browser - HTML5 player(in browser, HTML5)
Click here to listen with your own player(launches your MP3 player)

KASH 051856Z 27009G16KT 220V330 10SM BKN060 32/18 A2995 RMK AO2 SLP145 T03170178

KASH Airport Info (Airnav.com)

KASH Flight Activity (Flightaware)

Listeners: 0 out of 1343 total

Nashua Tower: 133.200

Atlanta Approach (NW Satellite) (Archives)
Atlanta, Georgia, United States

Feed Status: UP
Listen in your browser - HTML5 player(in browser, HTML5)
Click here to listen with your own player(launches your MP3 player)

KRYY 051850Z 18006KT 10SM SCT050 BKN110 30/20 A3003 RMK AO2 SLP890 T03000200 PNO $

KRYY Airport Info (Airnav.com)

KRYY Flight Activity (Flightaware)

Listeners: 1 out of 1343 total

Atlanta Approach (North Satellite): 121.000

KATW Gnd/Twr/App (Archives)
Appleton, Wisconsin, United States

Feed Status: UP
Listen in your browser - HTML5 player(in browser, HTML5)
Click here to listen with your own player(launches your MP3 player)

KATW 051845Z VRB03KT 10SM SCT040 BKN120 23/06 A3009

KATW Airport Info (Airnav.com)

KATW Flight Activity (Flightaware)

Listeners: 1 out of 1343 total

Appleton Ground: 121.700
Appleton Tower: 119.600
Green Bay Approach/Departure: 126.300

KATW Tower (Archives)
Appleton, Wisconsin, United States

Feed Status: UP
Listen in your browser - HTML5 player(in browser, HTML5)
Click here to listen with your own player(launches your MP3 player)

KATW 051845Z VRB03KT 10SM SCT040 BKN120 23/06 A3009

KATW Airport Info (Airnav.com)

KATW Flight Activity (Flightaware)

Listeners: 1 out of 1343 total

Appleton Tower: 119.600

KAUG Del/CTAF (Archives)
Augusta, Maine, United States

Feed Status: UP
Listen in your browser - HTML5 player(in browser, HTML5)
Click here to listen with your own player(launches your MP3 player)

KAUG 051853Z AUTO 18010G21KT 10SM FEW050 28/18 A2992 RMK AO2 SLP131 T02830183

KAUG Airport Info (Airnav.com)

KAUG Flight Activity (Flightaware)

Listeners: 0 out of 1343 total

Augusta Clearance Delivery: 119.950
Augusta CTAF/UNICOM: 123.000

NORCAL Approach (Elk Horn) (Archives)
Auburn, California, United States

Feed Status: UP
Listen in your browser - HTML5 player(in browser, HTML5)
Click here to listen with your own player(launches your MP3 player)

KAUN 051855Z AUTO 22007KT 10SM CLR 24/13 A2994 RMK A01

KAUN Airport Info (Airnav.com)

KAUN Flight Activity (Flightaware)

Listeners: 0 out of 1343 total

NORCAL Approach (Elk Horn Sector): 125.100

NORCAL Approach (Expo) (Archives)
Auburn, California, United States

Feed Status: UP
Listen in your browser - HTML5 player(in browser, HTML5)
Click here to listen with your own player(launches your MP3 player)

KAUN 051855Z AUTO 22007KT 10SM CLR 24/13 A2994 RMK A01

KAUN Airport Info (Airnav.com)

KAUN Flight Activity (Flightaware)

Listeners: 0 out of 1343 total

NORCAL Approach (EXPO Sector): 127.400

KAUW CTAF (Air Race Classic)
Wausau, Wisconsin, United States

Feed Status: DOWN
Offline since: 2019-06-24 16:01:03 UTC

Wausau CTAF: 122.700

KAVO CTAF (Archives)
Avon Park, Florida, United States

Feed Status: UP
Listen in your browser - HTML5 player(in browser, HTML5)
Click here to listen with your own player(launches your MP3 player)

KAVO Airport Info (Airnav.com)

KAVO Flight Activity (Flightaware)

Listeners: 0 out of 1343 total

Avon Park CTAF: 122.800

KAVP Gnd/Twr/App (Archives)
Wilkes-Barre/Scranton, Pennsylvania, United States

Feed Status: UP
Listen in your browser - HTML5 player(in browser, HTML5)
Click here to listen with your own player(launches your MP3 player)

KAVP 051854Z 24010G15KT 10SM FEW060 28/14 A3005 RMK AO2 SLP168 T02780139

KAVP Airport Info (Airnav.com)

KAVP Flight Activity (Flightaware)

Listeners: 0 out of 1343 total

Wilkes-Barre Approach: 124.500
Wilkes-Barre Approach: 126.300
Wilkes-Barre Ground: 121.900
Wilkes-Barre Tower: 120.100

KAVQ CTAF (Archives)
Marana, Arizona, United States

Feed Status: UP
Listen in your browser - HTML5 player(in browser, HTML5)
Click here to listen with your own player(launches your MP3 player)

KAVQ 051855Z AUTO 21006KT 10SM CLR 36/04 A2992 RMK AO2 T03560042

KAVQ Airport Info (Airnav.com)

KAVQ Flight Activity (Flightaware)

Listeners: 0 out of 1343 total

Marana CTAF: 123.000

Arlington Fly-In Radio
Arlington, Washington, United States

Feed Status: DOWN
Offline since: 2019-08-18 20:46:39 UTC

KAWO 051856Z AUTO 35005KT 10SM FEW002 22/13 A2995 RMK AO2 SLP147 T02170128

KAWO Airport Info (Airnav.com)

Arlington Fly-In Radio: 89.9

KAWO Arlington Fly-In ATC
Arlington, Washington, United States

Feed Status: DOWN
Offline since: 2019-08-18 20:46:39 UTC

KAWO 051856Z AUTO 35005KT 10SM FEW002 22/13 A2995 RMK AO2 SLP147 T02170128

KAWO Airport Info (Airnav.com)

Arlington CTAF: 122.725
Arlington Tower (Air Show): 127.200

KAWO CTAF/Clearance (Archives)
Arlington, Washington, United States

Feed Status: UP
Listen in your browser - HTML5 player(in browser, HTML5)
Click here to listen with your own player(launches your MP3 player)

KAWO 051856Z AUTO 35005KT 10SM FEW002 22/13 A2995 RMK AO2 SLP147 T02170128

KAWO Airport Info (Airnav.com)

KAWO Flight Activity (Flightaware)

Listeners: 0 out of 1343 total

Arlington Clearance Delivery (Seattle): 121.725
Arlington CTAF: 122.725

KBTL/KAZO Gnd/Twr/App (Archives)
Kalamazoo, Michigan, United States

Feed Status: UP
Listen in your browser - HTML5 player(in browser, HTML5)
Click here to listen with your own player(launches your MP3 player)

KBTL Airport Info (Airnav.com)

KBTL Flight Activity (Flightaware)

Listeners: 1 out of 1343 total

Battle Creek Ground: 121.700
Battle Creek Tower: 126.825
Kalamazoo Approach/Departure: 119.200
Kalamazoo Ground: 121.900
Kalamazoo Tower: 118.300

KBAF Ground (Archives)
Westfield/Springfield, Massachusetts, United States

Feed Status: UP
Listen in your browser - HTML5 player(in browser, HTML5)
Click here to listen with your own player(launches your MP3 player)

KBAF 051853Z 25009G17KT 10SM CLR 31/16 A2997 RMK AO2 SLP145 T03060161

KBAF Airport Info (Airnav.com)

KBAF Flight Activity (Flightaware)

Listeners: 0 out of 1343 total

Westfield Ground: 121.700

KBAF Ground/Tower (Archives)
Westfield/Springfield, Massachusetts, United States

Feed Status: UP
Listen in your browser - HTML5 player(in browser, HTML5)
Click here to listen with your own player(launches your MP3 player)

KBAF 051853Z 25009G17KT 10SM CLR 31/16 A2997 RMK AO2 SLP145 T03060161

KBAF Airport Info (Airnav.com)

KBAF Flight Activity (Flightaware)

Listeners: 0 out of 1343 total

Westfield Ground: 121.700
Westfield Tower: 118.900

KBAF Tower (Archives)
Westfield/Springfield, Massachusetts, United States

Feed Status: UP
Listen in your browser - HTML5 player(in browser, HTML5)
Click here to listen with your own player(launches your MP3 player)

KBAF 051853Z 25009G17KT 10SM CLR 31/16 A2997 RMK AO2 SLP145 T03060161

KBAF Airport Info (Airnav.com)

KBAF Flight Activity (Flightaware)

Listeners: 0 out of 1343 total

Westfield Tower: 118.900

KBAZ Tower (Archives)
New Braunfels, Texas, United States

Feed Status: UP
Listen in your browser - HTML5 player(in browser, HTML5)
Click here to listen with your own player(launches your MP3 player)

KBAZ 051851Z 20008G19KT 10SM CLR 36/18 A2999 RMK AO2 SLP143 T03610183

KBAZ Airport Info (Airnav.com)

KBAZ Flight Activity (Flightaware)

Listeners: 3 out of 1343 total

New Braunfels Tower: 127.050

KBCT ATIS (Archives)
Boca Raton, Florida, United States

Feed Status: UP
Listen in your browser - HTML5 player(in browser, HTML5)
Click here to listen with your own player(launches your MP3 player)

KBCT 051855Z 14010KT 10SM SCT025 33/26 A3000

KBCT Airport Info (Airnav.com)

KBCT Flight Activity (Flightaware)

Listeners: 0 out of 1343 total

Boca Raton ATIS/AWOS: 121.125

KBCT Emergency/Guard (Archives)
Boca Raton, Florida, United States

Feed Status: UP
Listen in your browser - HTML5 player(in browser, HTML5)
Click here to listen with your own player(launches your MP3 player)

KBCT 051855Z 14010KT 10SM SCT025 33/26 A3000

KBCT Airport Info (Airnav.com)

KBCT Flight Activity (Flightaware)

Listeners: 0 out of 1343 total

Emergency/Guard: 121.500

KBCT Ground (Archives)
Boca Raton, Florida, United States

Feed Status: UP
Listen in your browser - HTML5 player(in browser, HTML5)
Click here to listen with your own player(launches your MP3 player)

KBCT 051855Z 14010KT 10SM SCT025 33/26 A3000

KBCT Airport Info (Airnav.com)

KBCT Flight Activity (Flightaware)

Listeners: 0 out of 1343 total

Boca Raton Ground: 121.800

KBCT Ground/Tower (Archives)
Boca Raton, Florida, United States

Feed Status: UP
Listen in your browser - HTML5 player(in browser, HTML5)
Click here to listen with your own player(launches your MP3 player)

KBCT 051855Z 14010KT 10SM SCT025 33/26 A3000

KBCT Airport Info (Airnav.com)

KBCT Flight Activity (Flightaware)

Listeners: 0 out of 1343 total

Boca Raton Ground: 121.800
Boca Raton Tower: 118.425

KBCT Tower (Archives)
Boca Raton, Florida, United States

Feed Status: UP
Listen in your browser - HTML5 player(in browser, HTML5)
Click here to listen with your own player(launches your MP3 player)

KBCT 051855Z 14010KT 10SM SCT025 33/26 A3000

KBCT Airport Info (Airnav.com)

KBCT Flight Activity (Flightaware)

Listeners: 0 out of 1343 total

Boca Raton Tower: 118.425

KBDN CTAF (Archives)
Bend, Oregon, United States

Feed Status: UP
Listen in your browser - HTML5 player(in browser, HTML5)
Click here to listen with your own player(launches your MP3 player)

KBDN 051855Z AUTO VRB04G11KT 10SM CLR 28/05 A2996 RMK AO2

KBDN Airport Info (Airnav.com)

KBDN Flight Activity (Flightaware)

Listeners: 1 out of 1343 total

Bend CTAF: 123.000

KBDR Del/Gnd/Twr
Bridgeport, Connecticut, United States

Feed Status: DOWN
Offline since: 2020-08-04 20:54:39 UTC

KBDR 042252Z A2977 RMK AO2 PK WND 23031/2201 SLP082 PNO $

KBDR Airport Info (Airnav.com)

Bridgeport Clearance/Ground: 121.750
Bridgeport Tower: 120.900
Sikorsky Heliport: 133.600

KBDR Del/Gnd/Twr/App
Bridgeport, Connecticut, United States

Feed Status: DOWN
Offline since: 2020-08-04 20:55:05 UTC

KBDR 042252Z A2977 RMK AO2 PK WND 23031/2201 SLP082 PNO $

KBDR Airport Info (Airnav.com)

Bridgeport Clearance/Ground: 121.750
Bridgeport Tower: 120.900
New York Approach (LOVES Sector): 124.075
Sikorsky Heliport: 133.600

New York Approach (LOVES Sector)
Bridgeport, Connecticut, United States

Feed Status: DOWN
Offline since: 2020-08-04 20:54:39 UTC

KBDR 042252Z A2977 RMK AO2 PK WND 23031/2201 SLP082 PNO $

KBDR Airport Info (Airnav.com)

New York Approach (LOVES Sector): 124.075

KFTG/KEIK/KBDU/KLMO/Misc (Archives)
Boulder, Colorado, United States

Feed Status: UP
Listen in your browser - HTML5 player(in browser, HTML5)
Click here to listen with your own player(launches your MP3 player)

KDEN 051853Z 13013G21KT 10SM FEW080 FEW120 SCT220 33/10 A3007 RMK AO2 SLP090 T03280100

KDEN Airport Info (Airnav.com)

KDEN Flight Activity (Flightaware)

Listeners: 0 out of 1343 total

Air-to-Air Fixed Wing: 122.750
Air-to-Air Informal: 123.450
Boulder CTAF: 122.725
Erie CTAF: 123.000
Front Range Tower: 120.200
KBKF Tower: 121.000
Longmont CTAF: 122.975
MULTICOM: 122.900
UNICOM: 122.950

KAAO CTAF/KBEC Twr
Wichita, Kansas, United States

Feed Status: DOWN
Offline since: 2020-06-19 23:35:05 UTC

KAAO 051854Z AUTO 17008KT 10SM CLR 28/17 A3004 RMK AO2 SLP163 T02780172

KAAO Airport Info (Airnav.com)

Beech Tower: 126.800
Jabara CTAF: 122.700

Boston App/Dep (North Sat) #1 (Archives)
Bedford, Massachusetts, United States

Feed Status: UP
Listen in your browser - HTML5 player(in browser, HTML5)
Click here to listen with your own player(launches your MP3 player)

KBED 051851Z 25006KT 10SM BKN060 31/19 A2994 RMK AO2 SLP146 T03110189

KBED Airport Info (Airnav.com)

KBED Flight Activity (Flightaware)

Listeners: 1 out of 1343 total

Boston Approach (North Satellites, SFC-3500'): 124.400

KBED ATIS #1 (Archives)
Bedford, Massachusetts, United States

Feed Status: UP
Listen in your browser - HTML5 player(in browser, HTML5)
Click here to listen with your own player(launches your MP3 player)

KBED 051851Z 25006KT 10SM BKN060 31/19 A2994 RMK AO2 SLP146 T03110189

KBED Airport Info (Airnav.com)

KBED Flight Activity (Flightaware)

Listeners: 0 out of 1343 total

Hanscom ATIS: 124.600

KBED ATIS #2 (Archives)
Bedford, Massachusetts, United States

Feed Status: UP
Listen in your browser - HTML5 player(in browser, HTML5)
Click here to listen with your own player(launches your MP3 player)

KBED 051851Z 25006KT 10SM BKN060 31/19 A2994 RMK AO2 SLP146 T03110189

KBED Airport Info (Airnav.com)

KBED Flight Activity (Flightaware)

Listeners: 0 out of 1343 total

Hanscom ATIS: 124.600

KBED Clearance Delivery (Archives)
Bedford, Massachusetts, United States

Feed Status: UP
Listen in your browser - HTML5 player(in browser, HTML5)
Click here to listen with your own player(launches your MP3 player)

KBED 051851Z 25006KT 10SM BKN060 31/19 A2994 RMK AO2 SLP146 T03110189

KBED Airport Info (Airnav.com)

KBED Flight Activity (Flightaware)

Listeners: 0 out of 1343 total

Hanscom Clearance Delivery: 121.850

KBED Del/Gnd (Archives)
Bedford, Massachusetts, United States

Feed Status: UP
Listen in your browser - HTML5 player(in browser, HTML5)
Click here to listen with your own player(launches your MP3 player)

KBED 051851Z 25006KT 10SM BKN060 31/19 A2994 RMK AO2 SLP146 T03110189

KBED Airport Info (Airnav.com)

KBED Flight Activity (Flightaware)

Listeners: 0 out of 1343 total

Hanscom Clearance Delivery: 121.850
Hanscom Ground: 121.700

KBED Gnd/Twr (Archives)
Bedford, Massachusetts, United States

Feed Status: UP
Listen in your browser - HTML5 player(in browser, HTML5)
Click here to listen with your own player(launches your MP3 player)

KBED 051851Z 25006KT 10SM BKN060 31/19 A2994 RMK AO2 SLP146 T03110189

KBED Airport Info (Airnav.com)

KBED Flight Activity (Flightaware)

Listeners: 0 out of 1343 total

Hanscom Ground: 121.700
Hanscom Tower: 118.500

KBED Ground (Archives)
Bedford, Massachusetts, United States

Feed Status: UP
Listen in your browser - HTML5 player(in browser, HTML5)
Click here to listen with your own player(launches your MP3 player)

KBED 051851Z 25006KT 10SM BKN060 31/19 A2994 RMK AO2 SLP146 T03110189

KBED Airport Info (Airnav.com)

KBED Flight Activity (Flightaware)

Listeners: 0 out of 1343 total

Hanscom Ground: 121.700

KBED Tower (Archives)
Bedford, Massachusetts, United States

Feed Status: UP
Listen in your browser - HTML5 player(in browser, HTML5)
Click here to listen with your own player(launches your MP3 player)

KBED 051851Z 25006KT 10SM BKN060 31/19 A2994 RMK AO2 SLP146 T03110189

KBED Airport Info (Airnav.com)

KBED Flight Activity (Flightaware)

Listeners: 1 out of 1343 total

Hanscom Tower: 118.500

KBFI ATIS (Archives)
Seattle, Washington, United States

Feed Status: UP
Listen in your browser - HTML5 player(in browser, HTML5)
Click here to listen with your own player(launches your MP3 player)

KBFI 051853Z VRB03KT 10SM CLR 24/14 A2994 RMK AO2 SLP137 T02390139

KBFI Airport Info (Airnav.com)

KBFI Flight Activity (Flightaware)

Listeners: 0 out of 1343 total

Boeing ATIS: 127.750

KBFI Clearance Delivery (Archives)
Seattle, Washington, United States

Feed Status: UP
Listen in your browser - HTML5 player(in browser, HTML5)
Click here to listen with your own player(launches your MP3 player)

KBFI 051853Z VRB03KT 10SM CLR 24/14 A2994 RMK AO2 SLP137 T02390139

KBFI Airport Info (Airnav.com)

KBFI Flight Activity (Flightaware)

Listeners: 0 out of 1343 total

Boeing Clearance Delivery: 132.400

KBFI Ground (Archives)
Seattle, Washington, United States

Feed Status: UP
Listen in your browser - HTML5 player(in browser, HTML5)
Click here to listen with your own player(launches your MP3 player)

KBFI 051853Z VRB03KT 10SM CLR 24/14 A2994 RMK AO2 SLP137 T02390139

KBFI Airport Info (Airnav.com)

KBFI Flight Activity (Flightaware)

Listeners: 1 out of 1343 total

Boeing Ground: 121.900

KBFI Ground/Tower (Archives)
Seattle, Washington, United States

Feed Status: UP
Listen in your browser - HTML5 player(in browser, HTML5)
Click here to listen with your own player(launches your MP3 player)

KBFI 051853Z VRB03KT 10SM CLR 24/14 A2994 RMK AO2 SLP137 T02390139

KBFI Airport Info (Airnav.com)

KBFI Flight Activity (Flightaware)

Listeners: 2 out of 1343 total

Boeing Ground: 121.900
Boeing Tower (Rwy 13L & 31R/VFR): 118.300
Boeing Tower (Rwy 13R/31L/IFR): 120.600
Emergency: 121.500

KBFI Guard (Archives)
Seattle, Washington, United States

Feed Status: UP
Listen in your browser - HTML5 player(in browser, HTML5)
Click here to listen with your own player(launches your MP3 player)

KBFI 051853Z VRB03KT 10SM CLR 24/14 A2994 RMK AO2 SLP137 T02390139

KBFI Airport Info (Airnav.com)

KBFI Flight Activity (Flightaware)

Listeners: 0 out of 1343 total

Emergency/Guard: 121.500

KBFI Tower (IFR) (Archives)
Seattle, Washington, United States

Feed Status: UP
Listen in your browser - HTML5 player(in browser, HTML5)
Click here to listen with your own player(launches your MP3 player)

KBFI 051853Z VRB03KT 10SM CLR 24/14 A2994 RMK AO2 SLP137 T02390139

KBFI Airport Info (Airnav.com)

KBFI Flight Activity (Flightaware)

Listeners: 0 out of 1343 total

Boeing Tower (Rwy 13R/31L/IFR): 120.600

KBFI Tower (VFR) (Archives)
Seattle, Washington, United States

Feed Status: UP
Listen in your browser - HTML5 player(in browser, HTML5)
Click here to listen with your own player(launches your MP3 player)

KBFI 051853Z VRB03KT 10SM CLR 24/14 A2994 RMK AO2 SLP137 T02390139

KBFI Airport Info (Airnav.com)

KBFI Flight Activity (Flightaware)

Listeners: 1 out of 1343 total

Boeing Tower (Rwy 13L & 31R/VFR): 118.300

KBFI Tower (VFR/IFR) (Archives)
Seattle, Washington, United States

Feed Status: UP
Listen in your browser - HTML5 player(in browser, HTML5)
Click here to listen with your own player(launches your MP3 player)

KBFI 051853Z VRB03KT 10SM CLR 24/14 A2994 RMK AO2 SLP137 T02390139

KBFI Airport Info (Airnav.com)

KBFI Flight Activity (Flightaware)

Listeners: 3 out of 1343 total

Boeing Tower (Rwy 13L & 31R/VFR): 118.300
Boeing Tower (Rwy 13R/31L/IFR): 120.600

KBFL Twr/App/ZLA (Archives)
Bakersfield, California, United States

Feed Status: UP
Listen in your browser - HTML5 player(in browser, HTML5)
Click here to listen with your own player(launches your MP3 player)

KBFL 051854Z VRB04KT 10SM CLR 30/10 A2989 RMK AO2 SLP115 T03000100

KBFL Airport Info (Airnav.com)

KBFL Flight Activity (Flightaware)

Listeners: 2 out of 1343 total

Bakersfield Approach: 118.800
Bakersfield Departure: 126.450
Los Angeles Center (Sector 3 Low): 127.100
Meadows Tower: 118.100

KBFM Ground/Tower (Archives)
Mobile, Alabama, United States

Feed Status: UP
Listen in your browser - HTML5 player(in browser, HTML5)
Click here to listen with your own player(launches your MP3 player)

KBFM 051853Z 14007KT 10SM SCT060 33/24 A2999 RMK AO2 SLP155 T03330244

KBFM Airport Info (Airnav.com)

KBFM Flight Activity (Flightaware)

Listeners: 0 out of 1343 total

Downtown Ground: 121.700
Downtown Tower: 118.800

KBFM Tower (Archives)
Mobile, Alabama, United States

Feed Status: UP
Listen in your browser - HTML5 player(in browser, HTML5)
Click here to listen with your own player(launches your MP3 player)

KBFM 051853Z 14007KT 10SM SCT060 33/24 A2999 RMK AO2 SLP155 T03330244

KBFM Airport Info (Airnav.com)

KBFM Flight Activity (Flightaware)

Listeners: 0 out of 1343 total

Downtown Tower: 118.800

KBGM Del/Gnd/Twr/App (Archives)
Binghamton, New York, United States

Feed Status: UP
Listen in your browser - HTML5 player(in browser, HTML5)
Click here to listen with your own player(launches your MP3 player)

KBGM 051853Z 28007KT 10SM SCT048 BKN065 23/11 A3008 RMK AO2 SLP176 T02280111

KBGM Airport Info (Airnav.com)

KBGM Flight Activity (Flightaware)

Listeners: 0 out of 1343 total

Binghamton Approach/Departure: 118.600
Binghamton Approach/Departure: 127.550
Binghamton Clearance Delivery: 125.050
Binghamton Ground: 121.900
Binghamton Tower: 119.300

KBID CTAF (Archives)
Block Island, Rhode Island, United States

Feed Status: UP
Listen in your browser - HTML5 player(in browser, HTML5)
Click here to listen with your own player(launches your MP3 player)

KBID 051856Z AUTO 23013KT 10SM CLR 27/20 A3002 RMK AO2 SLP165 T02670200

KBID Airport Info (Airnav.com)

KBID Flight Activity (Flightaware)

Listeners: 0 out of 1343 total

Block Island CTAF: 123.000

KBIS Twr/App (Archives)
Bismarck, North Dakota, United States

Feed Status: UP
Listen in your browser - HTML5 player(in browser, HTML5)
Click here to listen with your own player(launches your MP3 player)

KBIS 051852Z 08005KT 10SM SCT038 BKN065 27/16 A2996 RMK AO2 SLP138 T02670156

KBIS Airport Info (Airnav.com)

KBIS Flight Activity (Flightaware)

Listeners: 0 out of 1343 total

Bismarck Approach/Departure: 126.300
Bismarck Tower: 118.300

KBJC Ground/Tower (Archives)
Denver, Colorado, United States

Feed Status: UP
Listen in your browser - HTML5 player(in browser, HTML5)
Click here to listen with your own player(launches your MP3 player)

KBJC 051850Z 05007KT 10SM SCT080 BKN120 30/09 A3012

KBJC Airport Info (Airnav.com)

KBJC Flight Activity (Flightaware)

Listeners: 3 out of 1343 total

Metro Ground: 121.700
Metro Tower: 118.600

KBJI CTAF/ZMP (Archives)
Bemidji, Minnesota, United States

Feed Status: UP
Listen in your browser - HTML5 player(in browser, HTML5)
Click here to listen with your own player(launches your MP3 player)

KBJI 051855Z AUTO 20004KT 10SM SCT041 SCT048 SCT080 25/13 A3000 RMK AO2 T02470134

KBJI Airport Info (Airnav.com)

KBJI Flight Activity (Flightaware)

Listeners: 0 out of 1343 total

Bemidji CTAF: 122.800
Minneapolis Center (Sector 25 Low/High): 134.750

KBKF Tower (UHF) (Archives)
Aurora, Colorado, United States

Feed Status: UP
Listen in your browser - HTML5 player(in browser, HTML5)
Click here to listen with your own player(launches your MP3 player)

KBKF 051758Z 09010G17KT 10SM FEW080 FEW120 SCT220 31/10 A3011 RMK AO2A SLP109 T03090102 10309 20153 57010

KBKF Airport Info (Airnav.com)

KBKF Flight Activity (Flightaware)

Listeners: 0 out of 1343 total

Buckley Tower: 291.675

KBKF Tower (VHF) (Archives)
Aurora, Colorado, United States

Feed Status: UP
Listen in your browser - HTML5 player(in browser, HTML5)
Click here to listen with your own player(launches your MP3 player)

KBKF 051758Z 09010G17KT 10SM FEW080 FEW120 SCT220 31/10 A3011 RMK AO2A SLP109 T03090102 10309 20153 57010

KBKF Airport Info (Airnav.com)

KBKF Flight Activity (Flightaware)

Listeners: 0 out of 1343 total

Buckley Tower: 121.000

KBKF Tower (VHF/UHF) (Archives)
Aurora, Colorado, United States

Feed Status: UP
Listen in your browser - HTML5 player(in browser, HTML5)
Click here to listen with your own player(launches your MP3 player)

KBKF 051758Z 09010G17KT 10SM FEW080 FEW120 SCT220 31/10 A3011 RMK AO2A SLP109 T03090102 10309 20153 57010

KBKF Airport Info (Airnav.com)

KBKF Flight Activity (Flightaware)

Listeners: 1 out of 1343 total

Buckley Tower: 121.000
Buckley Tower: 291.675

KBLI Tower (Archives)
Bellingham, Washington, United States

Feed Status: UP
Listen in your browser - HTML5 player(in browser, HTML5)
Click here to listen with your own player(launches your MP3 player)

KBLI 051853Z 19/12 A2993 RMK AO2 PK WND 18026/1755 SLP140 T01940117 $

KBLI Airport Info (Airnav.com)

KBLI Flight Activity (Flightaware)

Listeners: 2 out of 1343 total

Bellingham Tower: 124.900

KBLM/N12/3N6/KMJX
Belmar/Farmingdale, New Jersey, United States

Feed Status: DOWN
Offline since: 2020-08-04 22:30:22 UTC

KBLM 041656Z AUTO 15027G37KT 5SM HZ SCT013 OVC020 23/ A2954 RMK AO2 PK WND 13046/1558 RAE45 PRESFR SLP002 P0005 T0228

KBLM Airport Info (Airnav.com)

3N6 Old Bridge CTAF: 123.075
Emergency/Guard: 121.500
Monmouth Clearance: 120.950
Monmouth Clearance: 126.150
Monmouth CTAF: 123.000
N12 Lakewood CTAF: 122.800
Ocean County KMJX CTAF: 122.700

KBMG Approach/Departure (Archives)
Bloomington, Indiana, United States

Feed Status: UP
Listen in your browser - HTML5 player(in browser, HTML5)
Click here to listen with your own player(launches your MP3 player)

KBMG 051853Z VRB04KT 10SM BKN050 24/12 A3014 RMK AO2 SLP200 T02440122

KBMG Airport Info (Airnav.com)

KBMG Flight Activity (Flightaware)

Listeners: 0 out of 1343 total

Emergency/Guard: 121.500
Emergency/Guard: 243.000
Hulman Approach: 128.025

KBMG Tower (Archives)
Bloomington, Indiana, United States

Feed Status: UP
Listen in your browser - HTML5 player(in browser, HTML5)
Click here to listen with your own player(launches your MP3 player)

KBMG 051853Z VRB04KT 10SM BKN050 24/12 A3014 RMK AO2 SLP200 T02440122

KBMG Airport Info (Airnav.com)

KBMG Flight Activity (Flightaware)

Listeners: 0 out of 1343 total

Bloomington Tower: 120.775

KBMG Twr/App (Archives)
Bloomington, Indiana, United States

Feed Status: UP
Listen in your browser - HTML5 player(in browser, HTML5)
Click here to listen with your own player(launches your MP3 player)

KBMG 051853Z VRB04KT 10SM BKN050 24/12 A3014 RMK AO2 SLP200 T02440122

KBMG Airport Info (Airnav.com)

KBMG Flight Activity (Flightaware)

Listeners: 1 out of 1343 total

Bloomington Tower: 120.775
Emergency/Guard: 121.500
Emergency/Guard: 243.000
Hulman Approach: 128.025

KBMI Gnd/Twr/App/Dep (Archives)
Bloomington/Normal, Illinois, United States

Feed Status: UP
Listen in your browser - HTML5 player(in browser, HTML5)
Click here to listen with your own player(launches your MP3 player)

KBMI 051856Z VRB06KT 10SM FEW048 24/12 A3015 RMK AO2 SLP202 T02440122

KBMI Airport Info (Airnav.com)

KBMI Flight Activity (Flightaware)

Listeners: 1 out of 1343 total

Bloomington Ground: 121.650
Bloomington Tower: 124.600
Peoria Approach/Departure: 128.725

KBNW CTAF
Boone, Iowa, United States

Feed Status: DOWN
Offline since: 2020-06-03 13:45:21 UTC

KBNW 051855Z AUTO 22007KT 10SM FEW043 BKN060 OVC090 23/13 A3008 RMK AO2

KBNW Airport Info (Airnav.com)

Boone CTAF/UNICOM: 123.000

KBOK CTAF
Brookings, Oregon, United States

Feed Status: DOWN
Offline since: 2019-07-30 22:57:39 UTC

KBOK 051856Z AUTO VRB03KT 10SM OVC009 17/14 A3001 RMK AO2 SLP161 T01670144

KBOK Airport Info (Airnav.com)

Brookings CTAF: 122.800

KBOW AWOS (Archives)
Bartow, Florida, United States

Feed Status: UP
Listen in your browser - HTML5 player(in browser, HTML5)
Click here to listen with your own player(launches your MP3 player)

KBOW 051850Z 08004KT 7SM VCTS -RA SCT015 BKN030 25/23 A3003

KBOW Airport Info (Airnav.com)

KBOW Flight Activity (Flightaware)

Listeners: 0 out of 1343 total

Bartow AWOS: 123.775

KBOW Gnd/Twr/Misc (Archives)
Bartow, Florida, United States

Feed Status: UP
Listen in your browser - HTML5 player(in browser, HTML5)
Click here to listen with your own player(launches your MP3 player)

KBOW 051850Z 08004KT 7SM VCTS -RA SCT015 BKN030 25/23 A3003

KBOW Airport Info (Airnav.com)

KBOW Flight Activity (Flightaware)

Listeners: 0 out of 1343 total

Bartow Ground: 121.900
Bartow Tower: 121.200
Bartow UNICOM: 122.950
Emergency/Guard: 121.500

KBOW Gnd/UNICOM/Guard (Archives)
Bartow, Florida, United States

Feed Status: UP
Listen in your browser - HTML5 player(in browser, HTML5)
Click here to listen with your own player(launches your MP3 player)

KBOW 051850Z 08004KT 7SM VCTS -RA SCT015 BKN030 25/23 A3003

KBOW Airport Info (Airnav.com)

KBOW Flight Activity (Flightaware)

Listeners: 0 out of 1343 total

Bartow Ground: 121.900
Bartow UNICOM: 122.950
Emergency/Guard: 121.500

KBOW Tower/CTAF (Archives)
Bartow, Florida, United States

Feed Status: UP
Listen in your browser - HTML5 player(in browser, HTML5)
Click here to listen with your own player(launches your MP3 player)

KBOW 051850Z 08004KT 7SM VCTS -RA SCT015 BKN030 25/23 A3003

KBOW Airport Info (Airnav.com)

KBOW Flight Activity (Flightaware)

Listeners: 0 out of 1343 total

Bartow Tower: 121.200

KBPK CTAF (Archives)
Mountain Home, Arkansas, United States

Feed Status: UP
Listen in your browser - HTML5 player(in browser, HTML5)
Click here to listen with your own player(launches your MP3 player)

KBPK 051853Z AUTO VRB05KT 10SM BKN040 26/15 A3010 RMK AO2 SLP183 T02560150

KBPK Airport Info (Airnav.com)

KBPK Flight Activity (Flightaware)

Listeners: 0 out of 1343 total

Baxter County CTAF: 123.000

KBTL/KAZO Gnd/Twr/App (Archives)
Battle Creek, Michigan, United States

Feed Status: UP
Listen in your browser - HTML5 player(in browser, HTML5)
Click here to listen with your own player(launches your MP3 player)

KBTL Airport Info (Airnav.com)

KBTL Flight Activity (Flightaware)

Listeners: 1 out of 1343 total

Battle Creek Ground: 121.700
Battle Creek Tower: 126.825
Kalamazoo Approach/Departure: 119.200
Kalamazoo Ground: 121.900
Kalamazoo Tower: 118.300

3CK/KBUU CTAF (Archives)
Burlington, Wisconsin, United States

Feed Status: UP
Listen in your browser - HTML5 player(in browser, HTML5)
Click here to listen with your own player(launches your MP3 player)

K3CK Airport Info (Airnav.com)

K3CK Flight Activity (Flightaware)

Listeners: 1 out of 1343 total

Lake in the Hills CTAF: 123.050

KBVI ATIS (Archives)
Beaver Falls, Pennsylvania, United States

Feed Status: UP
Listen in your browser - HTML5 player(in browser, HTML5)
Click here to listen with your own player(launches your MP3 player)

KBVI 051855Z AUTO 28004KT 10SM SCT055 24/12 A3013 RMK AO2 T02440118

KBVI Airport Info (Airnav.com)

KBVI Flight Activity (Flightaware)

Listeners: 0 out of 1343 total

Beaver County ATIS: 118.350

KBVI Ground (Archives)
Beaver Falls, Pennsylvania, United States

Feed Status: UP
Listen in your browser - HTML5 player(in browser, HTML5)
Click here to listen with your own player(launches your MP3 player)

KBVI 051855Z AUTO 28004KT 10SM SCT055 24/12 A3013 RMK AO2 T02440118

KBVI Airport Info (Airnav.com)

KBVI Flight Activity (Flightaware)

Listeners: 0 out of 1343 total

Beaver County Clearance (when Tower closed): 124.850
Beaver County Ground: 121.800

KBVI Ground/Tower (Archives)
Beaver Falls, Pennsylvania, United States

Feed Status: UP
Listen in your browser - HTML5 player(in browser, HTML5)
Click here to listen with your own player(launches your MP3 player)

KBVI 051855Z AUTO 28004KT 10SM SCT055 24/12 A3013 RMK AO2 T02440118

KBVI Airport Info (Airnav.com)

KBVI Flight Activity (Flightaware)

Listeners: 2 out of 1343 total

Beaver County Clearance (when Tower closed): 124.850
Beaver County Ground: 121.800
Beaver County Tower: 120.300

KBVI Tower (Archives)
Beaver Falls, Pennsylvania, United States

Feed Status: UP
Listen in your browser - HTML5 player(in browser, HTML5)
Click here to listen with your own player(launches your MP3 player)

KBVI 051855Z AUTO 28004KT 10SM SCT055 24/12 A3013 RMK AO2 T02440118

KBVI Airport Info (Airnav.com)

KBVI Flight Activity (Flightaware)

Listeners: 0 out of 1343 total

Beaver County Tower: 120.300

KBVI Tower (Archives)
Beaver Falls, Pennsylvania, United States

Feed Status: UP
Listen in your browser - HTML5 player(in browser, HTML5)
Click here to listen with your own player(launches your MP3 player)

KBVI 051855Z AUTO 28004KT 10SM SCT055 24/12 A3013 RMK AO2 T02440118

KBVI Airport Info (Airnav.com)

KBVI Flight Activity (Flightaware)

Listeners: 0 out of 1343 total

Beaver County Tower: 120.300

KBVY ATIS (Archives)
Beverly, Massachusetts, United States

Feed Status: UP
Listen in your browser - HTML5 player(in browser, HTML5)
Click here to listen with your own player(launches your MP3 player)

KBVY 051853Z 00000KT 10SM FEW065 30/19 A2993 RMK AO2 SLP130 T03000189 PNO $

KBVY Airport Info (Airnav.com)

KBVY Flight Activity (Flightaware)

Listeners: 1 out of 1343 total

Beverly ATIS: 119.200

KBVY Ground (Archives)
Beverly, Massachusetts, United States

Feed Status: UP
Listen in your browser - HTML5 player(in browser, HTML5)
Click here to listen with your own player(launches your MP3 player)

KBVY 051853Z 00000KT 10SM FEW065 30/19 A2993 RMK AO2 SLP130 T03000189 PNO $

KBVY Airport Info (Airnav.com)

KBVY Flight Activity (Flightaware)

Listeners: 0 out of 1343 total

Beverly Ground: 121.600

KBVY Tower #1 (Archives)
Beverly, Massachusetts, United States

Feed Status: UP
Listen in your browser - HTML5 player(in browser, HTML5)
Click here to listen with your own player(launches your MP3 player)

KBVY 051853Z 00000KT 10SM FEW065 30/19 A2993 RMK AO2 SLP130 T03000189 PNO $

KBVY Airport Info (Airnav.com)

KBVY Flight Activity (Flightaware)

Listeners: 0 out of 1343 total

Beverly Tower: 125.200

KBVY Tower #2 (Archives)
Beverly, Massachusetts, United States

Feed Status: UP
Listen in your browser - HTML5 player(in browser, HTML5)
Click here to listen with your own player(launches your MP3 player)

KBVY 051853Z 00000KT 10SM FEW065 30/19 A2993 RMK AO2 SLP130 T03000189 PNO $

KBVY Airport Info (Airnav.com)

KBVY Flight Activity (Flightaware)

Listeners: 0 out of 1343 total

Beverly Tower: 125.200

KBXM CTAF/AWOS (Archives)
Brunswick, Maine, United States

Feed Status: UP
Listen in your browser - HTML5 player(in browser, HTML5)
Click here to listen with your own player(launches your MP3 player)

KBXM Airport Info (Airnav.com)

KBXM Flight Activity (Flightaware)

Listeners: 0 out of 1343 total

Brunswick CTAF/UNICOM: 122.725
Clearance (GCO): 121.725
KBXM AWOS: 134.875

KBZN App/Dep (Archives)
Bozeman, Montana, United States

Feed Status: UP
Listen in your browser - HTML5 player(in browser, HTML5)
Click here to listen with your own player(launches your MP3 player)

KBZN 051856Z 07006KT 10SM CLR 28/10 A3001 RMK AO2 LTG DSNT SE AND S SLP116 T02830100

KBZN Airport Info (Airnav.com)

KBZN Flight Activity (Flightaware)

Listeners: 0 out of 1343 total

Big Sky Approach/Departure: 118.975

KBZN ATIS (Archives)
Bozeman, Montana, United States

Feed Status: UP
Listen in your browser - HTML5 player(in browser, HTML5)
Click here to listen with your own player(launches your MP3 player)

KBZN 051856Z 07006KT 10SM CLR 28/10 A3001 RMK AO2 LTG DSNT SE AND S SLP116 T02830100

KBZN Airport Info (Airnav.com)

KBZN Flight Activity (Flightaware)

Listeners: 0 out of 1343 total

Bozeman ATIS: 135.425

KBZN Ground (Archives)
Bozeman, Montana, United States

Feed Status: UP
Listen in your browser - HTML5 player(in browser, HTML5)
Click here to listen with your own player(launches your MP3 player)

KBZN 051856Z 07006KT 10SM CLR 28/10 A3001 RMK AO2 LTG DSNT SE AND S SLP116 T02830100

KBZN Airport Info (Airnav.com)

KBZN Flight Activity (Flightaware)

Listeners: 0 out of 1343 total

Bozeman Ground: 121.800

KBZN Tower #1
Bozeman, Montana, United States

Feed Status: DOWN
Offline since: 2019-12-19 20:24:05 UTC

KBZN 051856Z 07006KT 10SM CLR 28/10 A3001 RMK AO2 LTG DSNT SE AND S SLP116 T02830100

KBZN Airport Info (Airnav.com)

Bozeman Tower/CTAF: 118.200

KBZN Tower #2 (Archives)
Bozeman, Montana, United States

Feed Status: UP
Listen in your browser - HTML5 player(in browser, HTML5)
Click here to listen with your own player(launches your MP3 player)

KBZN 051856Z 07006KT 10SM CLR 28/10 A3001 RMK AO2 LTG DSNT SE AND S SLP116 T02830100

KBZN Airport Info (Airnav.com)

KBZN Flight Activity (Flightaware)

Listeners: 0 out of 1343 total

Bozeman Tower/CTAF: 118.200

KCCB CTAF (Archives)
Upland, California, United States

Feed Status: UP
Listen in your browser - HTML5 player(in browser, HTML5)
Click here to listen with your own player(launches your MP3 player)

KCCB Airport Info (Airnav.com)

KCCB Flight Activity (Flightaware)

Listeners: 0 out of 1343 total

Upland CTAF: 123.000

KCCO Area Air-to-Air
Atlanta, Georgia, United States

Feed Status: DOWN
Offline since: 2020-08-05 11:45:39 UTC

KCCO 051835Z AUTO 13007KT 10SM SCT049 BKN055 BKN100 32/21 A3003 RMK AO2 T03160210

KCCO Airport Info (Airnav.com)

Newnan Area Air to Air: 123.450

KCCO AWOS
Atlanta, Georgia, United States

Feed Status: DOWN
Offline since: 2020-08-05 11:45:39 UTC

KCCO 051835Z AUTO 13007KT 10SM SCT049 BKN055 BKN100 32/21 A3003 RMK AO2 T03160210

KCCO Airport Info (Airnav.com)

Newnan AWOS: 118.975

KCCO CTAF (Archives)
Atlanta, Georgia, United States

Feed Status: UP
Listen in your browser - HTML5 player(in browser, HTML5)
Click here to listen with your own player(launches your MP3 player)

KCCO 051835Z AUTO 13007KT 10SM SCT049 BKN055 BKN100 32/21 A3003 RMK AO2 T03160210

KCCO Airport Info (Airnav.com)

KCCO Flight Activity (Flightaware)

Listeners: 0 out of 1343 total

Emergency/Guard: 121.500
Flight School Company Channel: 123.300
Newnan CTAF: 122.700

KCCO Emergency/Guard
Atlanta, Georgia, United States

Feed Status: DOWN
Offline since: 2020-08-05 11:45:39 UTC

KCCO 051835Z AUTO 13007KT 10SM SCT049 BKN055 BKN100 32/21 A3003 RMK AO2 T03160210

KCCO Airport Info (Airnav.com)

Emergency/Guard: 121.500

KCCR Gnd/Twr (Archives)
Concord, California, United States

Feed Status: UP
Listen in your browser - HTML5 player(in browser, HTML5)
Click here to listen with your own player(launches your MP3 player)

KCCR 051853Z 20014KT 10SM OVC015 18/13 A2995 RMK AO2 SLP127 T01830128

KCCR Airport Info (Airnav.com)

KCCR Flight Activity (Flightaware)

Listeners: 0 out of 1343 total

Concord Ground: 121.900
Concord Tower: 119.700

51FL/KCDK/KCTY/X60 CTAF (Archives)
Cedar Key, Florida, United States

Feed Status: UP
Listen in your browser - HTML5 player(in browser, HTML5)
Click here to listen with your own player(launches your MP3 player)


Listeners: 0 out of 1343 total

Cedar Key CTAF: 122.900
Cross City CTAF: 122.800
Emergency/Guard: 121.500
Jacksonville Approach/Departure: 118.600
Jacksonville Center: 127.800
Williston CTAF: 122.975

KCDW Del/Gnd/Twr
Caldwell, New Jersey, United States

Feed Status: DOWN
Offline since: 2020-08-04 20:14:38 UTC

KCDW 051853Z 30008G18KT 10SM SCT060 31/14 A3002 RMK AO2 SLP169 T03110139

KCDW Airport Info (Airnav.com)

Caldwell Clearance: 121.100
Caldwell Ground: 121.900
Caldwell Tower: 119.800

KCEU CTAF/App
Clemson, South Carolina, United States

Feed Status: DOWN
Offline since: 2019-10-13 21:53:39 UTC

KCEU Airport Info (Airnav.com)

CTAF: 122.700
Greer Approach/Departure: 118.800

KCEZ CTAF/ZDV
Cortez, Colorado, United States

Feed Status: DOWN
Offline since: 2020-06-20 20:36:22 UTC

KCEZ 051853Z AUTO 20011KT 10SM CLR 29/03 A3020 RMK AO2 SLP143 T02940033

KCEZ Airport Info (Airnav.com)

Cortez CTAF: 122.800
Denver Center (Sector 36 Farmington Low): 118.575
Emergency/Guard: 121.500

KCFD CTAF/App (Archives)
Bryan, Texas, United States

Feed Status: UP
Listen in your browser - HTML5 player(in browser, HTML5)
Click here to listen with your own player(launches your MP3 player)

KCFD 051855Z AUTO 18003KT 10SM CLR 35/20 A3001 RMK AO2 T03490195

KCFD Airport Info (Airnav.com)

KCFD Flight Activity (Flightaware)

Listeners: 1 out of 1343 total

Bryan CTAF/UNICOM: 123.000
Houston Approach/Departure: 134.300

KCGZ AWOS (Archives)
Casa Grande, Arizona, United States

Feed Status: UP
Listen in your browser - HTML5 player(in browser, HTML5)
Click here to listen with your own player(launches your MP3 player)

KCGZ 051856Z AUTO 18009G14KT 10SM CLR 40/13 A2988 RMK AO2 SLP096 T04000128

KCGZ Airport Info (Airnav.com)

KCGZ Flight Activity (Flightaware)

Listeners: 0 out of 1343 total

Casa Grande AWOS: 132.175

KCGZ CTAF (Archives)
Casa Grande, Arizona, United States

Feed Status: UP
Listen in your browser - HTML5 player(in browser, HTML5)
Click here to listen with your own player(launches your MP3 player)

KCGZ 051856Z AUTO 18009G14KT 10SM CLR 40/13 A2988 RMK AO2 SLP096 T04000128

KCGZ Airport Info (Airnav.com)

KCGZ Flight Activity (Flightaware)

Listeners: 0 out of 1343 total

Casa Grande CTAF: 122.700

KCGZ SE/SW Practice Area (Archives)
Casa Grande, Arizona, United States

Feed Status: UP
Listen in your browser - HTML5 player(in browser, HTML5)
Click here to listen with your own player(launches your MP3 player)

KCGZ 051856Z AUTO 18009G14KT 10SM CLR 40/13 A2988 RMK AO2 SLP096 T04000128

KCGZ Airport Info (Airnav.com)

KCGZ Flight Activity (Flightaware)

Listeners: 0 out of 1343 total

Casa Grande SE Practice Area: 122.850

KCHD Tower (North) (Archives)
Chandler, Arizona, United States

Feed Status: UP
Listen in your browser - HTML5 player(in browser, HTML5)
Click here to listen with your own player(launches your MP3 player)

KCHD 051847Z 16008G14KT 10SM FEW150 40/13 A2986

KCHD Airport Info (Airnav.com)

KCHD Flight Activity (Flightaware)

Listeners: 0 out of 1343 total

Chandler Tower (North): 126.100

KCHD Tower (South) (Archives)
Chandler, Arizona, United States

Feed Status: UP
Listen in your browser - HTML5 player(in browser, HTML5)
Click here to listen with your own player(launches your MP3 player)

KCHD 051847Z 16008G14KT 10SM FEW150 40/13 A2986

KCHD Airport Info (Airnav.com)

KCHD Flight Activity (Flightaware)

Listeners: 0 out of 1343 total

Chandler Tower (South): 133.100

KCHK CTAF (Archives)
Chickasha, Oklahoma, United States

Feed Status: UP
Listen in your browser - HTML5 player(in browser, HTML5)
Click here to listen with your own player(launches your MP3 player)

KCHK 051835Z AUTO 15007KT 10SM CLR 27/19 A3001 RMK AO2 T02720193

KCHK Airport Info (Airnav.com)

KCHK Flight Activity (Flightaware)

Listeners: 0 out of 1343 total

Chickasha CTAF: 123.000

KCHO Tower (Archives)
Charlottesville, Virginia, United States

Feed Status: UP
Listen in your browser - HTML5 player(in browser, HTML5)
Click here to listen with your own player(launches your MP3 player)

KCHO 051853Z 10007KT 10SM CLR 31/20 A3006 RMK AO2 SLP170 T03110200

KCHO Airport Info (Airnav.com)

KCHO Flight Activity (Flightaware)

Listeners: 0 out of 1343 total

Charlottesville Tower: 124.500

KCHO Tower/App (Archives)
Charlottesville, Virginia, United States

Feed Status: UP
Listen in your browser - HTML5 player(in browser, HTML5)
Click here to listen with your own player(launches your MP3 player)

KCHO 051853Z 10007KT 10SM CLR 31/20 A3006 RMK AO2 SLP170 T03110200

KCHO Airport Info (Airnav.com)

KCHO Flight Activity (Flightaware)

Listeners: 1 out of 1343 total

Charlottesville Tower: 124.500
Potomac Approach/Departure: 132.850

KCIC Tower/ZOA42 (Archives)
Chico, California, United States

Feed Status: UP
Listen in your browser - HTML5 player(in browser, HTML5)
Click here to listen with your own player(launches your MP3 player)

KCIC 051847Z 00000KT 10SM SKC 25/14 A2990 RMK HZ

KCIC Airport Info (Airnav.com)

KCIC Flight Activity (Flightaware)

Listeners: 0 out of 1343 total

Chico CTAF/Tower: 121.000
Oakland Center (Sector 42 Low): 132.200

KCID Gnd/Twr/App/KIOW (Archives)
Cedar Rapids, Iowa, United States

Feed Status: UP
Listen in your browser - HTML5 player(in browser, HTML5)
Click here to listen with your own player(launches your MP3 player)

KCID 051852Z 18005KT 10SM FEW049 BKN065 23/12 A3011 RMK AO2 SLP194 T02280117

KCID Airport Info (Airnav.com)

KCID Flight Activity (Flightaware)

Listeners: 0 out of 1343 total

Cedar Rapids Approach (091-269): 119.700
Cedar Rapids Approach (270-090): 134.050
Cedar Rapids Clearance Delivery: 125.450
Cedar Rapids Ground (0500-2330): 121.600
Cedar Rapids Tower (0500-2330): 118.700
UNICOM C17 (Marion) and surrounding area: 122.700
UNICOM IA24 Green Castle: 122.900
UNICOM KIOW (Iowa City) and surrounding area: 122.800

KCIU CTAF (Air Race Classic)
Sault Ste Marie, Michigan, United States

Feed Status: DOWN
Offline since: 2019-06-24 17:12:02 UTC

Chippewa CTAF: 123.000

KCKB App/Dep (Archives)
Clarksburg, West Virginia, United States

Feed Status: UP
Listen in your browser - HTML5 player(in browser, HTML5)
Click here to listen with your own player(launches your MP3 player)

KCKB 051853Z 10SM FEW047 28/13 A3011 RMK AO2 SLP182 T02780133

KCKB Airport Info (Airnav.com)

KCKB Flight Activity (Flightaware)

Listeners: 0 out of 1343 total

Clarksburg Approach (East): 121.150
Clarksburg Approach (West): 119.600

KCKB App/Dep (East) (Archives)
Clarksburg, West Virginia, United States

Feed Status: UP
Listen in your browser - HTML5 player(in browser, HTML5)
Click here to listen with your own player(launches your MP3 player)

KCKB 051853Z 10SM FEW047 28/13 A3011 RMK AO2 SLP182 T02780133

KCKB Airport Info (Airnav.com)

KCKB Flight Activity (Flightaware)

Listeners: 0 out of 1343 total

Clarksburg Approach (East): 121.150

KCKB App/Dep (West) (Archives)
Clarksburg, West Virginia, United States

Feed Status: UP
Listen in your browser - HTML5 player(in browser, HTML5)
Click here to listen with your own player(launches your MP3 player)

KCKB 051853Z 10SM FEW047 28/13 A3011 RMK AO2 SLP182 T02780133

KCKB Airport Info (Airnav.com)

KCKB Flight Activity (Flightaware)

Listeners: 0 out of 1343 total

Clarksburg Approach (West): 119.600

KCKB Emergency/Guard (Archives)
Clarksburg, West Virginia, United States

Feed Status: UP
Listen in your browser - HTML5 player(in browser, HTML5)
Click here to listen with your own player(launches your MP3 player)

KCKB 051853Z 10SM FEW047 28/13 A3011 RMK AO2 SLP182 T02780133

KCKB Airport Info (Airnav.com)

KCKB Flight Activity (Flightaware)

Listeners: 0 out of 1343 total

Emergency/Guard: 121.500

KCKB Ground (Archives)
Clarksburg, West Virginia, United States

Feed Status: UP
Listen in your browser - HTML5 player(in browser, HTML5)
Click here to listen with your own player(launches your MP3 player)

KCKB 051853Z 10SM FEW047 28/13 A3011 RMK AO2 SLP182 T02780133

KCKB Airport Info (Airnav.com)

KCKB Flight Activity (Flightaware)

Listeners: 0 out of 1343 total

Clarksburg Ground: 121.900

KCKB Ground/Tower (Archives)
Clarksburg, West Virginia, United States

Feed Status: UP
Listen in your browser - HTML5 player(in browser, HTML5)
Click here to listen with your own player(launches your MP3 player)

KCKB 051853Z 10SM FEW047 28/13 A3011 RMK AO2 SLP182 T02780133

KCKB Airport Info (Airnav.com)

KCKB Flight Activity (Flightaware)

Listeners: 0 out of 1343 total

Clarksburg Ground: 121.900
Clarksburg Tower: 126.700

KCKB Tower (Archives)
Clarksburg, West Virginia, United States

Feed Status: UP
Listen in your browser - HTML5 player(in browser, HTML5)
Click here to listen with your own player(launches your MP3 player)

KCKB 051853Z 10SM FEW047 28/13 A3011 RMK AO2 SLP182 T02780133

KCKB Airport Info (Airnav.com)

KCKB Flight Activity (Flightaware)

Listeners: 0 out of 1343 total

Clarksburg Tower: 126.700

KCLM Del/CTAF/App (Archives)
Port Angeles, Washington, United States

Feed Status: UP
Listen in your browser - HTML5 player(in browser, HTML5)
Click here to listen with your own player(launches your MP3 player)

KCLM 051853Z AUTO 29012G18KT 10SM CLR 18/12 A2997 RMK AO2 SLP148 T01830122

KCLM Airport Info (Airnav.com)

KCLM Flight Activity (Flightaware)

Listeners: 0 out of 1343 total

Clearance Delivery: 124.150
Fairchild CTAF: 122.975
Seattle Radio (Port Angeles RCO): 122.600
Whidbey Approach: 118.200

KCMA ATIS (Archives)
Camarillo, California, United States

Feed Status: UP
Listen in your browser - HTML5 player(in browser, HTML5)
Click here to listen with your own player(launches your MP3 player)

KCMA 051855Z 26005KT 8SM OVC014 20/15 A2996 RMK AO2 SLP154 T02000150

KCMA Airport Info (Airnav.com)

KCMA Flight Activity (Flightaware)

Listeners: 0 out of 1343 total

Camarillo ATIS: 126.025

KCMA Gnd/Twr/App (Archives)
Camarillo, California, United States

Feed Status: UP
Listen in your browser - HTML5 player(in browser, HTML5)
Click here to listen with your own player(launches your MP3 player)

KCMA 051855Z 26005KT 8SM OVC014 20/15 A2996 RMK AO2 SLP154 T02000150

KCMA Airport Info (Airnav.com)

KCMA Flight Activity (Flightaware)

Listeners: 0 out of 1343 total

Camarillo Ground: 121.800
Camarillo Tower: 128.200
Point Mugu Approach: 124.700

KWDR/KCVC/KCNI CTAF (Archives)
Canton, Georgia, United States

Feed Status: UP
Listen in your browser - HTML5 player(in browser, HTML5)
Click here to listen with your own player(launches your MP3 player)

KWDR 051855Z AUTO 21003KT SCT049 SCT065 SCT110 32/18 A3005 RMK AO2 LTG DSNT N PWINO

KWDR Airport Info (Airnav.com)

KWDR Flight Activity (Flightaware)

Listeners: 0 out of 1343 total

KWDR/KCVC/KCNI CTAF: 123.000

KCNO Ground (Archives)
Chino, California, United States

Feed Status: UP
Listen in your browser - HTML5 player(in browser, HTML5)
Click here to listen with your own player(launches your MP3 player)

KCNO 051853Z VRB05KT 7SM FEW025 27/14 A2996 RMK AO2 SLP138 T02720144

KCNO Airport Info (Airnav.com)

KCNO Flight Activity (Flightaware)

Listeners: 0 out of 1343 total

Chino Ground: 121.600

KCNO Ground/Tower (Archives)
Chino, California, United States

Feed Status: UP
Listen in your browser - HTML5 player(in browser, HTML5)
Click here to listen with your own player(launches your MP3 player)

KCNO 051853Z VRB05KT 7SM FEW025 27/14 A2996 RMK AO2 SLP138 T02720144

KCNO Airport Info (Airnav.com)

KCNO Flight Activity (Flightaware)

Listeners: 2 out of 1343 total

Chino Ground: 121.600
Chino Tower: 118.500

KCNO Tower (Archives)
Chino, California, United States

Feed Status: UP
Listen in your browser - HTML5 player(in browser, HTML5)
Click here to listen with your own player(launches your MP3 player)

KCNO 051853Z VRB05KT 7SM FEW025 27/14 A2996 RMK AO2 SLP138 T02720144

KCNO Airport Info (Airnav.com)

KCNO Flight Activity (Flightaware)

Listeners: 0 out of 1343 total

Chino Tower: 118.500

MA/NH/RI/CT Area CTAF (Archives)
Concord, New Hampshire, United States

Feed Status: UP
Listen in your browser - HTML5 player(in browser, HTML5)
Click here to listen with your own player(launches your MP3 player)

KBOS 051854Z 24010KT 10SM BKN065 33/16 A2993 RMK AO2 SLP136 T03280156

KBOS Airport Info (Airnav.com)

KBOS Flight Activity (Flightaware)

Listeners: 0 out of 1343 total

Air-to-Air: 122.750
Bridgeport Flight Service: 122.200
CTAF: 122.700
CTAF: 122.800
CTAF: 122.900
CTAF: 123.000
Emergency/Guard: 121.500

MA/NH/RI/CT Area CTAF (Archives)
Concord, New Hampshire, United States

Feed Status: UP
Listen in your browser - HTML5 player(in browser, HTML5)
Click here to listen with your own player(launches your MP3 player)

KBOS 051854Z 24010KT 10SM BKN065 33/16 A2993 RMK AO2 SLP136 T03280156

KBOS Airport Info (Airnav.com)

KBOS Flight Activity (Flightaware)

Listeners: 0 out of 1343 total

Air-to-Air: 122.750
Bridgeport Flight Service: 122.200
CTAF: 122.700
CTAF: 122.800
CTAF: 122.900
CTAF: 123.000
Emergency/Guard: 121.500

MA/NH/RI/CT Area CTAF (Archives)
Concord, New Hampshire, United States

Feed Status: UP
Listen in your browser - HTML5 player(in browser, HTML5)
Click here to listen with your own player(launches your MP3 player)

KBOS 051854Z 24010KT 10SM BKN065 33/16 A2993 RMK AO2 SLP136 T03280156

KBOS Airport Info (Airnav.com)

KBOS Flight Activity (Flightaware)

Listeners: 0 out of 1343 total

Air-to-Air: 122.750
Bridgeport Flight Service: 122.200
CTAF: 122.700
CTAF: 122.800
CTAF: 122.900
CTAF: 123.000
Emergency/Guard: 121.500

KCOU CTAF/Gnd/App (Archives)
Columbia, Missouri, United States

Feed Status: UP
Listen in your browser - HTML5 player(in browser, HTML5)
Click here to listen with your own player(launches your MP3 player)

KCOU 051854Z 14006KT 10SM SCT042 SCT060 24/13 A3012 RMK AO2 SLP195 T02390133

KCOU Airport Info (Airnav.com)

KCOU Flight Activity (Flightaware)

Listeners: 1 out of 1343 total

Columbia CTAF: 119.300
Columbia Ground: 121.600
Columbia UNICOM: 122.950
Mizzou Approach/Departure: 124.375

KCPM CTAF (Archives)
Compton, California, United States

Feed Status: UP
Listen in your browser - HTML5 player(in browser, HTML5)
Click here to listen with your own player(launches your MP3 player)

KCPM Airport Info (Airnav.com)

KCPM Flight Activity (Flightaware)

Listeners: 0 out of 1343 total

Compton CTAF: 123.050

KCPR Tower/App (Archives)
Casper, Wyoming, United States

Feed Status: UP
Listen in your browser - HTML5 player(in browser, HTML5)
Click here to listen with your own player(launches your MP3 player)

KCPR 051853Z 08009G15KT 10SM CLR 29/09 A3008 RMK AO2 SLP111 T02940094

KCPR Airport Info (Airnav.com)

KCPR Flight Activity (Flightaware)

Listeners: 0 out of 1343 total

Casper Approach: 120.650
Casper Tower: 118.300

KCPS Del/Gnd/Twr/App (Archives)
Cahokia/St Louis, Illinois, United States

Feed Status: UP
Listen in your browser - HTML5 player(in browser, HTML5)
Click here to listen with your own player(launches your MP3 player)

KCPS 051853Z 04004KT 10SM OVC055 23/12 A3013 RMK AO2 SLP200 T02330122

KCPS Airport Info (Airnav.com)

KCPS Flight Activity (Flightaware)

Listeners: 0 out of 1343 total

Downtown Clearance Delivery: 118.275
Downtown Ground: 121.800
Downtown Tower: 119.925
St. Louis Approach/Departure: 123.700

KCQF CTAF/Misc (Archives)
Fairhope, Alabama, United States

Feed Status: UP
Listen in your browser - HTML5 player(in browser, HTML5)
Click here to listen with your own player(launches your MP3 player)

KCQF 051855Z AUTO 26005KT 10SM CLR 31/22 A2998 RMK AO2

KCQF Airport Info (Airnav.com)

KCQF Flight Activity (Flightaware)

Listeners: 0 out of 1343 total

Emergency/Guard: 121.500
Fairhope CTAF: 123.000

KCRE Ground/Tower (Archives)
North Myrtle Beach, South Carolina, United States

Feed Status: UP
Listen in your browser - HTML5 player(in browser, HTML5)
Click here to listen with your own player(launches your MP3 player)

KCRE 051853Z 16008KT 10SM CLR 29/26 A3003 RMK AO1 SLP171 T02940256

KCRE Airport Info (Airnav.com)

KCRE Flight Activity (Flightaware)

Listeners: 0 out of 1343 total

Strand Ground: 121.800
Strand Tower: 124.600

KCRG Gnd/Twr/App (Archives)
Jacksonville, Florida, United States

Feed Status: UP
Listen in your browser - HTML5 player(in browser, HTML5)
Click here to listen with your own player(launches your MP3 player)

KCRG 051853Z 03007KT 10SM TS FEW027 SCT047 BKN070 28/22 A3001 RMK AO2 TSB18 SLP163 T02830222

KCRG Airport Info (Airnav.com)

KCRG Flight Activity (Flightaware)

Listeners: 2 out of 1343 total

Craig Clearance: 118.350
Craig Ground: 121.800
Craig Tower: 132.100
Jacksonville Approach: 118.000
Jacksonville Approach: 124.900

KCRQ Tower (Archives)
Carlsbad, California, United States

Feed Status: UP
Listen in your browser - HTML5 player(in browser, HTML5)
Click here to listen with your own player(launches your MP3 player)

KCRQ 051853Z 23007G16KT 200V260 10SM CLR 21/14 A2996 RMK AO2 SLP141 T02110144

KCRQ Airport Info (Airnav.com)

KCRQ Flight Activity (Flightaware)

Listeners: 1 out of 1343 total

Palomar Tower: 118.600

KCTJ/KLGC CTAF (Archives)
Carrollton, Georgia, United States

Feed Status: UP
Listen in your browser - HTML5 player(in browser, HTML5)
Click here to listen with your own player(launches your MP3 player)

KCCO 051835Z AUTO 13007KT 10SM SCT049 BKN055 BKN100 32/21 A3003 RMK AO2 T03160210

KCCO Airport Info (Airnav.com)

KCCO Flight Activity (Flightaware)

Listeners: out of 1343 total

KCTJ/KLGC CTAF: 122.975

51FL/KCDK/KCTY/X60 CTAF (Archives)
Cross City, Florida, United States

Feed Status: UP
Listen in your browser - HTML5 player(in browser, HTML5)
Click here to listen with your own player(launches your MP3 player)


Listeners: 0 out of 1343 total

Cedar Key CTAF: 122.900
Cross City CTAF: 122.800
Emergency/Guard: 121.500
Jacksonville Approach/Departure: 118.600
Jacksonville Center: 127.800
Williston CTAF: 122.975

KCUB CTAF
Columbia, South Carolina, United States

Feed Status: DOWN
Offline since: 2020-08-04 03:44:22 UTC

KCUB 051853Z AUTO 00000KT 10SM CLR 29/24 A3002 RMK AO2 LTG DSNT S-W SLP163 T02940239

KCUB Airport Info (Airnav.com)

Columbia CTAF: 123.075

KWDR/KCVC/KCNI CTAF (Archives)
Atlanta, Georgia, United States

Feed Status: UP
Listen in your browser - HTML5 player(in browser, HTML5)
Click here to listen with your own player(launches your MP3 player)

KWDR 051855Z AUTO 21003KT SCT049 SCT065 SCT110 32/18 A3005 RMK AO2 LTG DSNT N PWINO

KWDR Airport Info (Airnav.com)

KWDR Flight Activity (Flightaware)

Listeners: 0 out of 1343 total

KWDR/KCVC/KCNI CTAF: 123.000

KCVO CTAF/Misc (Archives)
Corvallis, Oregon, United States

Feed Status: UP
Listen in your browser - HTML5 player(in browser, HTML5)
Click here to listen with your own player(launches your MP3 player)

KCVO 051856Z AUTO 34005KT 10SM CLR 23/14 A2998 RMK AO2 SLP151 T02330144

KCVO Airport Info (Airnav.com)

KCVO Flight Activity (Flightaware)

Listeners: 0 out of 1343 total

Cascade Approach: 127.500
Cascade Approach: 119.600
Corvallis CTAF: 123.075
Seattle Center (Sector 6 Low): 125.800

KCXY Ground (Archives)
Harrisburg, Pennsylvania, United States

Feed Status: UP
Listen in your browser - HTML5 player(in browser, HTML5)
Click here to listen with your own player(launches your MP3 player)

KMDT 051856Z 28010G17KT 10SM FEW060 29/14 A3004 RMK AO2 SLP172 T02940139

KMDT Airport Info (Airnav.com)

KMDT Flight Activity (Flightaware)

Listeners: 0 out of 1343 total

Capital City Ground: 121.900

KCXY Ground/Tower (Archives)
Harrisburg, Pennsylvania, United States

Feed Status: UP
Listen in your browser - HTML5 player(in browser, HTML5)
Click here to listen with your own player(launches your MP3 player)

KMDT 051856Z 28010G17KT 10SM FEW060 29/14 A3004 RMK AO2 SLP172 T02940139

KMDT Airport Info (Airnav.com)

KMDT Flight Activity (Flightaware)

Listeners: 0 out of 1343 total

Capital City Ground: 121.900
Capital City Tower: 119.500

KCXY Tower (Archives)
Harrisburg, Pennsylvania, United States

Feed Status: UP
Listen in your browser - HTML5 player(in browser, HTML5)
Click here to listen with your own player(launches your MP3 player)

KMDT 051856Z 28010G17KT 10SM FEW060 29/14 A3004 RMK AO2 SLP172 T02940139

KMDT Airport Info (Airnav.com)

KMDT Flight Activity (Flightaware)

Listeners: 0 out of 1343 total

Capital City Tower: 119.500

KCYS Gnd/Twr/App/Center (Archives)
Cheyenne, Wyoming, United States

Feed Status: UP
Listen in your browser - HTML5 player(in browser, HTML5)
Click here to listen with your own player(launches your MP3 player)

KCYS 051853Z 14011G18KT 10SM CLR 28/09 A3015 RMK AO2 SLP111 T02830089

KCYS Airport Info (Airnav.com)

KCYS Flight Activity (Flightaware)

Listeners: 0 out of 1343 total

Cheyenne Approach: 124.550
Cheyenne Ground: 121.900
Cheyenne Tower: 118.700
Denver Center (Sector 21 Cheyenne Low): 125.900
Emergency/Guard: 121.500

KDAA/KADW Tower (Archives)
Fort Belvoir, Virginia, United States

Feed Status: UP
Listen in your browser - HTML5 player(in browser, HTML5)
Click here to listen with your own player(launches your MP3 player)

KDAA 051856Z AUTO 00000KT 10SM BKN050 30/18 A3005 RMK AO2 SLP178 T02950179 $

KDAA Airport Info (Airnav.com)

KDAA Flight Activity (Flightaware)

Listeners: 0 out of 1343 total

Andrews Tower: 118.400
Andrews Tower: 349.000
Davison Tower: 241.000
Davison Tower: 126.300
Davison Tower: 229.400

KDCU CTAF
Decatur, Alabama, United States

Feed Status: DOWN
Offline since: 2020-06-30 23:17:04 UTC

KDCU 051853Z AUTO 04005KT 10SM BKN042 OVC050 29/20 A3003 RMK AO2 SLP161 T02890200

KDCU Airport Info (Airnav.com)

Decatur CTAF: 123.075

KDED CTAF/Misc (Archives)
DeLand, Florida, United States

Feed Status: UP
Listen in your browser - HTML5 player(in browser, HTML5)
Click here to listen with your own player(launches your MP3 player)

KDED 051855Z AUTO 14005KT 10SM SCT046 BKN060 BKN065 33/23 A3002 RMK AO2 LTG DSNT SE AND S T03280232

KDED Airport Info (Airnav.com)

KDED Flight Activity (Flightaware)

Listeners: 0 out of 1343 total

DeLand CTAF/UNICOM: 123.075
Skydive DeLand: 122.850

KDED/1J6 CTAF/UNICOM (Archives)
DeLand, Florida, United States

Feed Status: UP
Listen in your browser - HTML5 player(in browser, HTML5)
Click here to listen with your own player(launches your MP3 player)

KDED 051855Z AUTO 14005KT 10SM SCT046 BKN060 BKN065 33/23 A3002 RMK AO2 LTG DSNT SE AND S T03280232

KDED Airport Info (Airnav.com)

KDED Flight Activity (Flightaware)

Listeners: 0 out of 1343 total

DeLand CTAF/UNICOM: 123.075

Regional Approach (Feeder 2/East)
Dallas, Texas, United States

Feed Status: DOWN
Offline since: 2020-03-29 19:10:05 UTC

KRBD 051853Z 14010KT 10SM 30/21 A3000 RMK AO2 SLP148 T03000206 $

KRBD Airport Info (Airnav.com)

Regional Approach (Feeder 2/East): 133.525

KDLH Gnd/Twr/App (Archives)
Duluth, Minnesota, United States

Feed Status: UP
Listen in your browser - HTML5 player(in browser, HTML5)
Click here to listen with your own player(launches your MP3 player)

KDLH 051855Z 25010G15KT 10SM SCT055 SCT080 24/10 A3004 RMK AO2 SLP171 T02390100

KDLH Airport Info (Airnav.com)

KDLH Flight Activity (Flightaware)

Listeners: 0 out of 1343 total

Duluth Approach/Departure: 125.450
Duluth Ground: 121.900
Duluth Tower: 118.300

KDOV ATIS (Archives)
Dover, Delaware, United States

Feed Status: UP
Listen in your browser - HTML5 player(in browser, HTML5)
Click here to listen with your own player(launches your MP3 player)

KDOV 051856Z AUTO 32003KT 10SM BKN060 30/17 A3004 RMK AO2 SLP175 T02990170 $

KDOV Airport Info (Airnav.com)

KDOV Flight Activity (Flightaware)

Listeners: 0 out of 1343 total

Dover ATIS: 127.825

KDOV Gnd/App (Archives)
Dover, Delaware, United States

Feed Status: UP
Listen in your browser - HTML5 player(in browser, HTML5)
Click here to listen with your own player(launches your MP3 player)

KDOV 051856Z AUTO 32003KT 10SM BKN060 30/17 A3004 RMK AO2 SLP175 T02990170 $

KDOV Airport Info (Airnav.com)

KDOV Flight Activity (Flightaware)

Listeners: 0 out of 1343 total

Dover Approach/Departure: 132.425
Dover Ground: 118.875

KDOV Tower (Archives)
Dover, Delaware, United States

Feed Status: UP
Listen in your browser - HTML5 player(in browser, HTML5)
Click here to listen with your own player(launches your MP3 player)

KDOV 051856Z AUTO 32003KT 10SM BKN060 30/17 A3004 RMK AO2 SLP175 T02990170 $

KDOV Airport Info (Airnav.com)

KDOV Flight Activity (Flightaware)

Listeners: 0 out of 1343 total

Dover Tower: 126.350

KDPA ATIS (Archives)
Chicago, Illinois, United States

Feed Status: UP
Listen in your browser - HTML5 player(in browser, HTML5)
Click here to listen with your own player(launches your MP3 player)

KDPA 051852Z VRB06KT 10SM FEW048 SCT080 25/13 A3011 RMK AO2 SLP194 T02500128

KDPA Airport Info (Airnav.com)

KDPA Flight Activity (Flightaware)

Listeners: 0 out of 1343 total

DuPage ATIS: 132.075

KDPA Chicago Approach (Archives)
Chicago, Illinois, United States

Feed Status: UP
Listen in your browser - HTML5 player(in browser, HTML5)
Click here to listen with your own player(launches your MP3 player)

KORD 051851Z VRB04KT 10SM FEW050 SCT085 SCT200 BKN250 24/11 A3010 RMK AO2 SLP191 T02440111

KORD Airport Info (Airnav.com)

KORD Flight Activity (Flightaware)

Listeners: 1 out of 1343 total

Chicago Approach/Departure: 133.500

KDPA Del/Gnd/Twr/Misc (Archives)
Chicago, Illinois, United States

Feed Status: UP
Listen in your browser - HTML5 player(in browser, HTML5)
Click here to listen with your own player(launches your MP3 player)

KDPA 051852Z VRB06KT 10SM FEW048 SCT080 25/13 A3011 RMK AO2 SLP194 T02500128

KDPA Airport Info (Airnav.com)

KDPA Flight Activity (Flightaware)

Listeners: 0 out of 1343 total

DuPage Clearance Delivery: 119.750
DuPage Flight Center (FBO): 464.375
DuPage Ground: 121.800
DuPage Ground Operations: 469.5875
DuPage Ground Operations: 453.225
DuPage Ground Operations (Airport Authority): 453.500
DuPage Tower: 120.900
DuPage UNICOM ("Flight Center"): 122.950
Flight Service Station (FSS) RCO: 122.550

KDTO ASOS (Archives)
Denton, Texas, United States

Feed Status: UP
Listen in your browser - HTML5 player(in browser, HTML5)
Click here to listen with your own player(launches your MP3 player)

KDTO 051853Z 12006KT 10SM FEW065 FEW085 26/19 A3001 RMK AO2 SLP154 T02610189

KDTO Airport Info (Airnav.com)

KDTO Flight Activity (Flightaware)

Listeners: 0 out of 1343 total

Denton ASOS: 119.325

KDTO Gnd/Twr (Archives)
Denton, Texas, United States

Feed Status: UP
Listen in your browser - HTML5 player(in browser, HTML5)
Click here to listen with your own player(launches your MP3 player)

KDTO 051853Z 12006KT 10SM FEW065 FEW085 26/19 A3001 RMK AO2 SLP154 T02610189

KDTO Airport Info (Airnav.com)

KDTO Flight Activity (Flightaware)

Listeners: 2 out of 1343 total

Denton Ground: 123.950
Denton Tower: 119.950

KDTO Tower (Archives)
Denton, Texas, United States

Feed Status: UP
Listen in your browser - HTML5 player(in browser, HTML5)
Click here to listen with your own player(launches your MP3 player)

KDTO 051853Z 12006KT 10SM FEW065 FEW085 26/19 A3001 RMK AO2 SLP154 T02610189

KDTO Airport Info (Airnav.com)

KDTO Flight Activity (Flightaware)

Listeners: 0 out of 1343 total

Denton Tower: 119.950

KDVO CTAF (Archives)
Novato, California, United States

Feed Status: UP
Listen in your browser - HTML5 player(in browser, HTML5)
Click here to listen with your own player(launches your MP3 player)

KDVO 051855Z AUTO 21014KT 10SM CLR 22/14 A2992 RMK AO2

KDVO Airport Info (Airnav.com)

KDVO Flight Activity (Flightaware)

Listeners: 0 out of 1343 total

Novato CTAF: 123.075

KDVT ATIS (Archives)
Phoenix, Arizona, United States

Feed Status: UP
Listen in your browser - HTML5 player(in browser, HTML5)
Click here to listen with your own player(launches your MP3 player)

KDVT 051853Z 20009G17KT 10SM CLR 39/13 A2987 RMK AO2 SLP084 T03890128

KDVT Airport Info (Airnav.com)

KDVT Flight Activity (Flightaware)

Listeners: 0 out of 1343 total

Deer Valley ATIS: 126.500

KDVT Clearance Delivery (Archives)
Phoenix, Arizona, United States

Feed Status: UP
Listen in your browser - HTML5 player(in browser, HTML5)
Click here to listen with your own player(launches your MP3 player)

KDVT 051853Z 20009G17KT 10SM CLR 39/13 A2987 RMK AO2 SLP084 T03890128

KDVT Airport Info (Airnav.com)

KDVT Flight Activity (Flightaware)

Listeners: 0 out of 1343 total

Deer Valley Clearance Delivery: 123.900

KDVT Delivery/Ground (Archives)
Phoenix, Arizona, United States

Feed Status: UP
Listen in your browser - HTML5 player(in browser, HTML5)
Click here to listen with your own player(launches your MP3 player)

KDVT 051853Z 20009G17KT 10SM CLR 39/13 A2987 RMK AO2 SLP084 T03890128

KDVT Airport Info (Airnav.com)

KDVT Flight Activity (Flightaware)

Listeners: 0 out of 1343 total

Deer Valley Clearance Delivery: 123.900
Deer Valley Ground: 121.800

KDVT Ground (Archives)
Phoenix, Arizona, United States

Feed Status: UP
Listen in your browser - HTML5 player(in browser, HTML5)
Click here to listen with your own player(launches your MP3 player)

KDVT 051853Z 20009G17KT 10SM CLR 39/13 A2987 RMK AO2 SLP084 T03890128

KDVT Airport Info (Airnav.com)

KDVT Flight Activity (Flightaware)

Listeners: 0 out of 1343 total

Deer Valley Ground: 121.800

KDVT Tower (Both) (Archives)
Phoenix, Arizona, United States

Feed Status: UP
Listen in your browser - HTML5 player(in browser, HTML5)
Click here to listen with your own player(launches your MP3 player)

KDVT 051853Z 20009G17KT 10SM CLR 39/13 A2987 RMK AO2 SLP084 T03890128

KDVT Airport Info (Airnav.com)

KDVT Flight Activity (Flightaware)

Listeners: 0 out of 1343 total

Deer Valley Tower (North): 120.200
Deer Valley Tower (South): 118.400

KDVT Tower (North) (Archives)
Phoenix, Arizona, United States

Feed Status: UP
Listen in your browser - HTML5 player(in browser, HTML5)
Click here to listen with your own player(launches your MP3 player)

KDVT 051853Z 20009G17KT 10SM CLR 39/13 A2987 RMK AO2 SLP084 T03890128

KDVT Airport Info (Airnav.com)

KDVT Flight Activity (Flightaware)

Listeners: 4 out of 1343 total

Deer Valley Tower (North): 120.200

KDVT Tower (South) (Archives)
Phoenix, Arizona, United States

Feed Status: UP
Listen in your browser - HTML5 player(in browser, HTML5)
Click here to listen with your own player(launches your MP3 player)

KDVT 051853Z 20009G17KT 10SM CLR 39/13 A2987 RMK AO2 SLP084 T03890128

KDVT Airport Info (Airnav.com)

KDVT Flight Activity (Flightaware)

Listeners: 1 out of 1343 total

Deer Valley Tower (South): 118.400

KDWH Del/ Gnd/Twr (Archives)
Houston, Texas, United States

Feed Status: UP
Listen in your browser - HTML5 player(in browser, HTML5)
Click here to listen with your own player(launches your MP3 player)

KDWH 051853Z 18003KT 10SM FEW048 33/21 A3000 RMK AO2 SLP156 T03330211

KDWH Airport Info (Airnav.com)

KDWH Flight Activity (Flightaware)

Listeners: 4 out of 1343 total

Hooks Clearance Delivery: 119.450
Hooks Ground: 121.800
Hooks Tower (E): 127.400
Hooks Tower (W): 118.400
Hooks UNICOM: 122.950

KDXR ATIS
Danbury, Connecticut, United States

Feed Status: DOWN
Offline since: 2020-08-04 18:23:39 UTC

KDXR 051853Z 26008KT 10SM FEW055 29/16 A3002 RMK AO2 SLP162 T02890156

KDXR Airport Info (Airnav.com)

Danbury ATIS: 127.750

KDXR Ground/Tower
Danbury, Connecticut, United States

Feed Status: DOWN
Offline since: 2020-08-04 18:23:39 UTC

KDXR 051853Z 26008KT 10SM FEW055 29/16 A3002 RMK AO2 SLP162 T02890156

KDXR Airport Info (Airnav.com)

Danbury Ground: 121.600
Danbury Tower: 119.400

KDYL CTAF #1
Doylestown, Pennsylvania, United States

Feed Status: DOWN
Offline since: 2020-08-04 15:08:39 UTC

KDYL 051854Z AUTO 27005KT 10SM FEW055 29/16 A3004 RMK AO2 SLP167 T02940156 $

KDYL Airport Info (Airnav.com)

Doylestown CTAF/UNICOM: 122.975

KDYL CTAF #2 (Archives)
Doylestown, Pennsylvania, United States

Feed Status: UP
Listen in your browser - HTML5 player(in browser, HTML5)
Click here to listen with your own player(launches your MP3 player)

KDYL 051854Z AUTO 27005KT 10SM FEW055 29/16 A3004 RMK AO2 SLP167 T02940156 $

KDYL Airport Info (Airnav.com)

KDYL Flight Activity (Flightaware)

Listeners: 0 out of 1343 total

Doylestown CTAF/UNICOM: 122.975

KEAR AWOS (Archives)
Kearney, Nebraska, United States

Feed Status: UP
Listen in your browser - HTML5 player(in browser, HTML5)
Click here to listen with your own player(launches your MP3 player)

KEAR 051856Z AUTO 13005KT 10SM CLR 26/18 A3001 RMK AO2 SLP149 T02610183

KEAR Airport Info (Airnav.com)

KEAR Flight Activity (Flightaware)

Listeners: 0 out of 1343 total

Kearney AWOS: 123.875

KEAR Columbus Radio (Archives)
Kearney, Nebraska, United States

Feed Status: UP
Listen in your browser - HTML5 player(in browser, HTML5)
Click here to listen with your own player(launches your MP3 player)

KEAR 051856Z AUTO 13005KT 10SM CLR 26/18 A3001 RMK AO2 SLP149 T02610183

KEAR Airport Info (Airnav.com)

KEAR Flight Activity (Flightaware)

Listeners: 0 out of 1343 total

Columbus Radio: 122.550

KEAR CTAF (Archives)
Kearney, Nebraska, United States

Feed Status: UP
Listen in your browser - HTML5 player(in browser, HTML5)
Click here to listen with your own player(launches your MP3 player)

KEAR 051856Z AUTO 13005KT 10SM CLR 26/18 A3001 RMK AO2 SLP149 T02610183

KEAR Airport Info (Airnav.com)

KEAR Flight Activity (Flightaware)

Listeners: 0 out of 1343 total

Kearney CTAF: 123.000

KEAU Tower (Archives)
Eau Claire, Wisconsin, United States

Feed Status: UP
Listen in your browser - HTML5 player(in browser, HTML5)
Click here to listen with your own player(launches your MP3 player)

KEAU 051856Z VRB05KT 10SM FEW060 26/09 A3007 RMK AO2 SLP179 T02560094

KEAU Airport Info (Airnav.com)

KEAU Flight Activity (Flightaware)

Listeners: 0 out of 1343 total

Eau Claire Tower: 118.575

KEDC ATIS (Archives)
Austin, Texas, United States

Feed Status: UP
Listen in your browser - HTML5 player(in browser, HTML5)
Click here to listen with your own player(launches your MP3 player)

KEDC 051855Z AUTO 18008G16KT 10SM CLR 35/18 A2999 RMK AO2

KEDC Airport Info (Airnav.com)

KEDC Flight Activity (Flightaware)

Listeners: 0 out of 1343 total

Executive ATIS/AWOS: 118.825

KEDC Austin App/Dep (Archives)
Austin, Texas, United States

Feed Status: UP
Listen in your browser - HTML5 player(in browser, HTML5)
Click here to listen with your own player(launches your MP3 player)

KEDC 051855Z AUTO 18008G16KT 10SM CLR 35/18 A2999 RMK AO2

KEDC Airport Info (Airnav.com)

KEDC Flight Activity (Flightaware)

Listeners: 0 out of 1343 total

Auston Approach/Departure: 127.225

KEDC Clearance Delivery (Archives)
Austin, Texas, United States

Feed Status: UP
Listen in your browser - HTML5 player(in browser, HTML5)
Click here to listen with your own player(launches your MP3 player)

KEDC 051855Z AUTO 18008G16KT 10SM CLR 35/18 A2999 RMK AO2

KEDC Airport Info (Airnav.com)

KEDC Flight Activity (Flightaware)

Listeners: 0 out of 1343 total

Executive Clearance Delivery (when Tower is closed): 126.025

KEDC Clearance/Ground (Archives)
Austin, Texas, United States

Feed Status: UP
Listen in your browser - HTML5 player(in browser, HTML5)
Click here to listen with your own player(launches your MP3 player)

KEDC 051855Z AUTO 18008G16KT 10SM CLR 35/18 A2999 RMK AO2

KEDC Airport Info (Airnav.com)

KEDC Flight Activity (Flightaware)

Listeners: 0 out of 1343 total

Executive Clearance Delivery (when Tower is closed): 126.025
Executive Ground: 119.450

KEDC Del/Gnd/Twr (Archives)
Austin, Texas, United States

Feed Status: UP
Listen in your browser - HTML5 player(in browser, HTML5)
Click here to listen with your own player(launches your MP3 player)

KEDC 051855Z AUTO 18008G16KT 10SM CLR 35/18 A2999 RMK AO2

KEDC Airport Info (Airnav.com)

KEDC Flight Activity (Flightaware)

Listeners: 0 out of 1343 total

Executive Ground: 119.450
Executive Tower: 120.300

KEDC Ground (Archives)
Austin, Texas, United States

Feed Status: UP
Listen in your browser - HTML5 player(in browser, HTML5)
Click here to listen with your own player(launches your MP3 player)

KEDC 051855Z AUTO 18008G16KT 10SM CLR 35/18 A2999 RMK AO2

KEDC Airport Info (Airnav.com)

KEDC Flight Activity (Flightaware)

Listeners: 0 out of 1343 total

Executive Ground: 119.450

KEDC Ground/Tower (Archives)
Austin, Texas, United States

Feed Status: UP
Listen in your browser - HTML5 player(in browser, HTML5)
Click here to listen with your own player(launches your MP3 player)

KEDC 051855Z AUTO 18008G16KT 10SM CLR 35/18 A2999 RMK AO2

KEDC Airport Info (Airnav.com)

KEDC Flight Activity (Flightaware)

Listeners: 0 out of 1343 total

Executive Ground: 119.450
Executive Tower: 120.300

KEDC Tower (Archives)
Austin, Texas, United States

Feed Status: UP
Listen in your browser - HTML5 player(in browser, HTML5)
Click here to listen with your own player(launches your MP3 player)

KEDC 051855Z AUTO 18008G16KT 10SM CLR 35/18 A2999 RMK AO2

KEDC Airport Info (Airnav.com)

KEDC Flight Activity (Flightaware)

Listeners: 0 out of 1343 total

Executive Tower: 120.300

KEDU CTAF (Archives)
Davis, California, United States

Feed Status: UP
Listen in your browser - HTML5 player(in browser, HTML5)
Click here to listen with your own player(launches your MP3 player)

KEDU 051850Z AUTO 19009KT 9SM CLR 22/14 A2991 RMK AO1

KEDU Airport Info (Airnav.com)

KEDU Flight Activity (Flightaware)

Listeners: 0 out of 1343 total

University CTAF: 123.075

KEEN CTAF (Archives)
Keene, New Hampshire, United States

Feed Status: UP
Listen in your browser - HTML5 player(in browser, HTML5)
Click here to listen with your own player(launches your MP3 player)

KEEN 051856Z AUTO 22008G14KT 10SM SCT060 28/16 A2997 RMK AO2 SLP151 T02830156 $

KEEN Airport Info (Airnav.com)

KEEN Flight Activity (Flightaware)

Listeners: 0 out of 1343 total

Keene CTAF: 123.000

MA/NH/RI/CT Area CTAF (Archives)
Keene, New Hampshire, United States

Feed Status: UP
Listen in your browser - HTML5 player(in browser, HTML5)
Click here to listen with your own player(launches your MP3 player)

KBOS 051854Z 24010KT 10SM BKN065 33/16 A2993 RMK AO2 SLP136 T03280156

KBOS Airport Info (Airnav.com)

KBOS Flight Activity (Flightaware)

Listeners: 0 out of 1343 total

Air-to-Air: 122.750
Bridgeport Flight Service: 122.200
CTAF: 122.700
CTAF: 122.800
CTAF: 122.900
CTAF: 123.000
Emergency/Guard: 121.500

MA/NH/RI/CT Area CTAF (Archives)
Keene, New Hampshire, United States

Feed Status: UP
Listen in your browser - HTML5 player(in browser, HTML5)
Click here to listen with your own player(launches your MP3 player)

KBOS 051854Z 24010KT 10SM BKN065 33/16 A2993 RMK AO2 SLP136 T03280156

KBOS Airport Info (Airnav.com)

KBOS Flight Activity (Flightaware)

Listeners: 0 out of 1343 total

Air-to-Air: 122.750
Bridgeport Flight Service: 122.200
CTAF: 122.700
CTAF: 122.800
CTAF: 122.900
CTAF: 123.000
Emergency/Guard: 121.500

MA/NH/RI/CT Area CTAF (Archives)
Keene, New Hampshire, United States

Feed Status: UP
Listen in your browser - HTML5 player(in browser, HTML5)
Click here to listen with your own player(launches your MP3 player)

KBOS 051854Z 24010KT 10SM BKN065 33/16 A2993 RMK AO2 SLP136 T03280156

KBOS Airport Info (Airnav.com)

KBOS Flight Activity (Flightaware)

Listeners: 0 out of 1343 total

Air-to-Air: 122.750
Bridgeport Flight Service: 122.200
CTAF: 122.700
CTAF: 122.800
CTAF: 122.900
CTAF: 123.000
Emergency/Guard: 121.500

KFTG/KEIK/KBDU/KLMO/Misc (Archives)
Erie, Colorado, United States

Feed Status: UP
Listen in your browser - HTML5 player(in browser, HTML5)
Click here to listen with your own player(launches your MP3 player)

KDEN 051853Z 13013G21KT 10SM FEW080 FEW120 SCT220 33/10 A3007 RMK AO2 SLP090 T03280100

KDEN Airport Info (Airnav.com)

KDEN Flight Activity (Flightaware)

Listeners: 0 out of 1343 total

Air-to-Air Fixed Wing: 122.750
Air-to-Air Informal: 123.450
Boulder CTAF: 122.725
Erie CTAF: 123.000
Front Range Tower: 120.200
KBKF Tower: 121.000
Longmont CTAF: 122.975
MULTICOM: 122.900
UNICOM: 122.950

KEMT Gnd/Twr (Archives)
El Monte, California, United States

Feed Status: UP
Listen in your browser - HTML5 player(in browser, HTML5)
Click here to listen with your own player(launches your MP3 player)

KEMT 051845Z 19004KT 10SM FEW023 23/16 A2996

KEMT Airport Info (Airnav.com)

KEMT Flight Activity (Flightaware)

Listeners: 2 out of 1343 total

El Monte Ground: 125.900
El Monte Tower: 121.200
Santa Fe Dam Practice Area: 123.300

KEND Tower
Enid, Oklahoma, United States

Feed Status: DOWN
Offline since: 2020-04-07 20:40:22 UTC

KEND 051756Z VRB05KT 10SM BKN018 24/23 A3006 RMK SLP171

KEND Airport Info (Airnav.com)

Vance Tower: 124.050

KENW Ground/Tower (Archives)
Kenosha, Wisconsin, United States

Feed Status: UP
Listen in your browser - HTML5 player(in browser, HTML5)
Click here to listen with your own player(launches your MP3 player)

KENW 051853Z 28009G15KT 10SM FEW049 BKN085 25/14 A3011 RMK AO2 SLP194 T02500139

KENW Airport Info (Airnav.com)

KENW Flight Activity (Flightaware)

Listeners: 0 out of 1343 total

Kenosha Ground: 121.875
Kenosha Tower: 118.600

KEST CTAF (Archives)
Estherville, Iowa, United States

Feed Status: UP
Listen in your browser - HTML5 player(in browser, HTML5)
Click here to listen with your own player(launches your MP3 player)

KEST 051852Z AUTO 16011KT 10SM OVC055 19/13 A3006 RMK AO2 SLP179 T01890133

KEST Airport Info (Airnav.com)

KEST Flight Activity (Flightaware)

Listeners: 0 out of 1343 total

Estherville CTAF: 122.800

KEUG App/Dep
Eugene, Oregon, United States

Feed Status: DOWN
Offline since: 2019-03-29 08:26:04 UTC

KEUG 051854Z VRB05KT 10SM BKN022 21/14 A2999 RMK AO2 SLP154 T02110139

KEUG Airport Info (Airnav.com)

Cascade Approach/Departure: 119.600
Cascade Approach/Departure: 120.250

KEUG App/Dep 119.6 (Archives)
Eugene, Oregon, United States

Feed Status: UP
Listen in your browser - HTML5 player(in browser, HTML5)
Click here to listen with your own player(launches your MP3 player)

KEUG 051854Z VRB05KT 10SM BKN022 21/14 A2999 RMK AO2 SLP154 T02110139

KEUG Airport Info (Airnav.com)

KEUG Flight Activity (Flightaware)

Listeners: 0 out of 1343 total

Cascade Approach/Departure: 119.600

KEUG App/Dep 120.25 (Archives)
Eugene, Oregon, United States

Feed Status: UP
Listen in your browser - HTML5 player(in browser, HTML5)
Click here to listen with your own player(launches your MP3 player)

KEUG 051854Z VRB05KT 10SM BKN022 21/14 A2999 RMK AO2 SLP154 T02110139

KEUG Airport Info (Airnav.com)

KEUG Flight Activity (Flightaware)

Listeners: 0 out of 1343 total

Cascade Approach/Departure: 120.250

KEUG ATIS (Archives)
Eugene, Oregon, United States

Feed Status: UP
Listen in your browser - HTML5 player(in browser, HTML5)
Click here to listen with your own player(launches your MP3 player)

KEUG 051854Z VRB05KT 10SM BKN022 21/14 A2999 RMK AO2 SLP154 T02110139

KEUG Airport Info (Airnav.com)

KEUG Flight Activity (Flightaware)

Listeners: 0 out of 1343 total

Eugene ATIS: 125.225

KEUG Emergency/Guard (Archives)
Eugene, Oregon, United States

Feed Status: UP
Listen in your browser - HTML5 player(in browser, HTML5)
Click here to listen with your own player(launches your MP3 player)

KEUG 051854Z VRB05KT 10SM BKN022 21/14 A2999 RMK AO2 SLP154 T02110139

KEUG Airport Info (Airnav.com)

KEUG Flight Activity (Flightaware)

Listeners: 0 out of 1343 total

Emergency/Guard: 121.500

KEUG Ground (Archives)
Eugene, Oregon, United States

Feed Status: UP
Listen in your browser - HTML5 player(in browser, HTML5)
Click here to listen with your own player(launches your MP3 player)

KEUG 051854Z VRB05KT 10SM BKN022 21/14 A2999 RMK AO2 SLP154 T02110139

KEUG Airport Info (Airnav.com)

KEUG Flight Activity (Flightaware)

Listeners: 0 out of 1343 total

Eugene Ground: 121.700

KEUG Ground/Tower
Eugene, Oregon, United States

Feed Status: DOWN
Offline since: 2019-03-29 09:35:03 UTC

KEUG 051854Z VRB05KT 10SM BKN022 21/14 A2999 RMK AO2 SLP154 T02110139

KEUG Airport Info (Airnav.com)

Eugene Ground: 121.700
Eugene Tower (Rwy 16L/34R): 124.150
Eugene Tower (Rwy 16R/34L): 118.900

KEUG Tower (Both)
Eugene, Oregon, United States

Feed Status: DOWN
Offline since: 2019-03-29 08:26:04 UTC

KEUG 051854Z VRB05KT 10SM BKN022 21/14 A2999 RMK AO2 SLP154 T02110139

KEUG Airport Info (Airnav.com)

Eugene Tower (Rwy 16L/34R): 124.150
Eugene Tower (Rwy 16R/34L): 118.900

KEUG Tower (Rwy 16L/34R) (Archives)
Eugene, Oregon, United States

Feed Status: UP
Listen in your browser - HTML5 player(in browser, HTML5)
Click here to listen with your own player(launches your MP3 player)

KEUG 051854Z VRB05KT 10SM BKN022 21/14 A2999 RMK AO2 SLP154 T02110139

KEUG Airport Info (Airnav.com)

KEUG Flight Activity (Flightaware)

Listeners: 0 out of 1343 total

Eugene Tower (Rwy 16L/34R): 124.150

KEUG Tower (Rwy 16R/34L) (Archives)
Eugene, Oregon, United States

Feed Status: UP
Listen in your browser - HTML5 player(in browser, HTML5)
Click here to listen with your own player(launches your MP3 player)

KEUG 051854Z VRB05KT 10SM BKN022 21/14 A2999 RMK AO2 SLP154 T02110139

KEUG Airport Info (Airnav.com)

KEUG Flight Activity (Flightaware)

Listeners: 0 out of 1343 total

Eugene Tower (Rwy 16R/34L): 118.900

KMAN/KEUL CTAF (Archives)
Nampa, Idaho, United States

Feed Status: UP
Listen in your browser - HTML5 player(in browser, HTML5)
Click here to listen with your own player(launches your MP3 player)

KMAN 051855Z AUTO 17005KT 10SM CLR 31/08 A2985 RMK A01

KMAN Airport Info (Airnav.com)

KMAN Flight Activity (Flightaware)

Listeners: 0 out of 1343 total

Nampa/Caldwell CTAF/UNICOM: 122.700

KEVB ATIS (Archives)
New Smyrna Beach, Florida, United States

Feed Status: UP
Listen in your browser - HTML5 player(in browser, HTML5)
Click here to listen with your own player(launches your MP3 player)

KEVB 051847Z 10SM SCT015 RMK AWOS OTS

KEVB Airport Info (Airnav.com)

KEVB Flight Activity (Flightaware)

Listeners: 0 out of 1343 total

New Smyrna ATIS: 124.625

KEVB Gnd/Twr (Archives)
New Smyrna Beach, Florida, United States

Feed Status: UP
Listen in your browser - HTML5 player(in browser, HTML5)
Click here to listen with your own player(launches your MP3 player)

KEVB 051847Z 10SM SCT015 RMK AWOS OTS

KEVB Airport Info (Airnav.com)

KEVB Flight Activity (Flightaware)

Listeners: 0 out of 1343 total

New Smyrna Ground: 121.325
New Smyrna Tower: 119.675

KFAR Tower (Archives)
Fargo, North Dakota, United States

Feed Status: UP
Listen in your browser - HTML5 player(in browser, HTML5)
Click here to listen with your own player(launches your MP3 player)

KFAR 051853Z 17009KT 10SM SCT032 SCT039 BKN048 24/17 A2996 RMK AO2 SLP145 T02390167

KFAR Airport Info (Airnav.com)

KFAR Flight Activity (Flightaware)

Listeners: 1 out of 1343 total

Fargo Tower: 133.800

KFBG/KPOB Gnd/Twr (Archives)
Fort Bragg, North Carolina, United States

Feed Status: UP
Listen in your browser - HTML5 player(in browser, HTML5)
Click here to listen with your own player(launches your MP3 player)

KFAY 051853Z AUTO 14003KT 10SM CLR 29/22 A3004 RMK AO2 SLP166 T02940222

KFAY Airport Info (Airnav.com)

KFAY Flight Activity (Flightaware)

Listeners: 0 out of 1343 total

Pope Ground: 124.550
Pope Tower: 135.025
Simmons Base Ops: 142.350
Simmons Ground: 121.900
Simmons PAR Radar: 124.200
Simmons Radar: 120.800
Simmons Tower: 125.900

KFCM Tower (Archives)
Minneapolis, Minnesota, United States

Feed Status: UP
Listen in your browser - HTML5 player(in browser, HTML5)
Click here to listen with your own player(launches your MP3 player)

KFCM 051853Z 20008KT 10SM FEW045 24/14 A3004 RMK AO2 SLP169 T02440139

KFCM Airport Info (Airnav.com)

KFCM Flight Activity (Flightaware)

Listeners: 1 out of 1343 total

Flying Cloud Tower: 119.150

KFDK ATIS (Archives)
Frederick, Maryland, United States

Feed Status: UP
Listen in your browser - HTML5 player(in browser, HTML5)
Click here to listen with your own player(launches your MP3 player)

KFDK 051747Z 34003KT 10SM SCT050 29/16 A3008

KFDK Airport Info (Airnav.com)

KFDK Flight Activity (Flightaware)

Listeners: 0 out of 1343 total

Frederick ATIS: 124.875

KFDK Del/Gnd/Twr/CTAF (Archives)
Frederick, Maryland, United States

Feed Status: UP
Listen in your browser - HTML5 player(in browser, HTML5)
Click here to listen with your own player(launches your MP3 player)

KFDK 051747Z 34003KT 10SM SCT050 29/16 A3008

KFDK Airport Info (Airnav.com)

KFDK Flight Activity (Flightaware)

Listeners: 4 out of 1343 total

Clearance Delivery (Potomac Approach): 126.900
Frederick Ground: 121.975
Frederick Tower/CTAF: 132.400

KFFC CTAF
Atlanta, Georgia, United States

Feed Status: DOWN
Offline since: 2020-08-05 11:45:39 UTC

KCCO 051835Z AUTO 13007KT 10SM SCT049 BKN055 BKN100 32/21 A3003 RMK AO2 T03160210

KCCO Airport Info (Airnav.com)

Falcon CTAF: 123.050

KFFZ ATIS (Archives)
Mesa, Arizona, United States

Feed Status: UP
Listen in your browser - HTML5 player(in browser, HTML5)
Click here to listen with your own player(launches your MP3 player)

KFFZ Airport Info (Airnav.com)

KFFZ Flight Activity (Flightaware)

Listeners: 0 out of 1343 total

Falcon ATIS: 118.250

KFFZ Ground (Archives)
Mesa, Arizona, United States

Feed Status: UP
Listen in your browser - HTML5 player(in browser, HTML5)
Click here to listen with your own player(launches your MP3 player)

KFFZ Airport Info (Airnav.com)

KFFZ Flight Activity (Flightaware)

Listeners: 0 out of 1343 total

Falcon Ground: 121.300

KFFZ Twr #1 (Archives)
Mesa, Arizona, United States

Feed Status: UP
Listen in your browser - HTML5 player(in browser, HTML5)
Click here to listen with your own player(launches your MP3 player)

KFFZ Airport Info (Airnav.com)

KFFZ Flight Activity (Flightaware)

Listeners: 0 out of 1343 total

Falcon Tower (North, 4L/22R): 119.700
Falcon Tower (South)/CTAF: 124.600

KFFZ Twr #2 (Archives)
Mesa, Arizona, United States

Feed Status: UP
Listen in your browser - HTML5 player(in browser, HTML5)
Click here to listen with your own player(launches your MP3 player)

KFFZ Airport Info (Airnav.com)

KFFZ Flight Activity (Flightaware)

Listeners: 1 out of 1343 total

Falcon Tower (North, 4L/22R): 119.700
Falcon Tower (South)/CTAF: 124.600

KFFZ Twr (North) (Archives)
Mesa, Arizona, United States

Feed Status: UP
Listen in your browser - HTML5 player(in browser, HTML5)
Click here to listen with your own player(launches your MP3 player)

KFFZ Airport Info (Airnav.com)

KFFZ Flight Activity (Flightaware)

Listeners: 0 out of 1343 total

Falcon Tower (North, 4L/22R): 119.700

KFFZ Twr (South)/CTAF (Archives)
Mesa, Arizona, United States

Feed Status: UP
Listen in your browser - HTML5 player(in browser, HTML5)
Click here to listen with your own player(launches your MP3 player)

KFFZ Airport Info (Airnav.com)

KFFZ Flight Activity (Flightaware)

Listeners: 0 out of 1343 total

Falcon Tower (South)/CTAF: 124.600

KFHR CTAF (Archives)
Friday Harbor, Washington, United States

Feed Status: UP
Listen in your browser - HTML5 player(in browser, HTML5)
Click here to listen with your own player(launches your MP3 player)

KFHR 051853Z AUTO 21007KT 7SM CLR 19/13 A2995 RMK AO2 SLP141 T01940128

KFHR Airport Info (Airnav.com)

KFHR Flight Activity (Flightaware)

Listeners: 0 out of 1343 total

KFHR/San Juan Islands CTAF: 128.250

KFHU Gnd/Twr/Radar (Archives)
Fort Huachuca/Sierra Vista, Arizona, United States

Feed Status: UP
Listen in your browser - HTML5 player(in browser, HTML5)
Click here to listen with your own player(launches your MP3 player)

KFHU 051758Z AUTO 04003KT 10SM CLR 32/07 A3017 RMK AO2 SLP132 T03200066 10329 20208 50001

KFHU Airport Info (Airnav.com)

KFHU Flight Activity (Flightaware)

Listeners: 1 out of 1343 total

Libby AAF GCA Radar: 127.050
Libby AAF GCA Radar: 254.350
Libby Ground: 121.700
Libby Ground: 268.700
Libby Tower: 124.950
Libby Tower: 284.750

KFIT CTAF (Archives)
Fitchburg, Massachusetts, United States

Feed Status: UP
Listen in your browser - HTML5 player(in browser, HTML5)
Click here to listen with your own player(launches your MP3 player)

KFIT 051852Z AUTO 25014G17KT 10SM CLR 31/16 A2996 RMK AO2 SLP145 T03110161

KFIT Airport Info (Airnav.com)

KFIT Flight Activity (Flightaware)

Listeners: 0 out of 1343 total

Fitchburg CTAF/UNICOM: 122.700

KFIT CTAF/FSS RCO (Archives)
Fitchburg, Massachusetts, United States

Feed Status: UP
Listen in your browser - HTML5 player(in browser, HTML5)
Click here to listen with your own player(launches your MP3 player)

KFIT 051852Z AUTO 25014G17KT 10SM CLR 31/16 A2996 RMK AO2 SLP145 T03110161

KFIT Airport Info (Airnav.com)

KFIT Flight Activity (Flightaware)

Listeners: 0 out of 1343 total

Bridgeport Radio (FSS via RCO): 119.025
Emergency/Guard: 121.500
Fitchburg CTAF/UNICOM: 122.700

MA/NH/RI/CT Area CTAF (Archives)
Fitchburg, Massachusetts, United States

Feed Status: UP
Listen in your browser - HTML5 player(in browser, HTML5)
Click here to listen with your own player(launches your MP3 player)

KBOS 051854Z 24010KT 10SM BKN065 33/16 A2993 RMK AO2 SLP136 T03280156

KBOS Airport Info (Airnav.com)

KBOS Flight Activity (Flightaware)

Listeners: 0 out of 1343 total

Air-to-Air: 122.750
Bridgeport Flight Service: 122.200
CTAF: 122.700
CTAF: 122.800
CTAF: 122.900
CTAF: 123.000
Emergency/Guard: 121.500

MA/NH/RI/CT Area CTAF (Archives)
Fitchburg, Massachusetts, United States

Feed Status: UP
Listen in your browser - HTML5 player(in browser, HTML5)
Click here to listen with your own player(launches your MP3 player)

KBOS 051854Z 24010KT 10SM BKN065 33/16 A2993 RMK AO2 SLP136 T03280156

KBOS Airport Info (Airnav.com)

KBOS Flight Activity (Flightaware)

Listeners: 0 out of 1343 total

Air-to-Air: 122.750
Bridgeport Flight Service: 122.200
CTAF: 122.700
CTAF: 122.800
CTAF: 122.900
CTAF: 123.000
Emergency/Guard: 121.500

MA/NH/RI/CT Area CTAF (Archives)
Fitchburg, Massachusetts, United States

Feed Status: UP
Listen in your browser - HTML5 player(in browser, HTML5)
Click here to listen with your own player(launches your MP3 player)

KBOS 051854Z 24010KT 10SM BKN065 33/16 A2993 RMK AO2 SLP136 T03280156

KBOS Airport Info (Airnav.com)

KBOS Flight Activity (Flightaware)

Listeners: 0 out of 1343 total

Air-to-Air: 122.750
Bridgeport Flight Service: 122.200
CTAF: 122.700
CTAF: 122.800
CTAF: 122.900
CTAF: 123.000
Emergency/Guard: 121.500

KFKA CTAF (Archives)
Preston, Minnesota, United States

Feed Status: UP
Listen in your browser - HTML5 player(in browser, HTML5)
Click here to listen with your own player(launches your MP3 player)

KFKA 051855Z AUTO 25007KT 10SM SCT055 22/09 A3011 RMK AO2 T02230090

KFKA Airport Info (Airnav.com)

KFKA Flight Activity (Flightaware)

Listeners: 0 out of 1343 total

Preston CTAF: 122.900

KFLG Ground/Tower (Archives)
Flagstaff, Arizona, United States

Feed Status: UP
Listen in your browser - HTML5 player(in browser, HTML5)
Click here to listen with your own player(launches your MP3 player)

KFLG 051857Z 19010G24KT 10SM CLR 26/03 A3028 RMK AO2 PK WND 22033/1824 SLP141 T02560033

KFLG Airport Info (Airnav.com)

KFLG Flight Activity (Flightaware)

Listeners: 1 out of 1343 total

Flagstaff Ground: 121.900
Flagstaff Tower: 134.550

KFLO App/Dep (Archives)
Florence, South Carolina, United States

Feed Status: UP
Listen in your browser - HTML5 player(in browser, HTML5)
Click here to listen with your own player(launches your MP3 player)

KFLO 051853Z 15004KT 10SM CLR 29/24 A3003 RMK AO2 SLP167 T02890239

KFLO Airport Info (Airnav.com)

KFLO Flight Activity (Flightaware)

Listeners: 0 out of 1343 total

Florence Approach: 135.250
Florence Approach: 118.600

KFLO ATIS (Archives)
Florence, South Carolina, United States

Feed Status: UP
Listen in your browser - HTML5 player(in browser, HTML5)
Click here to listen with your own player(launches your MP3 player)

KFLO 051853Z 15004KT 10SM CLR 29/24 A3003 RMK AO2 SLP167 T02890239

KFLO Airport Info (Airnav.com)

KFLO Flight Activity (Flightaware)

Listeners: 0 out of 1343 total

Florence ATIS: 123.625

KFLO Gnd/Twr/App
Florence, South Carolina, United States

Feed Status: DOWN
Offline since: 2020-08-05 03:20:05 UTC

KFLO 051853Z 15004KT 10SM CLR 29/24 A3003 RMK AO2 SLP167 T02890239

KFLO Airport Info (Airnav.com)

Florence Approach: 118.600
Florence Approach: 135.250
Florence Ground: 121.900
Florence Tower: 125.100

KFLO Ground (Archives)
Florence, South Carolina, United States

Feed Status: UP
Listen in your browser - HTML5 player(in browser, HTML5)
Click here to listen with your own player(launches your MP3 player)

KFLO 051853Z 15004KT 10SM CLR 29/24 A3003 RMK AO2 SLP167 T02890239

KFLO Airport Info (Airnav.com)

KFLO Flight Activity (Flightaware)

Listeners: 0 out of 1343 total

Florence Ground: 121.900

KFLO Tower (Archives)
Florence, South Carolina, United States

Feed Status: UP
Listen in your browser - HTML5 player(in browser, HTML5)
Click here to listen with your own player(launches your MP3 player)

KFLO 051853Z 15004KT 10SM CLR 29/24 A3003 RMK AO2 SLP167 T02890239

KFLO Airport Info (Airnav.com)

KFLO Flight Activity (Flightaware)

Listeners: 0 out of 1343 total

Florence Tower: 125.100

KHYA/KFMH Twr/Cape App
Falmouth, Massachusetts, United States

Feed Status: DOWN
Offline since: 2020-02-05 09:52:22 UTC

KHYA Airport Info (Airnav.com)

Cape Approach: 118.200
Cape Approach: 120.125
Cape Approach: 284.600
Coast Guard Tower: 128.425
Coast Guard Tower: 291.100
Hyannis Tower: 119.500
Hyannis Tower: 257.800

KFMY ATIS (Archives)
Fort Myers, Florida, United States

Feed Status: UP
Listen in your browser - HTML5 player(in browser, HTML5)
Click here to listen with your own player(launches your MP3 player)

KFMY 051853Z 23006KT 10SM CLR 33/24 A2998 RMK AO2 SLP154 T03280244

KFMY Airport Info (Airnav.com)

KFMY Flight Activity (Flightaware)

Listeners: 0 out of 1343 total

Page ATIS: 123.725

KFMY Del/Gnd/Twr (Archives)
Fort Myers, Florida, United States

Feed Status: UP
Listen in your browser - HTML5 player(in browser, HTML5)
Click here to listen with your own player(launches your MP3 player)

KFMY 051853Z 23006KT 10SM CLR 33/24 A2998 RMK AO2 SLP154 T03280244

KFMY Airport Info (Airnav.com)

KFMY Flight Activity (Flightaware)

Listeners: 1 out of 1343 total

Page Clearance/Ground: 121.700
Page Tower: 119.000

KFNL Ground (Archives)
Fort Collins/Loveland, Colorado, United States

Feed Status: UP
Listen in your browser - HTML5 player(in browser, HTML5)
Click here to listen with your own player(launches your MP3 player)

KFNL 051856Z VRB04KT 7SM CLR 28/13 A3009 RMK AO2 SLP122 T02780133 PNO $

KFNL Airport Info (Airnav.com)

KFNL Flight Activity (Flightaware)

Listeners: 0 out of 1343 total

Fort Collins Ground: 121.650

KFNL Tower/CTAF (Archives)
Fort Collins/Loveland, Colorado, United States

Feed Status: UP
Listen in your browser - HTML5 player(in browser, HTML5)
Click here to listen with your own player(launches your MP3 player)

KFNL 051856Z VRB04KT 7SM CLR 28/13 A3009 RMK AO2 SLP122 T02780133 PNO $

KFNL Airport Info (Airnav.com)

KFNL Flight Activity (Flightaware)

Listeners: 1 out of 1343 total

Fort Collins Tower/CTAF: 118.400

KFNL UNICOM (Archives)
Fort Collins/Loveland, Colorado, United States

Feed Status: UP
Listen in your browser - HTML5 player(in browser, HTML5)
Click here to listen with your own player(launches your MP3 player)

KFNL 051856Z VRB04KT 7SM CLR 28/13 A3009 RMK AO2 SLP122 T02780133 PNO $

KFNL Airport Info (Airnav.com)

KFNL Flight Activity (Flightaware)

Listeners: 0 out of 1343 total

Fort Collins UNICOM: 122.950

KFPR ATIS #1 (Archives)
Fort Pierce, Florida, United States

Feed Status: UP
Listen in your browser - HTML5 player(in browser, HTML5)
Click here to listen with your own player(launches your MP3 player)

KFPR 051853Z 06006KT 10SM -RA FEW070 FEW085 29/27 A3001 RMK AO2 RAE04B16 SLP162 P0008 T02940267 $

KFPR Airport Info (Airnav.com)

KFPR Flight Activity (Flightaware)

Listeners: 0 out of 1343 total

Fort Pierce ATIS: 134.825

KFPR Gnd/Twr #1 (Archives)
Fort Pierce, Florida, United States

Feed Status: UP
Listen in your browser - HTML5 player(in browser, HTML5)
Click here to listen with your own player(launches your MP3 player)

KFPR 051853Z 06006KT 10SM -RA FEW070 FEW085 29/27 A3001 RMK AO2 RAE04B16 SLP162 P0008 T02940267 $

KFPR Airport Info (Airnav.com)

KFPR Flight Activity (Flightaware)

Listeners: 1 out of 1343 total

Ft Pierce Ground: 119.550
Ft Pierce Tower: 128.200

KFPR Ground (Archives)
Fort Pierce, Florida, United States

Feed Status: UP
Listen in your browser - HTML5 player(in browser, HTML5)
Click here to listen with your own player(launches your MP3 player)

KFPR 051853Z 06006KT 10SM -RA FEW070 FEW085 29/27 A3001 RMK AO2 RAE04B16 SLP162 P0008 T02940267 $

KFPR Airport Info (Airnav.com)

KFPR Flight Activity (Flightaware)

Listeners: 0 out of 1343 total

Ft Pierce Ground: 119.550

KFPR Tower (Archives)
Fort Pierce, Florida, United States

Feed Status: UP
Listen in your browser - HTML5 player(in browser, HTML5)
Click here to listen with your own player(launches your MP3 player)

KFPR 051853Z 06006KT 10SM -RA FEW070 FEW085 29/27 A3001 RMK AO2 RAE04B16 SLP162 P0008 T02940267 $

KFPR Airport Info (Airnav.com)

KFPR Flight Activity (Flightaware)

Listeners: 1 out of 1343 total

Ft Pierce Tower: 128.200

Palm Beach App/Dep (Archives)
Fort Pierce, Florida, United States

Feed Status: UP
Listen in your browser - HTML5 player(in browser, HTML5)
Click here to listen with your own player(launches your MP3 player)

KFPR 051853Z 06006KT 10SM -RA FEW070 FEW085 29/27 A3001 RMK AO2 RAE04B16 SLP162 P0008 T02940267 $

KFPR Airport Info (Airnav.com)

KFPR Flight Activity (Flightaware)

Listeners: 1 out of 1343 total

Palm Beach Approach/Departure: 123.625

KFRG ATIS
Farmingdale, New York, United States

Feed Status: DOWN
Offline since: 2020-08-04 18:11:38 UTC

KFRG 051853Z AUTO 20014KT 10SM CLR 32/18 A3001 RMK AO2 SLP161 T03170183 PWINO

KFRG Airport Info (Airnav.com)

Republic ATIS: 126.650

KFRG Delivery/Ground
Farmingdale, New York, United States

Feed Status: DOWN
Offline since: 2020-08-04 18:11:05 UTC

KFRG 051853Z AUTO 20014KT 10SM CLR 32/18 A3001 RMK AO2 SLP161 T03170183 PWINO

KFRG Airport Info (Airnav.com)

Emergency/Guard: 121.500
Republic Clearance Delivery: 128.250
Republic Ground: 121.600

KFRG Tower
Farmingdale, New York, United States

Feed Status: DOWN
Offline since: 2020-08-04 18:11:05 UTC

KFRG 051853Z AUTO 20014KT 10SM CLR 32/18 A3001 RMK AO2 SLP161 T03170183 PWINO

KFRG Airport Info (Airnav.com)

Republic Tower: 118.800

KFRM CTAF (Air Race Classic)
Fairmont, Minnesota, United States

Feed Status: DOWN
Offline since: 2019-06-25 18:58:03 UTC

Fairmont CTAF: 122.800

KFSD Approach/Departure
Sioux Falls, South Dakota, United States

Feed Status: DOWN
Offline since: 2019-11-11 22:35:39 UTC

KFSD 051856Z 17012KT 10SM BKN026 OVC031 22/16 A2998 RMK AO2 SLP148 T02170156

KFSD Airport Info (Airnav.com)

Sioux Falls Approach/Departure: 125.800

KFSD Twr/App/Dep/ZMP (Archives)
Sioux Falls, South Dakota, United States

Feed Status: UP
Listen in your browser - HTML5 player(in browser, HTML5)
Click here to listen with your own player(launches your MP3 player)

KFSD 051856Z 17012KT 10SM BKN026 OVC031 22/16 A2998 RMK AO2 SLP148 T02170156

KFSD Airport Info (Airnav.com)

KFSD Flight Activity (Flightaware)

Listeners: 0 out of 1343 total

Minneapolis Center (Sector 33 PIR Low): 132.050
Sioux Falls Approach/Departure: 125.800
Sioux Falls Tower: 118.300

KFTG/KEIK/KBDU/KLMO/Misc (Archives)
Denver, Colorado, United States

Feed Status: UP
Listen in your browser - HTML5 player(in browser, HTML5)
Click here to listen with your own player(launches your MP3 player)

KDEN 051853Z 13013G21KT 10SM FEW080 FEW120 SCT220 33/10 A3007 RMK AO2 SLP090 T03280100

KDEN Airport Info (Airnav.com)

KDEN Flight Activity (Flightaware)

Listeners: 0 out of 1343 total

Air-to-Air Fixed Wing: 122.750
Air-to-Air Informal: 123.450
Boulder CTAF: 122.725
Erie CTAF: 123.000
Front Range Tower: 120.200
KBKF Tower: 121.000
Longmont CTAF: 122.975
MULTICOM: 122.900
UNICOM: 122.950

KFTW Del/Gnd/Twr (Archives)
Fort Worth, Texas, United States

Feed Status: UP
Listen in your browser - HTML5 player(in browser, HTML5)
Click here to listen with your own player(launches your MP3 player)

KFTW 051853Z 09005KT 10SM CLR 31/20 A2999 RMK AO2 SLP145 T03110200

KFTW Airport Info (Airnav.com)

KFTW Flight Activity (Flightaware)

Listeners: 3 out of 1343 total

Meacham Clearance Delivery: 124.650
Meacham Ground: 121.900
Meacham Tower: 118.300

KFTW Del/Ground (Archives)
Fort Worth, Texas, United States

Feed Status: UP
Listen in your browser - HTML5 player(in browser, HTML5)
Click here to listen with your own player(launches your MP3 player)

KFTW 051853Z 09005KT 10SM CLR 31/20 A2999 RMK AO2 SLP145 T03110200

KFTW Airport Info (Airnav.com)

KFTW Flight Activity (Flightaware)

Listeners: 0 out of 1343 total

Meacham Clearance Delivery: 124.650
Meacham Ground: 121.900

KFTW Tower (Archives)
Fort Worth, Texas, United States

Feed Status: UP
Listen in your browser - HTML5 player(in browser, HTML5)
Click here to listen with your own player(launches your MP3 player)

KFTW 051853Z 09005KT 10SM CLR 31/20 A2999 RMK AO2 SLP145 T03110200

KFTW Airport Info (Airnav.com)

KFTW Flight Activity (Flightaware)

Listeners: 0 out of 1343 total

Meacham Tower: 118.300

Regional App (Meacham North) (Archives)
Fort Worth, Texas, United States

Feed Status: UP
Listen in your browser - HTML5 player(in browser, HTML5)
Click here to listen with your own player(launches your MP3 player)

KFTW 051853Z 09005KT 10SM CLR 31/20 A2999 RMK AO2 SLP145 T03110200

KFTW Airport Info (Airnav.com)

KFTW Flight Activity (Flightaware)

Listeners: 0 out of 1343 total

Regional Approach (Meacham North): 118.100

Regional App (Meacham South) (Archives)
Fort Worth, Texas, United States

Feed Status: UP
Listen in your browser - HTML5 player(in browser, HTML5)
Click here to listen with your own player(launches your MP3 player)

KDFW 051853Z 13007KT 10SM FEW100 SCT190 BKN250 30/22 A2999 RMK AO2 SLP147 T03000217

KDFW Airport Info (Airnav.com)

KDFW Flight Activity (Flightaware)

Listeners: 0 out of 1343 total

Regional Approach (Meacham South): 135.975

Regional Approach (Meacham North/South) (Archives)
Fort Worth, Texas, United States

Feed Status: UP
Listen in your browser - HTML5 player(in browser, HTML5)
Click here to listen with your own player(launches your MP3 player)

KFTW 051853Z 09005KT 10SM CLR 31/20 A2999 RMK AO2 SLP145 T03110200

KFTW Airport Info (Airnav.com)

KFTW Flight Activity (Flightaware)

Listeners: 0 out of 1343 total

Regional Approach (Meacham North): 118.100
Regional Approach (Meacham South): 135.975

Atlanta Approach (N. Sat) (Archives)
Atlanta, Georgia, United States

Feed Status: UP
Listen in your browser - HTML5 player(in browser, HTML5)
Click here to listen with your own player(launches your MP3 player)

KRYY 051850Z 18006KT 10SM SCT050 BKN110 30/20 A3003 RMK AO2 SLP890 T03000200 PNO $

KRYY Airport Info (Airnav.com)

KRYY Flight Activity (Flightaware)

Listeners: 1 out of 1343 total

Atlanta Approach (North Satellite): 121.000

KFTY Ground/Tower (Archives)
Atlanta, Georgia, United States

Feed Status: UP
Listen in your browser - HTML5 player(in browser, HTML5)
Click here to listen with your own player(launches your MP3 player)

KFTY 051853Z 32005KT 10SM VCTS FEW060 BKN080 BKN110 31/20 A3001 RMK AO2 LTG DSNT SE AND S SLP150 T03060200

KFTY Airport Info (Airnav.com)

KFTY Flight Activity (Flightaware)

Listeners: 0 out of 1343 total

County Ground: 121.700
County Tower: 118.450

KFWS Ground/Tower (Archives)
Fort Worth, Texas, United States

Feed Status: UP
Listen in your browser - HTML5 player(in browser, HTML5)
Click here to listen with your own player(launches your MP3 player)

KFWS 051850Z 12005KT 10SM CLR 32/21 A3001

KFWS Airport Info (Airnav.com)

KFWS Flight Activity (Flightaware)

Listeners: 0 out of 1343 total

Spinks Ground: 119.475
Spinks Tower/CTAF: 124.625

KFXE ATIS (Archives)
Fort Lauderdale, Florida, United States

Feed Status: UP
Listen in your browser - HTML5 player(in browser, HTML5)
Click here to listen with your own player(launches your MP3 player)

KFXE 051853Z 11008KT 10SM CLR 32/24 A2999 RMK AO2 SLP158 T03220244

KFXE Airport Info (Airnav.com)

KFXE Flight Activity (Flightaware)

Listeners: 0 out of 1343 total

Executive ATIS: 119.850

KFXE Ground (Archives)
Fort Lauderdale, Florida, United States

Feed Status: UP
Listen in your browser - HTML5 player(in browser, HTML5)
Click here to listen with your own player(launches your MP3 player)

KFXE 051853Z 11008KT 10SM CLR 32/24 A2999 RMK AO2 SLP158 T03220244

KFXE Airport Info (Airnav.com)

KFXE Flight Activity (Flightaware)

Listeners: 0 out of 1343 total

Executive Ground: 121.750

KFXE Practice Area (Archives)
Fort Lauderdale, Florida, United States

Feed Status: UP
Listen in your browser - HTML5 player(in browser, HTML5)
Click here to listen with your own player(launches your MP3 player)

KFXE 051853Z 11008KT 10SM CLR 32/24 A2999 RMK AO2 SLP158 T03220244

KFXE Airport Info (Airnav.com)

KFXE Flight Activity (Flightaware)

Listeners: 0 out of 1343 total

Coral Springs/Everglades Practice Area: 123.450

KFXE Tower #1 (Archives)
Fort Lauderdale, Florida, United States

Feed Status: UP
Listen in your browser - HTML5 player(in browser, HTML5)
Click here to listen with your own player(launches your MP3 player)

KFXE 051853Z 11008KT 10SM CLR 32/24 A2999 RMK AO2 SLP158 T03220244

KFXE Airport Info (Airnav.com)

KFXE Flight Activity (Flightaware)

Listeners: 1 out of 1343 total

Ft. Lauderdale Exec Tower: 120.900

KFYV Gnd/Twr/App/ZME (Archives)
Fayetteville, Arkansas, United States

Feed Status: UP
Listen in your browser - HTML5 player(in browser, HTML5)
Click here to listen with your own player(launches your MP3 player)

KFYV 051853Z 17004KT 10SM FEW035 SCT085 26/18 A3008 RMK AO2 SLP175 T02610178

KFYV Airport Info (Airnav.com)

KFYV Flight Activity (Flightaware)

Listeners: 0 out of 1343 total

Drake Ground: 121.800
Drake Tower: 128.000
Jonesboro Flight Service Station (FSS): 122.300
Memphis Center (High): 132.550
Memphis Center (High): 353.800
Razorback Approach: 121.000

KGAI CTAF/UNICOM (Archives)
Gaithersburg, Maryland, United States

Feed Status: UP
Listen in your browser - HTML5 player(in browser, HTML5)
Click here to listen with your own player(launches your MP3 player)

KGAI 051856Z AUTO 30007KT 10SM SCT050 28/18 A3008 RMK AO2 SLP195 T02830178

KGAI Airport Info (Airnav.com)

KGAI Flight Activity (Flightaware)

Listeners: 0 out of 1343 total

Gaithersburg CTAF: 123.075

KGBR/20N CTAF
Great Barrington, Massachusetts, United States

Feed Status: DOWN
Offline since: 2019-07-21 23:53:05 UTC

KGBR Airport Info (Airnav.com)

Great Barrington CTAF: 122.800

KGDM/KORE CTAF (Archives)
Gardner, Massachusetts, United States

Feed Status: UP
Listen in your browser - HTML5 player(in browser, HTML5)
Click here to listen with your own player(launches your MP3 player)

KGDM Airport Info (Airnav.com)

KGDM Flight Activity (Flightaware)

Listeners: 0 out of 1343 total

Gardner CTAF: 122.800

KGED ASOS (Archives)
Georgetown, Delaware, United States

Feed Status: UP
Listen in your browser - HTML5 player(in browser, HTML5)
Click here to listen with your own player(launches your MP3 player)

KGED 051854Z AUTO 26004KT 10SM FEW050 31/20 A3004 RMK AO2 SLP172 T03110200

KGED Airport Info (Airnav.com)

KGED Flight Activity (Flightaware)

Listeners: 0 out of 1343 total

Georgetown ASOS: 118.375

KGED Clearance Delivery (Archives)
Georgetown, Delaware, United States

Feed Status: UP
Listen in your browser - HTML5 player(in browser, HTML5)
Click here to listen with your own player(launches your MP3 player)

KGED 051854Z AUTO 26004KT 10SM FEW050 31/20 A3004 RMK AO2 SLP172 T03110200

KGED Airport Info (Airnav.com)

KGED Flight Activity (Flightaware)

Listeners: 0 out of 1343 total

Georgetown Clearance Delivery (Dover Approach): 125.550

KGED CTAF (Archives)
Georgetown, Delaware, United States

Feed Status: UP
Listen in your browser - HTML5 player(in browser, HTML5)
Click here to listen with your own player(launches your MP3 player)

KGED 051854Z AUTO 26004KT 10SM FEW050 31/20 A3004 RMK AO2 SLP172 T03110200

KGED Airport Info (Airnav.com)

KGED Flight Activity (Flightaware)

Listeners: 0 out of 1343 total

Georgetown CTAF: 123.000

KGFK Approach (Archives)
Grand Forks, North Dakota, United States

Feed Status: UP
Listen in your browser - HTML5 player(in browser, HTML5)
Click here to listen with your own player(launches your MP3 player)

KGFK 051853Z 16009G17KT 10SM BKN035 BKN060 24/16 A2995 RMK AO2 SLP140 T02440156

KGFK Airport Info (Airnav.com)

KGFK Flight Activity (Flightaware)

Listeners: 1 out of 1343 total

Grand Forks Approach: 118.100
Grand Forks Approach (VFR): 132.300

KGFK ATIS (Archives)
Grand Forks, North Dakota, United States

Feed Status: UP
Listen in your browser - HTML5 player(in browser, HTML5)
Click here to listen with your own player(launches your MP3 player)

KGFK 051853Z 16009G17KT 10SM BKN035 BKN060 24/16 A2995 RMK AO2 SLP140 T02440156

KGFK Airport Info (Airnav.com)

KGFK Flight Activity (Flightaware)

Listeners: 0 out of 1343 total

Grand Forks ATIS: 119.400

KGFK Ground (Archives)
Grand Forks, North Dakota, United States

Feed Status: UP
Listen in your browser - HTML5 player(in browser, HTML5)
Click here to listen with your own player(launches your MP3 player)

KGFK 051853Z 16009G17KT 10SM BKN035 BKN060 24/16 A2995 RMK AO2 SLP140 T02440156

KGFK Airport Info (Airnav.com)

KGFK Flight Activity (Flightaware)

Listeners: 0 out of 1343 total

Grand Forks Ground: 124.575

KGFK Tower 1 (118.4/IFR/VFR) (Archives)
Grand Forks, North Dakota, United States

Feed Status: UP
Listen in your browser - HTML5 player(in browser, HTML5)
Click here to listen with your own player(launches your MP3 player)

KGFK 051853Z 16009G17KT 10SM BKN035 BKN060 24/16 A2995 RMK AO2 SLP140 T02440156

KGFK Airport Info (Airnav.com)

KGFK Flight Activity (Flightaware)

Listeners: 0 out of 1343 total

Grand Forks Tower (IFR/VFR): 118.400

KGFK Tower 2 (120.55/VFR) (Archives)
Grand Forks, North Dakota, United States

Feed Status: UP
Listen in your browser - HTML5 player(in browser, HTML5)
Click here to listen with your own player(launches your MP3 player)

KGFK 051853Z 16009G17KT 10SM BKN035 BKN060 24/16 A2995 RMK AO2 SLP140 T02440156

KGFK Airport Info (Airnav.com)

KGFK Flight Activity (Flightaware)

Listeners: 0 out of 1343 total

Grand Forks Tower (VFR): 120.550

KGFL CTAF/App (Archives)
Glens Falls, New York, United States

Feed Status: UP
Listen in your browser - HTML5 player(in browser, HTML5)
Click here to listen with your own player(launches your MP3 player)

KGFL 051853Z AUTO 25007G17KT 10SM CLR 26/12 A2998 RMK AO2 SLP151 T02610122 TSNO $

KGFL Airport Info (Airnav.com)

KGFL Flight Activity (Flightaware)

Listeners: 0 out of 1343 total

Albany Approach: 118.050
Albany Approach: 132.825
Glens Falls Unicom: 123.000
Unicom (Granville, Schroon Lake, Argyle, Heber Air: 122.900
Unicom (Saratoga Co., Rutland, Ticonderoga, Round : 122.800

KGIF ASOS (Archives)
Winter Haven, Florida, United States

Feed Status: UP
Listen in your browser - HTML5 player(in browser, HTML5)
Click here to listen with your own player(launches your MP3 player)

KGIF 051853Z AUTO 10006KT 6SM TSRA SCT100 BKN120 26/23 A3004 RMK AO2 LTG DSNT N-E RAB00E16B30 TSE20B31 SLP171 P0003 T02560228

KGIF Airport Info (Airnav.com)

KGIF Flight Activity (Flightaware)

Listeners: out of 1343 total

Winter Haven ASOS: 133.675

KGIF CTAF/GCO/Guard (Archives)
Winter Haven, Florida, United States

Feed Status: UP
Listen in your browser - HTML5 player(in browser, HTML5)
Click here to listen with your own player(launches your MP3 player)

KGIF 051853Z AUTO 10006KT 6SM TSRA SCT100 BKN120 26/23 A3004 RMK AO2 LTG DSNT N-E RAB00E16B30 TSE20B31 SLP171 P0003 T02560228

KGIF Airport Info (Airnav.com)

KGIF Flight Activity (Flightaware)

Listeners: out of 1343 total

Emergency/Guard: 121.500
Winter Haven CTAF: 123.050
Winter Haven GCO (Clearance Delivery): 121.725

KGIF GCO/Guard (Archives)
Winter Haven, Florida, United States

Feed Status: UP
Listen in your browser - HTML5 player(in browser, HTML5)
Click here to listen with your own player(launches your MP3 player)

KGIF 051853Z AUTO 10006KT 6SM TSRA SCT100 BKN120 26/23 A3004 RMK AO2 LTG DSNT N-E RAB00E16B30 TSE20B31 SLP171 P0003 T02560228

KGIF Airport Info (Airnav.com)

KGIF Flight Activity (Flightaware)

Listeners: out of 1343 total

Emergency/Guard: 121.500
Winter Haven GCO (Clearance Delivery): 121.725

KGIF/F57 CTAF (Archives)
Winter Haven, Florida, United States

Feed Status: UP
Listen in your browser - HTML5 player(in browser, HTML5)
Click here to listen with your own player(launches your MP3 player)

KGIF 051853Z AUTO 10006KT 6SM TSRA SCT100 BKN120 26/23 A3004 RMK AO2 LTG DSNT N-E RAB00E16B30 TSE20B31 SLP171 P0003 T02560228

KGIF Airport Info (Airnav.com)

KGIF Flight Activity (Flightaware)

Listeners: out of 1343 total

Winter Haven CTAF: 123.050

KGJT Gnd/Twr/App/ZDV (Archives)
Grand Junction, Colorado, United States

Feed Status: UP
Listen in your browser - HTML5 player(in browser, HTML5)
Click here to listen with your own player(launches your MP3 player)

KGJT 051853Z 27009KT 10SM CLR 34/M02 A3003 RMK AO2 SLP082 T03391022

KGJT Airport Info (Airnav.com)

KGJT Flight Activity (Flightaware)

Listeners: 1 out of 1343 total

Denver Approach: 119.700
Denver Center (Sector 11 Grand Junction Low): 134.500
Grand Junction Ground: 121.700
Grand Junction Tower: 118.100

KGKY Ground/Tower (Archives)
Arlington, Texas, United States

Feed Status: UP
Listen in your browser - HTML5 player(in browser, HTML5)
Click here to listen with your own player(launches your MP3 player)

KGKY 051853Z 10009KT 10SM CLR 32/21 A3000 RMK AO2 SLP147 T03220206 $

KGKY Airport Info (Airnav.com)

KGKY Flight Activity (Flightaware)

Listeners: 0 out of 1343 total

Arlington Ground: 121.875
Arlington Tower: 128.625

KGMU ATIS (Archives)
Greenville, South Carolina, United States

Feed Status: UP
Listen in your browser - HTML5 player(in browser, HTML5)
Click here to listen with your own player(launches your MP3 player)

KGMU 051853Z 16006KT 10SM FEW050 33/21 A3004 RMK AO2 SLP161 T03280206

KGMU Airport Info (Airnav.com)

KGMU Flight Activity (Flightaware)

Listeners: 0 out of 1343 total

Greenville ATIS: 127.075

KGMU Ground (Archives)
Greenville, South Carolina, United States

Feed Status: UP
Listen in your browser - HTML5 player(in browser, HTML5)
Click here to listen with your own player(launches your MP3 player)

KGMU 051853Z 16006KT 10SM FEW050 33/21 A3004 RMK AO2 SLP161 T03280206

KGMU Airport Info (Airnav.com)

KGMU Flight Activity (Flightaware)

Listeners: 0 out of 1343 total

Greenville Ground: 121.250

KGMU Ground/Tower (Archives)
Greenville, South Carolina, United States

Feed Status: UP
Listen in your browser - HTML5 player(in browser, HTML5)
Click here to listen with your own player(launches your MP3 player)

KGMU 051853Z 16006KT 10SM FEW050 33/21 A3004 RMK AO2 SLP161 T03280206

KGMU Airport Info (Airnav.com)

KGMU Flight Activity (Flightaware)

Listeners: 3 out of 1343 total

Greenville Ground: 121.250
Greenville Tower: 119.900

KGMU Tower (Archives)
Greenville, South Carolina, United States

Feed Status: UP
Listen in your browser - HTML5 player(in browser, HTML5)
Click here to listen with your own player(launches your MP3 player)

KGMU 051853Z 16006KT 10SM FEW050 33/21 A3004 RMK AO2 SLP161 T03280206

KGMU Airport Info (Airnav.com)

KGMU Flight Activity (Flightaware)

Listeners: 0 out of 1343 total

Greenville Tower: 119.900

KGNV Ground/Tower (Archives)
Gainesville, Florida, United States

Feed Status: UP
Listen in your browser - HTML5 player(in browser, HTML5)
Click here to listen with your own player(launches your MP3 player)

KGNV 051853Z VRB03KT 10SM BKN044 BKN060 OVC100 32/24 A3001 RMK AO2 LTG DSNT N SLP160 T03170239

KGNV Airport Info (Airnav.com)

KGNV Flight Activity (Flightaware)

Listeners: 0 out of 1343 total

Gainesville Ground: 121.700
Gainesville Tower: 119.550

KGPT App/Dep (Archives)
Gulfport, Mississippi, United States

Feed Status: UP
Listen in your browser - HTML5 player(in browser, HTML5)
Click here to listen with your own player(launches your MP3 player)

KGPT 051853Z 27005KT 10SM FEW060 SCT085 34/18 A2998 RMK AO2 SLP150 T03390178

KGPT Airport Info (Airnav.com)

KGPT Flight Activity (Flightaware)

Listeners: 0 out of 1343 total

Gulfport Approach/Departure: 124.600
Gulfport Approach/Departure: 127.500

KGPT App/Dep #1 (Archives)
Gulfport, Mississippi, United States

Feed Status: UP
Listen in your browser - HTML5 player(in browser, HTML5)
Click here to listen with your own player(launches your MP3 player)

KGPT 051853Z 27005KT 10SM FEW060 SCT085 34/18 A2998 RMK AO2 SLP150 T03390178

KGPT Airport Info (Airnav.com)

KGPT Flight Activity (Flightaware)

Listeners: 0 out of 1343 total

Gulfport Approach/Departure: 124.600

KGPT App/Dep #2 (Archives)
Gulfport, Mississippi, United States

Feed Status: UP
Listen in your browser - HTML5 player(in browser, HTML5)
Click here to listen with your own player(launches your MP3 player)

KGPT 051853Z 27005KT 10SM FEW060 SCT085 34/18 A2998 RMK AO2 SLP150 T03390178

KGPT Airport Info (Airnav.com)

KGPT Flight Activity (Flightaware)

Listeners: 0 out of 1343 total

Gulfport Approach/Departure: 127.500

KGPT Approach (Final) (Archives)
Gulfport, Mississippi, United States

Feed Status: UP
Listen in your browser - HTML5 player(in browser, HTML5)
Click here to listen with your own player(launches your MP3 player)

KGPT 051853Z 27005KT 10SM FEW060 SCT085 34/18 A2998 RMK AO2 SLP150 T03390178

KGPT Airport Info (Airnav.com)

KGPT Flight Activity (Flightaware)

Listeners: 0 out of 1343 total

Gulfport Approach (Final): 126.750

KGPT ATIS (Archives)
Gulfport, Mississippi, United States

Feed Status: UP
Listen in your browser - HTML5 player(in browser, HTML5)
Click here to listen with your own player(launches your MP3 player)

KGPT 051853Z 27005KT 10SM FEW060 SCT085 34/18 A2998 RMK AO2 SLP150 T03390178

KGPT Airport Info (Airnav.com)

KGPT Flight Activity (Flightaware)

Listeners: 0 out of 1343 total

Gulfport ATIS: 119.450

KGPT Emergency/Guard (Archives)
Gulfport, Mississippi, United States

Feed Status: UP
Listen in your browser - HTML5 player(in browser, HTML5)
Click here to listen with your own player(launches your MP3 player)

KGPT 051853Z 27005KT 10SM FEW060 SCT085 34/18 A2998 RMK AO2 SLP150 T03390178

KGPT Airport Info (Airnav.com)

KGPT Flight Activity (Flightaware)

Listeners: 0 out of 1343 total

Emergency/Guard: 121.500

KGPT Gnd/Twr (Archives)
Gulfport, Mississippi, United States

Feed Status: UP
Listen in your browser - HTML5 player(in browser, HTML5)
Click here to listen with your own player(launches your MP3 player)

KGPT 051853Z 27005KT 10SM FEW060 SCT085 34/18 A2998 RMK AO2 SLP150 T03390178

KGPT Airport Info (Airnav.com)

KGPT Flight Activity (Flightaware)

Listeners: 0 out of 1343 total

Gulfport Ground: 120.400
Gulfport Tower: 123.700

KGPT Ground (Archives)
Gulfport, Mississippi, United States

Feed Status: UP
Listen in your browser - HTML5 player(in browser, HTML5)
Click here to listen with your own player(launches your MP3 player)

KGPT 051853Z 27005KT 10SM FEW060 SCT085 34/18 A2998 RMK AO2 SLP150 T03390178

KGPT Airport Info (Airnav.com)

KGPT Flight Activity (Flightaware)

Listeners: 0 out of 1343 total

Gulfport Ground: 120.400

KGPT Tower (Archives)
Gulfport, Mississippi, United States

Feed Status: UP
Listen in your browser - HTML5 player(in browser, HTML5)
Click here to listen with your own player(launches your MP3 player)

KGPT 051853Z 27005KT 10SM FEW060 SCT085 34/18 A2998 RMK AO2 SLP150 T03390178

KGPT Airport Info (Airnav.com)

KGPT Flight Activity (Flightaware)

Listeners: 0 out of 1343 total

Gulfport Tower: 123.700

KGQQ CTAF/Del/App (Archives)
Galion, Ohio, United States

Feed Status: UP
Listen in your browser - HTML5 player(in browser, HTML5)
Click here to listen with your own player(launches your MP3 player)

KGQQ Airport Info (Airnav.com)

KGQQ Flight Activity (Flightaware)

Listeners: 0 out of 1343 total

Galion Clearance Delivery: 126.800
Galion CTAF/UNICOM: 122.800
Mansfield Approach: 124.200

KGRK Twr/App
Fort Hood (Killeen), Texas, United States

Feed Status: DOWN
Offline since: 2019-11-24 15:09:39 UTC

KGRK 051858Z AUTO 15008KT 10SM FEW350 37/14 A2998 RMK AO2 SLP139 T03660140

KGRK Airport Info (Airnav.com)

Gray Tower: 120.750

KGTU Gnd/Twr (Archives)
Georgetown, Texas, United States

Feed Status: UP
Listen in your browser - HTML5 player(in browser, HTML5)
Click here to listen with your own player(launches your MP3 player)

KGTU 051856Z 18006G17KT 10SM CLR 36/17 A3001 RMK AO2 SLP155 T03560172

KGTU Airport Info (Airnav.com)

KGTU Flight Activity (Flightaware)

Listeners: 1 out of 1343 total

Georgetown Ground: 119.125
Georgetown Tower: 120.225

KGUS Del/Gnd/Twr/App
Peru, Indiana, United States

Feed Status: DOWN
Offline since: 2020-05-03 16:05:22 UTC

KGUS 051856Z AUTO 30004KT 10SM SCT060 22/12 A3014 RMK AO2 SLP208 T02170117 $

KGUS Airport Info (Airnav.com)

Grissom Approach: 121.050
Grissom Approach: 379.300
Grissom Approach (Basic Radar Service): 123.450
Grissom Approach (Basic Radar Service): 126.320
Grissom Approach (Basic Radar Service): 132.150
Grissom Approach (Basic Radar Service): 122.800
Grissom Approach (Basic Radar Service): 379.300
Grissom Approach (Basic Radar Service): 121.050
Grissom Clearance Delivery: 139.900
Grissom Departure: 351.100
Grissom Ground: 275.800
Grissom Ground: 128.425
Grissom Tower: 290.450
Grissom Tower: 133.700
Grisson Clearance Delivery: 324.300

KGVL AWOS (Archives)
Gainesville, Georgia, United States

Feed Status: UP
Listen in your browser - HTML5 player(in browser, HTML5)
Click here to listen with your own player(launches your MP3 player)

KGVL 051853Z AUTO VRB06KT 10SM SCT070 SCT095 29/19 A3007 RMK AO2 SLP164 T02890194

KGVL Airport Info (Airnav.com)

KGVL Flight Activity (Flightaware)

Listeners: 0 out of 1343 total

Gainesville AWOS: 126.475

KGVL CTAF/Clearance (Archives)
Gainesville, Georgia, United States

Feed Status: UP
Listen in your browser - HTML5 player(in browser, HTML5)
Click here to listen with your own player(launches your MP3 player)

KGVL 051853Z AUTO VRB06KT 10SM SCT070 SCT095 29/19 A3007 RMK AO2 SLP164 T02890194

KGVL Airport Info (Airnav.com)

KGVL Flight Activity (Flightaware)

Listeners: 0 out of 1343 total

Gainesville Clearance (Atlanta Center or TRACON): 134.800
Gainesville CTAF: 123.075

KGWS CTAF/Guard (Archives)
Glenwood Springs, Colorado, United States

Feed Status: UP
Listen in your browser - HTML5 player(in browser, HTML5)
Click here to listen with your own player(launches your MP3 player)

KGWS Airport Info (Airnav.com)

KGWS Flight Activity (Flightaware)

Listeners: 0 out of 1343 total

Emergency/Guard: 121.500
Glenwood Springs CTAF: 123.000

KGXY CTAF (Archives)
Greeley, Colorado, United States

Feed Status: UP
Listen in your browser - HTML5 player(in browser, HTML5)
Click here to listen with your own player(launches your MP3 player)

KGXY 051856Z AUTO 14010KT 10SM CLR 28/14 A3007 RMK AO2 SLP137 T02830144

KGXY Airport Info (Airnav.com)

KGXY Flight Activity (Flightaware)

Listeners: 0 out of 1343 total

Greeley CTAF: 122.800

KGXY RCO (Denver Radio) (Archives)
Greeley, Colorado, United States

Feed Status: UP
Listen in your browser - HTML5 player(in browser, HTML5)
Click here to listen with your own player(launches your MP3 player)

KGXY 051856Z AUTO 14010KT 10SM CLR 28/14 A3007 RMK AO2 SLP137 T02830144

KGXY Airport Info (Airnav.com)

KGXY Flight Activity (Flightaware)

Listeners: 0 out of 1343 total

Greeley RCO (Denver Radio): 122.650

KGYH Tower (Archives)
Greenville, South Carolina, United States

Feed Status: UP
Listen in your browser - HTML5 player(in browser, HTML5)
Click here to listen with your own player(launches your MP3 player)

KGMU 051853Z 16006KT 10SM FEW050 33/21 A3004 RMK AO2 SLP161 T03280206

KGMU Airport Info (Airnav.com)

KGMU Flight Activity (Flightaware)

Listeners: 0 out of 1343 total

Donaldson Tower: 133.325

KGYI ATIS (Archives)
Sherman/Denison, Texas, United States

Feed Status: UP
Listen in your browser - HTML5 player(in browser, HTML5)
Click here to listen with your own player(launches your MP3 player)

KGYI 051850Z 16008KT 10SM SKC 24/20 A3004

KGYI Airport Info (Airnav.com)

KGYI Flight Activity (Flightaware)

Listeners: 0 out of 1343 total

North Texas ATIS: 118.775

KGYI Ground/Tower (Archives)
Sherman/Denison, Texas, United States

Feed Status: UP
Listen in your browser - HTML5 player(in browser, HTML5)
Click here to listen with your own player(launches your MP3 player)

KGYI 051850Z 16008KT 10SM SKC 24/20 A3004

KGYI Airport Info (Airnav.com)

KGYI Flight Activity (Flightaware)

Listeners: 2 out of 1343 total

North Texas Ground: 124.125
North Texas Tower: 120.575

KGYR Ground (Archives)
Goodyear, Arizona, United States

Feed Status: UP
Listen in your browser - HTML5 player(in browser, HTML5)
Click here to listen with your own player(launches your MP3 player)

KGYR 051847Z 20011KT 10SM FEW100 40/09 A2984

KGYR Airport Info (Airnav.com)

KGYR Flight Activity (Flightaware)

Listeners: 0 out of 1343 total

Goodyear Ground: 121.700

KGYR Ground/Tower (Archives)
Goodyear, Arizona, United States

Feed Status: UP
Listen in your browser - HTML5 player(in browser, HTML5)
Click here to listen with your own player(launches your MP3 player)

KGYR 051847Z 20011KT 10SM FEW100 40/09 A2984

KGYR Airport Info (Airnav.com)

KGYR Flight Activity (Flightaware)

Listeners: 1 out of 1343 total

Goodyear Ground: 121.700
Goodyear Tower: 120.100

KGYR Tower (Archives)
Goodyear, Arizona, United States

Feed Status: UP
Listen in your browser - HTML5 player(in browser, HTML5)
Click here to listen with your own player(launches your MP3 player)

KGYR 051847Z 20011KT 10SM FEW100 40/09 A2984

KGYR Airport Info (Airnav.com)

KGYR Flight Activity (Flightaware)

Listeners: 1 out of 1343 total

Goodyear Tower: 120.100

KHBG CTAF (Air Race Classic)
Hattiesburg, Mississippi, United States

Feed Status: DOWN
Offline since: 2019-07-19 17:38:22 UTC

Hattiesburg CTAF: 122.800

KHBZ CTAF (Archives)
Heber Springs, Arkansas, United States

Feed Status: UP
Listen in your browser - HTML5 player(in browser, HTML5)
Click here to listen with your own player(launches your MP3 player)

KHBZ Airport Info (Airnav.com)

KHBZ Flight Activity (Flightaware)

Listeners: 0 out of 1343 total

Heber Springs CTAF/UNICOM: 122.700

KHDC De/Gnd/Twr/App/ZHU (Archives)
Hammond, Louisiana, United States

Feed Status: UP
Listen in your browser - HTML5 player(in browser, HTML5)
Click here to listen with your own player(launches your MP3 player)

KHDC 051855Z AUTO 32007G14KT 10SM SCT050 SCT060 32/19 A2999 RMK AO2

KHDC Airport Info (Airnav.com)

KHDC Flight Activity (Flightaware)

Listeners: 1 out of 1343 total

Hammond CTAF: 122.700
Hammond Ground: 119.850
Hammond Tower: 120.575
Houston Center (Low): 126.350
New Orleans Approach (West): 125.500
New Orleans Clearance/Approach: 119.300

KHFD Ground/Tower
Hartford, Connecticut, United States

Feed Status: DOWN
Offline since: 2020-08-04 18:56:39 UTC

KHFD 051753Z 22014KT 10SM BKN055 RMK TEMP/DP/ALTM UNKN DUE TO PWR OUTAGE. WIND EST 22014KT.

KHFD Airport Info (Airnav.com)

Brainard Ground: 121.600
Brainard Tower: 119.600

KHGR Tower (Archives)
Hagerstown, Maryland, United States

Feed Status: UP
Listen in your browser - HTML5 player(in browser, HTML5)
Click here to listen with your own player(launches your MP3 player)

KMRB 051853Z VRB04KT 10SM SCT065 29/16 A3006 RMK AO2 SLP174 T02890156

KMRB Airport Info (Airnav.com)

KMRB Flight Activity (Flightaware)

Listeners: 1 out of 1343 total

Hagerstown Tower: 120.300

KHHR Ground/Tower (Archives)
Hawthorne, California, United States

Feed Status: UP
Listen in your browser - HTML5 player(in browser, HTML5)
Click here to listen with your own player(launches your MP3 player)

KHHR 051853Z 26006KT 10SM OVC022 22/15 A2997 RMK AO2 SLP146 T02170150

KHHR Airport Info (Airnav.com)

KHHR Flight Activity (Flightaware)

Listeners: 3 out of 1343 total

Hawthorne Ground: 125.100
Hawthorne Tower: 121.100

KHIO Ground (Archives)
Portland, Oregon, United States

Feed Status: UP
Listen in your browser - HTML5 player(in browser, HTML5)
Click here to listen with your own player(launches your MP3 player)

KHIO 051853Z VRB03KT 10SM CLR 25/14 A2995 RMK AO2 SLP138 T02500139

KHIO Airport Info (Airnav.com)

KHIO Flight Activity (Flightaware)

Listeners: 0 out of 1343 total

Hillsboro Ground: 121.700

KHIO Tower (Archives)
Portland, Oregon, United States

Feed Status: UP
Listen in your browser - HTML5 player(in browser, HTML5)
Click here to listen with your own player(launches your MP3 player)

KHIO 051853Z VRB03KT 10SM CLR 25/14 A2995 RMK AO2 SLP138 T02500139

KHIO Airport Info (Airnav.com)

KHIO Flight Activity (Flightaware)

Listeners: 2 out of 1343 total

Hillsboro Tower: 119.300
Hillsboro Tower: 132.800

KHKY ASOS (Archives)
Hickory, North Carolina, United States

Feed Status: UP
Listen in your browser - HTML5 player(in browser, HTML5)
Click here to listen with your own player(launches your MP3 player)

KHKY 051853Z 00000KT 10SM SCT050 BKN070 BKN120 28/21 A3006 RMK AO2 SLP155 T02830206

KHKY Airport Info (Airnav.com)

KHKY Flight Activity (Flightaware)

Listeners: 0 out of 1343 total

Hickory ASOS: 118.325

KHKY Del/Gnd/Twr/ZTL (Archives)
Hickory, North Carolina, United States

Feed Status: UP
Listen in your browser - HTML5 player(in browser, HTML5)
Click here to listen with your own player(launches your MP3 player)

KHKY 051853Z 00000KT 10SM SCT050 BKN070 BKN120 28/21 A3006 RMK AO2 SLP155 T02830206

KHKY Airport Info (Airnav.com)

KHKY Flight Activity (Flightaware)

Listeners: 0 out of 1343 total

Altanta Center Clearance Delivery: 124.250
Atlanta Center (Sector 47 MOPED Low): 134.550
Atlanta Center (Sector 48 Wilkes Ultra Low): 125.150
Hickory Ground: 121.700
Hickory Tower: 128.150

KHKY Emergency/Guard (Archives)
Hickory, North Carolina, United States

Feed Status: UP
Listen in your browser - HTML5 player(in browser, HTML5)
Click here to listen with your own player(launches your MP3 player)

KHKY 051853Z 00000KT 10SM SCT050 BKN070 BKN120 28/21 A3006 RMK AO2 SLP155 T02830206

KHKY Airport Info (Airnav.com)

KHKY Flight Activity (Flightaware)

Listeners: 0 out of 1343 total

Emergency/Guard: 121.500

KHKY Ground (Archives)
Hickory, North Carolina, United States

Feed Status: UP
Listen in your browser - HTML5 player(in browser, HTML5)
Click here to listen with your own player(launches your MP3 player)

KHKY 051853Z 00000KT 10SM SCT050 BKN070 BKN120 28/21 A3006 RMK AO2 SLP155 T02830206

KHKY Airport Info (Airnav.com)

KHKY Flight Activity (Flightaware)

Listeners: 0 out of 1343 total

Hickory Ground: 121.700

KHKY Tower (Archives)
Hickory, North Carolina, United States

Feed Status: UP
Listen in your browser - HTML5 player(in browser, HTML5)
Click here to listen with your own player(launches your MP3 player)

KHKY 051853Z 00000KT 10SM SCT050 BKN070 BKN120 28/21 A3006 RMK AO2 SLP155 T02830206

KHKY Airport Info (Airnav.com)

KHKY Flight Activity (Flightaware)

Listeners: 0 out of 1343 total

Hickory Tower: 128.150

KHMT CTAF (Archives)
Hemet, California, United States

Feed Status: UP
Listen in your browser - HTML5 player(in browser, HTML5)
Click here to listen with your own player(launches your MP3 player)

KHMT 051855Z AUTO 22007KT 10SM CLR 26/11 A2997 RMK AO2 T02650106

KHMT Airport Info (Airnav.com)

KHMT Flight Activity (Flightaware)

Listeners: 0 out of 1343 total

Hemet CTAF: 123.000

KHNB CTAF
Huntingburg, Indiana, United States

Feed Status: DOWN
Offline since: 2019-12-20 05:10:40 UTC

KHNB 051856Z AUTO 00000KT 10SM BKN060 24/13 A3012 RMK AO2 SLP196 T02440133

KHNB Airport Info (Airnav.com)

Huntingburg CTAF: 122.800

KHND Ground/Tower (Archives)
Las Vegas, Nevada, United States

Feed Status: UP
Listen in your browser - HTML5 player(in browser, HTML5)
Click here to listen with your own player(launches your MP3 player)

KHND 051856Z 08007KT 10SM CLR 36/02 A2988 RMK AO2 SLP099 T03610022

KHND Airport Info (Airnav.com)

KHND Flight Activity (Flightaware)

Listeners: out of 1343 total

Henderson Ground: 127.800
Henderson Tower: 125.100

KHPN ATIS (Archives)
White Plains, New York, United States

Feed Status: UP
Listen in your browser - HTML5 player(in browser, HTML5)
Click here to listen with your own player(launches your MP3 player)

KHPN 051856Z VRB06KT 10SM SCT060 29/14 A3001 RMK AO2 SLP155 T02890144

KHPN Airport Info (Airnav.com)

KHPN Flight Activity (Flightaware)

Listeners: 0 out of 1343 total

Westchester County ATIS: 133.800

KHPN Del/Gnd/Tower #1 (Archives)
White Plains, New York, United States

Feed Status: UP
Listen in your browser - HTML5 player(in browser, HTML5)
Click here to listen with your own player(launches your MP3 player)

KHPN 051856Z VRB06KT 10SM SCT060 29/14 A3001 RMK AO2 SLP155 T02890144

KHPN Airport Info (Airnav.com)

KHPN Flight Activity (Flightaware)

Listeners: 0 out of 1343 total

Westchester Clearance Delivery: 127.250
Westchester Ground: 121.825
Westchester Tower: 118.575

KHPN Del/Gnd/Tower #2 (Archives)
White Plains, New York, United States

Feed Status: UP
Listen in your browser - HTML5 player(in browser, HTML5)
Click here to listen with your own player(launches your MP3 player)

KHPN 051856Z VRB06KT 10SM SCT060 29/14 A3001 RMK AO2 SLP155 T02890144

KHPN Airport Info (Airnav.com)

KHPN Flight Activity (Flightaware)

Listeners: 0 out of 1343 total

Westchester Clearance Delivery: 127.250
Westchester Ground: 121.825
Westchester Tower: 118.575

KHPN Delivery/Ground (Archives)
White Plains, New York, United States

Feed Status: UP
Listen in your browser - HTML5 player(in browser, HTML5)
Click here to listen with your own player(launches your MP3 player)

KHPN 051856Z VRB06KT 10SM SCT060 29/14 A3001 RMK AO2 SLP155 T02890144

KHPN Airport Info (Airnav.com)

KHPN Flight Activity (Flightaware)

Listeners: 0 out of 1343 total

Westchester Clearance Delivery: 127.250
Westchester Ground: 121.825

KHPN Tower (Archives)
New York, New York, United States

Feed Status: UP
Listen in your browser - HTML5 player(in browser, HTML5)
Click here to listen with your own player(launches your MP3 player)

KHPN 051856Z VRB06KT 10SM SCT060 29/14 A3001 RMK AO2 SLP155 T02890144

KHPN Airport Info (Airnav.com)

KHPN Flight Activity (Flightaware)

Listeners: 1 out of 1343 total

Westchester Tower: 118.575

KHPN Tower (Archives)
New York, New York, United States

Feed Status: UP
Listen in your browser - HTML5 player(in browser, HTML5)
Click here to listen with your own player(launches your MP3 player)

KHPN 051856Z VRB06KT 10SM SCT060 29/14 A3001 RMK AO2 SLP155 T02890144

KHPN Airport Info (Airnav.com)

KHPN Flight Activity (Flightaware)

Listeners: 1 out of 1343 total

Westchester Tower: 118.575

NY Approach (NOBBI/NYACK/HAARP) (Archives)
New York, New York, United States

Feed Status: UP
Listen in your browser - HTML5 player(in browser, HTML5)
Click here to listen with your own player(launches your MP3 player)

KHPN 051856Z VRB06KT 10SM SCT060 29/14 A3001 RMK AO2 SLP155 T02890144

KHPN Airport Info (Airnav.com)

KHPN Flight Activity (Flightaware)

Listeners: 0 out of 1343 total

New York Approach (HAARP Sector): 135.350
New York Approach (HAARP Sector): 120.800
New York Approach (NOBBI Sector): 126.400
New York Approach (NYACK Sector): 120.550

KHQZ Gnd/Twr
Mesquite, Texas, United States

Feed Status: DOWN
Offline since: 2020-01-15 14:56:39 UTC

KHQZ 051850Z 10009KT 10SM CLR 28/21 A3001

KHQZ Airport Info (Airnav.com)

Mesquite Ground: 118.850
Mesquite Tower: 120.300

KHQZ Tower (Archives)
Mesquite, Texas, United States

Feed Status: UP
Listen in your browser - HTML5 player(in browser, HTML5)
Click here to listen with your own player(launches your MP3 player)

KHQZ 051850Z 10009KT 10SM CLR 28/21 A3001

KHQZ Airport Info (Airnav.com)

KHQZ Flight Activity (Flightaware)

Listeners: 0 out of 1343 total

Mesquite Tower: 120.300

KHRL Gnd/Twr/App (Archives)
Harlingen, Texas, United States

Feed Status: UP
Listen in your browser - HTML5 player(in browser, HTML5)
Click here to listen with your own player(launches your MP3 player)

KHRL 051852Z 10005KT 10SM BKN040 33/24 A2997 RMK AO2 SLP145 T03280244 $

KHRL Airport Info (Airnav.com)

KHRL Flight Activity (Flightaware)

Listeners: 0 out of 1343 total

Harlingen Clearance/Ground: 121.700
Harlingen Tower: 119.300
Valley Approach: 120.700

KHRL Tower/CTAF (Archives)
Harlingen, Texas, United States

Feed Status: UP
Listen in your browser - HTML5 player(in browser, HTML5)
Click here to listen with your own player(launches your MP3 player)

KHRL 051852Z 10005KT 10SM BKN040 33/24 A2997 RMK AO2 SLP145 T03280244 $

KHRL Airport Info (Airnav.com)

KHRL Flight Activity (Flightaware)

Listeners: 0 out of 1343 total

Harlingen Tower: 119.300

KHRO CTAF/ZME/Misc (Archives)
Harrison, Arkansas, United States

Feed Status: UP
Listen in your browser - HTML5 player(in browser, HTML5)
Click here to listen with your own player(launches your MP3 player)

KHRO 051853Z AUTO 00000KT 10SM FEW040 FEW049 27/17 A3010 RMK AO2 SLP182 T02670172 $

KHRO Airport Info (Airnav.com)

KHRO Flight Activity (Flightaware)

Listeners: 0 out of 1343 total

Boone County CTAF: 123.000
Jonesboro FSS: 122.450
Jonesboro FSS: 255.400
KBBG Tower (aircraft only): 128.150
Memphis Center (Low): 126.850
Memphis Center (Low): 281.550
Memphis Center (Ultra-High): 133.025
Memphis Center (Ultra-High): 284.750
Springfield Approach (aircraft only): 126.350

KHUA Tower
Huntsville, Alabama, United States

Feed Status: DOWN
Offline since: 2020-04-27 15:37:40 UTC

Redstone Tower: 126.950

KHUF App/Dep (Archives)
Terre Haute, Indiana, United States

Feed Status: UP
Listen in your browser - HTML5 player(in browser, HTML5)
Click here to listen with your own player(launches your MP3 player)

KHUF 051853Z 00000KT 10SM BKN055 24/10 A3014 RMK AO2 SLP203 T02440100

KHUF Airport Info (Airnav.com)

KHUF Flight Activity (Flightaware)

Listeners: 0 out of 1343 total

Hulman Approach: 125.450

KHUF Emergency/Guard (Archives)
Terre Haute, Indiana, United States

Feed Status: UP
Listen in your browser - HTML5 player(in browser, HTML5)
Click here to listen with your own player(launches your MP3 player)

KHUF 051853Z 00000KT 10SM BKN055 24/10 A3014 RMK AO2 SLP203 T02440100

KHUF Airport Info (Airnav.com)

KHUF Flight Activity (Flightaware)

Listeners: 0 out of 1343 total

Emergency/Guard: 121.500

KHUF Gnd/Twr (Archives)
Terre Haute, Indiana, United States

Feed Status: UP
Listen in your browser - HTML5 player(in browser, HTML5)
Click here to listen with your own player(launches your MP3 player)

KHUF 051853Z 00000KT 10SM BKN055 24/10 A3014 RMK AO2 SLP203 T02440100

KHUF Airport Info (Airnav.com)

KHUF Flight Activity (Flightaware)

Listeners: 0 out of 1343 total

Hulman Ground/Clearance: 121.600
Hulman Tower: 134.725

KHUF Gnd/Twr/App (Archives)
Terre Haute, Indiana, United States

Feed Status: UP
Listen in your browser - HTML5 player(in browser, HTML5)
Click here to listen with your own player(launches your MP3 player)

KHUF 051853Z 00000KT 10SM BKN055 24/10 A3014 RMK AO2 SLP203 T02440100

KHUF Airport Info (Airnav.com)

KHUF Flight Activity (Flightaware)

Listeners: 0 out of 1343 total

Hulman Approach: 125.450
Hulman Ground/Clearance: 121.600
Hulman Tower: 134.725
Indianapolis Center (Sector 35 Terre Haute Low): 132.200
Indianapolis Center (Sector 80 King High): 134.175

KHUF Ground (Archives)
Terre Haute, Indiana, United States

Feed Status: UP
Listen in your browser - HTML5 player(in browser, HTML5)
Click here to listen with your own player(launches your MP3 player)

KHUF 051853Z 00000KT 10SM BKN055 24/10 A3014 RMK AO2 SLP203 T02440100

KHUF Airport Info (Airnav.com)

KHUF Flight Activity (Flightaware)

Listeners: 0 out of 1343 total

Hulman Ground/Clearance: 121.600

KHUF Tower (Archives)
Terre Haute, Indiana, United States

Feed Status: UP
Listen in your browser - HTML5 player(in browser, HTML5)
Click here to listen with your own player(launches your MP3 player)

KHUF 051853Z 00000KT 10SM BKN055 24/10 A3014 RMK AO2 SLP203 T02440100

KHUF Airport Info (Airnav.com)

KHUF Flight Activity (Flightaware)

Listeners: 0 out of 1343 total

Hulman Tower: 134.725

KHUL ASOS (Archives)
Houlton, Maine, United States

Feed Status: UP
Listen in your browser - HTML5 player(in browser, HTML5)
Click here to listen with your own player(launches your MP3 player)

KHUL 051853Z AUTO 21010KT 10SM FEW049 28/17 A2985 RMK AO2 SLP106 T02830167

KHUL Airport Info (Airnav.com)

KHUL Flight Activity (Flightaware)

Listeners: 0 out of 1343 total

Houlton ASOS: 132.025

KHUL/KPQI/ZBW01/15 (Archives)
Houlton, Maine, United States

Feed Status: UP
Listen in your browser - HTML5 player(in browser, HTML5)
Click here to listen with your own player(launches your MP3 player)

KHUL 051853Z AUTO 21010KT 10SM FEW049 28/17 A2985 RMK AO2 SLP106 T02830167

KHUL Airport Info (Airnav.com)

KHUL Flight Activity (Flightaware)

Listeners: 0 out of 1343 total

Boston Center (Sector 01 Millinocket High Sector): 128.050
Boston Center (Sector 01 Millinocket High Sector): 319.100
Boston Center (Surry 15 Low Sector): 120.250
Boston Center (Surry 15 Low Sector): 346.400
Emergency/Guard: 121.500
Houlton CTAF/UNICOM: 122.800
Presque Isle CTAF/UNICOM: 122.800

KHUT Ground/Twr (Archives)
Hutchinson, Kansas, United States

Feed Status: UP
Listen in your browser - HTML5 player(in browser, HTML5)
Click here to listen with your own player(launches your MP3 player)

KHUT 051852Z 19011G20KT 10SM CLR 28/18 A3003 RMK AO2 SLP148 T02780178

KHUT Airport Info (Airnav.com)

KHUT Flight Activity (Flightaware)

Listeners: 1 out of 1343 total

Emergency/Guard: 121.500
Hutchinson Ground: 121.900
Hutchinson Tower: 118.500

KHVN Ground/Tower (Archives)
New Haven, Connecticut, United States

Feed Status: UP
Listen in your browser - HTML5 player(in browser, HTML5)
Click here to listen with your own player(launches your MP3 player)

KHVN 051853Z 21012KT 10SM SCT060 31/19 A2999 RMK AO2 SLP155 T03110194 $

KHVN Airport Info (Airnav.com)

KHVN Flight Activity (Flightaware)

Listeners: 0 out of 1343 total

New Haven Ground: 121.700
New Haven Tower: 124.800

KHWD Ground/Tower (Archives)
Hayward, California, United States

Feed Status: UP
Listen in your browser - HTML5 player(in browser, HTML5)
Click here to listen with your own player(launches your MP3 player)

KHWD 051854Z 23009KT 10SM OVC012 18/12 A2999 RMK AO2 SLP163 T01780122

KHWD Airport Info (Airnav.com)

KHWD Flight Activity (Flightaware)

Listeners: 0 out of 1343 total

Hayward Ground: 121.400
Hayward Tower: 118.900
Hayward Tower: 120.200

KHWO ATIS (Archives)
Hollywood, Florida, United States

Feed Status: UP
Listen in your browser - HTML5 player(in browser, HTML5)
Click here to listen with your own player(launches your MP3 player)

KHWO 051853Z 13004KT 10SM FEW029 32/26 A3000 RMK AO2 SLP160 T03220256

KHWO Airport Info (Airnav.com)

KHWO Flight Activity (Flightaware)

Listeners: 0 out of 1343 total

North Perry ATIS: 135.475

KHWO Ground (Archives)
Hollywood, Florida, United States

Feed Status: UP
Listen in your browser - HTML5 player(in browser, HTML5)
Click here to listen with your own player(launches your MP3 player)

KHWO 051853Z 13004KT 10SM FEW029 32/26 A3000 RMK AO2 SLP160 T03220256

KHWO Airport Info (Airnav.com)

KHWO Flight Activity (Flightaware)

Listeners: 0 out of 1343 total

North Perry Ground: 120.450

KHWO Tower (Both) (Archives)
Hollywood, Florida, United States

Feed Status: UP
Listen in your browser - HTML5 player(in browser, HTML5)
Click here to listen with your own player(launches your MP3 player)

KHWO 051853Z 13004KT 10SM FEW029 32/26 A3000 RMK AO2 SLP160 T03220256

KHWO Airport Info (Airnav.com)

KHWO Flight Activity (Flightaware)

Listeners: 0 out of 1343 total

North Perry Tower (Primary): 132.100
North Perry Tower (Secondary): 134.300

KHWO Tower (Primary)
Hollywood, Florida, United States

Feed Status: DOWN
Offline since: 2019-12-30 16:50:05 UTC

KHWO 051853Z 13004KT 10SM FEW029 32/26 A3000 RMK AO2 SLP160 T03220256

KHWO Airport Info (Airnav.com)

North Perry Tower (Primary): 132.100

KHWO Tower (Secondary) (Archives)
Hollywood, Florida, United States

Feed Status: UP
Listen in your browser - HTML5 player(in browser, HTML5)
Click here to listen with your own player(launches your MP3 player)

KHWO 051853Z 13004KT 10SM FEW029 32/26 A3000 RMK AO2 SLP160 T03220256

KHWO Airport Info (Airnav.com)

KHWO Flight Activity (Flightaware)

Listeners: 0 out of 1343 total

North Perry Tower (Secondary): 134.300

KHWO Twr/CTAF/App
Hollywood, Florida, United States

Feed Status: DOWN
Offline since: 2020-04-20 02:51:39 UTC

KHWO 051853Z 13004KT 10SM FEW029 32/26 A3000 RMK AO2 SLP160 T03220256

KHWO Airport Info (Airnav.com)

Miami Approach: 128.600
North Perry Tower: 132.100
North Perry Tower: 134.300
Practice Area CTAF: 123.450

KHWV CTAF
Shirley, New York, United States

Feed Status: DOWN
Offline since: 2020-07-25 20:28:05 UTC

KHWV 041856Z AUTO 16035G53KT 6SM HZ FEW022 OVC028 26/20 A2967 RMK AO2 PK WND 15053/1856 RAE34 SLP045 P0000 T02610200

KHWV Airport Info (Airnav.com)

Brookhaven CTAF: 122.800
Emergency/Guard: 121.500

KHXD Ground/Tower (Archives)
Hilton Head Island, South Carolina, United States

Feed Status: UP
Listen in your browser - HTML5 player(in browser, HTML5)
Click here to listen with your own player(launches your MP3 player)

KHXD 051850Z 19010KT 10SM BKN018 31/25 A3003

KHXD Airport Info (Airnav.com)

KHXD Flight Activity (Flightaware)

Listeners: 1 out of 1343 total

Hilton Head Ground: 121.100
Hilton Head Tower: 118.975

KHYI Gnd/Twr/Misc (Archives)
Austin, Texas, United States

Feed Status: UP
Listen in your browser - HTML5 player(in browser, HTML5)
Click here to listen with your own player(launches your MP3 player)

KHYI 051856Z 19007G16KT 10SM FEW001 36/19 A3000 RMK AO2 SLP146 T03610189

KHYI Airport Info (Airnav.com)

KHYI Flight Activity (Flightaware)

Listeners: 0 out of 1343 total

Redbird FBO ASRI: 130.850
San Marcos Ground: 120.125
San Marcos Tower: 126.825

KHYS CTAF (Archives)
Hays, Kansas, United States

Feed Status: UP
Listen in your browser - HTML5 player(in browser, HTML5)
Click here to listen with your own player(launches your MP3 player)

KHYS 051856Z AUTO 23008KT 10SM CLR 29/18 A3001 RMK AO2 SLP147 T02890183

KHYS Airport Info (Airnav.com)

KHYS Flight Activity (Flightaware)

Listeners: 0 out of 1343 total

Hays CTAF: 122.800

KIAG Del/Gnd/Twr (Archives)
Niagara Falls, New York, United States

Feed Status: UP
Listen in your browser - HTML5 player(in browser, HTML5)
Click here to listen with your own player(launches your MP3 player)

KIAG 051853Z 25011G19KT 10SM SCT042 OVC055 22/13 A3005 RMK AO2 SLP175 T02220128

KIAG Airport Info (Airnav.com)

KIAG Flight Activity (Flightaware)

Listeners: 0 out of 1343 total

Niagara Clearance Delivery: 119.250
Niagara Emergency/Guard: 121.500
Niagara Ground: 121.700
Niagara Tower: 118.500
Niagara UNICOM: 122.950

KIKV Del/CTAF (Archives)
Ankeny, Iowa, United States

Feed Status: UP
Listen in your browser - HTML5 player(in browser, HTML5)
Click here to listen with your own player(launches your MP3 player)

KIKV 051855Z AUTO VRB06G12KT 10SM BKN050 23/12 A3010 RMK AO2

KIKV Airport Info (Airnav.com)

KIKV Flight Activity (Flightaware)

Listeners: 0 out of 1343 total

Ankeny Clearance Delivery (Des Moines via RCO): 126.650
Ankeny CTAF: 122.900

KILM Gnd/Twr/App (Archives)
Wilmington, North Carolina, United States

Feed Status: UP
Listen in your browser - HTML5 player(in browser, HTML5)
Click here to listen with your own player(launches your MP3 player)

KILM 051853Z VRB06KT 10SM CLR 31/22 A3004 RMK AO2 LTG DSNT SW AND W SLP174 T03060222 $

KILM Airport Info (Airnav.com)

KILM Flight Activity (Flightaware)

Listeners: 3 out of 1343 total

Emergency/Guard: 121.500
Wilmington Approach: 118.250
Wilmington Approach: 135.750
Wilmington Approach: 317.425
Wilmington Approach: 284.650
Wilmington Ground: 121.900
Wilmington Ground: 348.600
Wilmington Tower: 119.900
Wilmington Tower: 239.300

KILM Gnd/Twr/App/ZDC (Archives)
Wilmington, North Carolina, United States

Feed Status: UP
Listen in your browser - HTML5 player(in browser, HTML5)
Click here to listen with your own player(launches your MP3 player)

KILM 051853Z VRB06KT 10SM CLR 31/22 A3004 RMK AO2 LTG DSNT SW AND W SLP174 T03060222 $

KILM Airport Info (Airnav.com)

KILM Flight Activity (Flightaware)

Listeners: 2 out of 1343 total

Emergency/Guard: 121.500
Washington Center (Sector 35 Wilmington High): 269.150
Washington Center (Sector 35 Wilmington High): 124.025
Wilmington Approach: 317.425
Wilmington Approach: 284.650
Wilmington Approach: 135.750
Wilmington Approach: 118.250
Wilmington Ground: 121.900
Wilmington Ground: 348.600
Wilmington Tower: 239.300
Wilmington Tower: 119.900

KINF CTAF (Archives)
Inverness, Florida, United States

Feed Status: UP
Listen in your browser - HTML5 player(in browser, HTML5)
Click here to listen with your own player(launches your MP3 player)

KINF 051855Z AUTO 00000KT 10SM SCT044 BKN050 OVC085 33/23 A3000 RMK AO2 LTG DSNT SE AND SW

KINF Airport Info (Airnav.com)

KINF Flight Activity (Flightaware)

Listeners: 0 out of 1343 total

Inverness CTAF: 122.725

KINT Ground/Tower (Archives)
Winston Salem, North Carolina, United States

Feed Status: UP
Listen in your browser - HTML5 player(in browser, HTML5)
Click here to listen with your own player(launches your MP3 player)

KINT 051854Z 02007KT 10SM SCT039 SCT055 BKN120 27/23 A3007 RMK AO2 LTG DSNT N-E TSE1758 SLP169 T02670228

KINT Airport Info (Airnav.com)

KINT Flight Activity (Flightaware)

Listeners: 2 out of 1343 total

Winston-Salem Ground: 128.250
Winston-Salem Tower: 123.750

KCID Gnd/Twr/App/KIOW (Archives)
Iowa City, Iowa, United States

Feed Status: UP
Listen in your browser - HTML5 player(in browser, HTML5)
Click here to listen with your own player(launches your MP3 player)

KCID 051852Z 18005KT 10SM FEW049 BKN065 23/12 A3011 RMK AO2 SLP194 T02280117

KCID Airport Info (Airnav.com)

KCID Flight Activity (Flightaware)

Listeners: 0 out of 1343 total

Cedar Rapids Approach (091-269): 119.700
Cedar Rapids Approach (270-090): 134.050
Cedar Rapids Clearance Delivery: 125.450
Cedar Rapids Ground (0500-2330): 121.600
Cedar Rapids Tower (0500-2330): 118.700
UNICOM C17 (Marion) and surrounding area: 122.700
UNICOM IA24 Green Castle: 122.900
UNICOM KIOW (Iowa City) and surrounding area: 122.800

KIPJ CTAF/Del (Archives)
Lincolnton, North Carolina, United States

Feed Status: UP
Listen in your browser - HTML5 player(in browser, HTML5)
Click here to listen with your own player(launches your MP3 player)

KIPJ 051915Z AUTO 14003KT 10SM SCT046 SCT060 32/19 A3004 RMK AO2 T03150190

KIPJ Airport Info (Airnav.com)

KIPJ Flight Activity (Flightaware)

Listeners: 0 out of 1343 total

Lincolnton Clearance Delivery: 124.900
Lincolnton CTAF: 123.050

KISM Del/Gnd (Archives)
Orlando, Florida, United States

Feed Status: UP
Listen in your browser - HTML5 player(in browser, HTML5)
Click here to listen with your own player(launches your MP3 player)

KJSM Airport Info (Airnav.com)

KJSM Flight Activity (Flightaware)

Listeners: 0 out of 1343 total

Emergency/Guard: 121.500
Kissimmee Ground/Clearance Delivery: 121.700

KISM Del/Gnd/Twr (Archives)
Orlando, Florida, United States

Feed Status: UP
Listen in your browser - HTML5 player(in browser, HTML5)
Click here to listen with your own player(launches your MP3 player)

KJSM Airport Info (Airnav.com)

KJSM Flight Activity (Flightaware)

Listeners: 0 out of 1343 total

Emergency/Guard: 121.500
Kissimmee Ground/Clearance Delivery: 121.700
Kissimmee Tower/CTAF: 124.450

KISM Tower (Archives)
Orlando, Florida, United States

Feed Status: UP
Listen in your browser - HTML5 player(in browser, HTML5)
Click here to listen with your own player(launches your MP3 player)

KJSM Airport Info (Airnav.com)

KJSM Flight Activity (Flightaware)

Listeners: 0 out of 1343 total

Kissimmee Tower/CTAF: 124.450

KIWA ATIS (Archives)
Phoenix, Arizona, United States

Feed Status: UP
Listen in your browser - HTML5 player(in browser, HTML5)
Click here to listen with your own player(launches your MP3 player)

KIWA 051850Z 21009G17KT 10SM PO SCT200 39/13 A2988

KIWA Airport Info (Airnav.com)

KIWA Flight Activity (Flightaware)

Listeners: 0 out of 1343 total

Gateway ATIS: 133.500

KIWA Clearance Delivery (Archives)
Phoenix, Arizona, United States

Feed Status: UP
Listen in your browser - HTML5 player(in browser, HTML5)
Click here to listen with your own player(launches your MP3 player)

KIWA 051850Z 21009G17KT 10SM PO SCT200 39/13 A2988

KIWA Airport Info (Airnav.com)

KIWA Flight Activity (Flightaware)

Listeners: 0 out of 1343 total

Gateway Clearance Delivery: 135.050

KIWA Ground (Archives)
Phoenix, Arizona, United States

Feed Status: UP
Listen in your browser - HTML5 player(in browser, HTML5)
Click here to listen with your own player(launches your MP3 player)

KIWA 051850Z 21009G17KT 10SM PO SCT200 39/13 A2988

KIWA Airport Info (Airnav.com)

KIWA Flight Activity (Flightaware)

Listeners: 0 out of 1343 total

Gateway Ground: 128.250

KIWA Tower (Archives)
Phoenix, Arizona, United States

Feed Status: UP
Listen in your browser - HTML5 player(in browser, HTML5)
Click here to listen with your own player(launches your MP3 player)

KIWA 051850Z 21009G17KT 10SM PO SCT200 39/13 A2988

KIWA Airport Info (Airnav.com)

KIWA Flight Activity (Flightaware)

Listeners: 1 out of 1343 total

Gateway Tower (East): 124.750
Gateway Tower (West): 120.600

KIXD ASOS/ATIS (Archives)
Olathe, Kansas, United States

Feed Status: UP
Listen in your browser - HTML5 player(in browser, HTML5)
Click here to listen with your own player(launches your MP3 player)

KIXD 051853Z 13004KT 10SM CLR 25/13 A3009 RMK AO2 SLP182 T02500128

KIXD Airport Info (Airnav.com)

KIXD Flight Activity (Flightaware)

Listeners: 0 out of 1343 total

New Century ATIS/ASOS: 135.325

KIXD Ground/Tower/K34 (Archives)
Olathe, Kansas, United States

Feed Status: UP
Listen in your browser - HTML5 player(in browser, HTML5)
Click here to listen with your own player(launches your MP3 player)

KIXD 051853Z 13004KT 10SM CLR 25/13 A3009 RMK AO2 SLP182 T02500128

KIXD Airport Info (Airnav.com)

KIXD Flight Activity (Flightaware)

Listeners: 1 out of 1343 total

K34 CTAF: 122.800
New Century Ground: 124.300
New Century Tower: 133.000

KJCA CTAF (Archives)
Jefferson, Georgia, United States

Feed Status: UP
Listen in your browser - HTML5 player(in browser, HTML5)
Click here to listen with your own player(launches your MP3 player)

KJCA 051855Z AUTO 29015G20KT 10SM BKN090 OVC110 27/22 A3005 RMK AO2 T02670224

KJCA Airport Info (Airnav.com)

KJCA Flight Activity (Flightaware)

Listeners: 0 out of 1343 total

Jefferson CTAF: 122.800

KJFX CTAF
Jasper, Alabama, United States

Feed Status: DOWN
Offline since: 2019-12-15 18:54:39 UTC

KJFX 051855Z AUTO VRB05KT 10SM SCT044 34/21 A3001 RMK AO2 PWINO

KJFX Airport Info (Airnav.com)

Walker County CTAF: 122.700

KJLN ATIS (Archives)
Joplin, Missouri, United States

Feed Status: UP
Listen in your browser - HTML5 player(in browser, HTML5)
Click here to listen with your own player(launches your MP3 player)

KJLN 051853Z 20007KT 10SM FEW080 27/16 A3007 RMK AO2 SLP176 T02720156

KJLN Airport Info (Airnav.com)

KJLN Flight Activity (Flightaware)

Listeners: 0 out of 1343 total

Joplin ATIS: 120.850

KJLN Ground (Archives)
Joplin, Missouri, United States

Feed Status: UP
Listen in your browser - HTML5 player(in browser, HTML5)
Click here to listen with your own player(launches your MP3 player)

KJLN 051853Z 20007KT 10SM FEW080 27/16 A3007 RMK AO2 SLP176 T02720156

KJLN Airport Info (Airnav.com)

KJLN Flight Activity (Flightaware)

Listeners: 1 out of 1343 total

Joplin Ground: 121.600

KJLN Ground/Tower (Archives)
Joplin, Missouri, United States

Feed Status: UP
Listen in your browser - HTML5 player(in browser, HTML5)
Click here to listen with your own player(launches your MP3 player)

KJLN 051853Z 20007KT 10SM FEW080 27/16 A3007 RMK AO2 SLP176 T02720156

KJLN Airport Info (Airnav.com)

KJLN Flight Activity (Flightaware)

Listeners: 0 out of 1343 total

Joplin Ground: 121.600
Joplin Tower: 119.800

KJLN Tower (Archives)
Joplin, Missouri, United States

Feed Status: UP
Listen in your browser - HTML5 player(in browser, HTML5)
Click here to listen with your own player(launches your MP3 player)

KJLN 051853Z 20007KT 10SM FEW080 27/16 A3007 RMK AO2 SLP176 T02720156

KJLN Airport Info (Airnav.com)

KJLN Flight Activity (Flightaware)

Listeners: 0 out of 1343 total

Joplin Tower: 119.800

KJNX AWOS (Archives)
Smithfield, North Carolina, United States

Feed Status: UP
Listen in your browser - HTML5 player(in browser, HTML5)
Click here to listen with your own player(launches your MP3 player)

KJNX 051855Z AUTO 21004KT 10SM CLR 30/24 A3005 RMK AO2

KJNX Airport Info (Airnav.com)

KJNX Flight Activity (Flightaware)

Listeners: 0 out of 1343 total

Johnston AWOS: 120.225

KJNX CTAF (Archives)
Smithfield, North Carolina, United States

Feed Status: UP
Listen in your browser - HTML5 player(in browser, HTML5)
Click here to listen with your own player(launches your MP3 player)

KJNX 051855Z AUTO 21004KT 10SM CLR 30/24 A3005 RMK AO2

KJNX Airport Info (Airnav.com)

KJNX Flight Activity (Flightaware)

Listeners: 0 out of 1343 total

Johnston CTAF: 122.725

KJQF Ground/Tower (Archives)
Concord, North Carolina, United States

Feed Status: UP
Listen in your browser - HTML5 player(in browser, HTML5)
Click here to listen with your own player(launches your MP3 player)

KJQF 051857Z 20006KT 10SM BKN046 32/20 A3006

KJQF Airport Info (Airnav.com)

KJQF Flight Activity (Flightaware)

Listeners: 1 out of 1343 total

Concord Ground: 121.850
Concord Tower: 134.650

KJWY/2TS6 CTAF/Unicom (Archives)
Midlothian/Waxahachie, Texas, United States

Feed Status: UP
Listen in your browser - HTML5 player(in browser, HTML5)
Click here to listen with your own player(launches your MP3 player)

KJWY 051855Z AUTO 06008KT 020V080 10SM CLR 30/22 A3001 RMK AO2 T03000217

KJWY Airport Info (Airnav.com)

KJWY Flight Activity (Flightaware)

Listeners: 0 out of 1343 total

Mid-Way CTAF/UNICOM: 122.975

Regional Approach (South/RBD)
Midlothian/Waxahachie, Texas, United States

Feed Status: DOWN
Offline since: 2020-03-29 19:10:05 UTC

KRBD 051853Z 14010KT 10SM 30/21 A3000 RMK AO2 SLP148 T03000206 $

KRBD Airport Info (Airnav.com)

Regional Approach (South): 125.200

KJYO CTAF/Del/SFRA (Archives)
Leesburg, Virginia, United States

Feed Status: UP
Listen in your browser - HTML5 player(in browser, HTML5)
Click here to listen with your own player(launches your MP3 player)

KIAD 051852Z 27005KT 10SM SCT050 30/18 A3006 RMK AO2 SLP176 T03000178

KIAD Airport Info (Airnav.com)

KIAD Flight Activity (Flightaware)

Listeners: 0 out of 1343 total

Emergency/Guard: 121.500
Leesburg Clearance: 118.550
Leesburg CTAF: 122.975

KLAF App/Dep (Archives)
Lafayette, Indiana, United States

Feed Status: UP
Listen in your browser - HTML5 player(in browser, HTML5)
Click here to listen with your own player(launches your MP3 player)

KLAF 051854Z 00000KT 10SM SCT060 24/11 A3013 RMK AO2 SLP202 T02440111

KLAF Airport Info (Airnav.com)

KLAF Flight Activity (Flightaware)

Listeners: 0 out of 1343 total

Grissom Approach: 123.850

KLAF ATIS (Archives)
Lafayette, Indiana, United States

Feed Status: UP
Listen in your browser - HTML5 player(in browser, HTML5)
Click here to listen with your own player(launches your MP3 player)

KLAF 051854Z 00000KT 10SM SCT060 24/11 A3013 RMK AO2 SLP202 T02440111

KLAF Airport Info (Airnav.com)

KLAF Flight Activity (Flightaware)

Listeners: 0 out of 1343 total

Lafayette ATIS: 127.750

KLAF Ground (Archives)
Lafayette, Indiana, United States

Feed Status: UP
Listen in your browser - HTML5 player(in browser, HTML5)
Click here to listen with your own player(launches your MP3 player)

KLAF 051854Z 00000KT 10SM SCT060 24/11 A3013 RMK AO2 SLP202 T02440111

KLAF Airport Info (Airnav.com)

KLAF Flight Activity (Flightaware)

Listeners: 0 out of 1343 total

Lafayette Ground: 121.900

KLAF Tower (Archives)
Lafayette, Indiana, United States

Feed Status: UP
Listen in your browser - HTML5 player(in browser, HTML5)
Click here to listen with your own player(launches your MP3 player)

KLAF 051854Z 00000KT 10SM SCT060 24/11 A3013 RMK AO2 SLP202 T02440111

KLAF Airport Info (Airnav.com)

KLAF Flight Activity (Flightaware)

Listeners: 0 out of 1343 total

Lafayette Tower: 119.600

KLAL Approach/Departure (Archives)
Lakeland, Florida, United States

Feed Status: UP
Listen in your browser - HTML5 player(in browser, HTML5)
Click here to listen with your own player(launches your MP3 player)

KLAL 051850Z 18006KT 10SM VCSH SCT030 27/22 A3004

KLAL Airport Info (Airnav.com)

KLAL Flight Activity (Flightaware)

Listeners: 0 out of 1343 total

Emergency/Guard: 121.500
Tampa Approach: 119.900
Tampa Approach (KLAL IFR Arrivals Cancelling): 120.650

KLAL ATIS (Archives)
Lakeland, Florida, United States

Feed Status: UP
Listen in your browser - HTML5 player(in browser, HTML5)
Click here to listen with your own player(launches your MP3 player)

KLAL 051850Z 18006KT 10SM VCSH SCT030 27/22 A3004

KLAL Airport Info (Airnav.com)

KLAL Flight Activity (Flightaware)

Listeners: 0 out of 1343 total

Lakeland ATIS: 118.025

KLAL Ground/Advisory (Archives)
Lakeland, Florida, United States

Feed Status: UP
Listen in your browser - HTML5 player(in browser, HTML5)
Click here to listen with your own player(launches your MP3 player)

KLAL 051850Z 18006KT 10SM VCSH SCT030 27/22 A3004

KLAL Airport Info (Airnav.com)

KLAL Flight Activity (Flightaware)

Listeners: 0 out of 1343 total

Lakeland Ground: 121.400
Lakeland Helicopter: 123.025
Lakeland IFR Ground Control: 127.100
Paradise City Advisory: 123.625
Sun 'n Fun Ground Advisory: 126.075
Warbird Parking Advisory: 125.025

KLAL Tower (Archives)
Lakeland, Florida, United States

Feed Status: UP
Listen in your browser - HTML5 player(in browser, HTML5)
Click here to listen with your own player(launches your MP3 player)

KLAL 051850Z 18006KT 10SM VCSH SCT030 27/22 A3004

KLAL Airport Info (Airnav.com)

KLAL Flight Activity (Flightaware)

Listeners: 0 out of 1343 total

Lakeland Tower: 124.500

KLBX CTAF (Archives)
Angleton/Lake Jackson, Texas, United States

Feed Status: UP
Listen in your browser - HTML5 player(in browser, HTML5)
Click here to listen with your own player(launches your MP3 player)

KLBX 051853Z AUTO 20008KT 10SM CLR 33/20 A3001 RMK AO2 SLP161 T03330200

KLBX Airport Info (Airnav.com)

KLBX Flight Activity (Flightaware)

Listeners: 0 out of 1343 total

KLBX CTAF: 123.000

KLCI AWOS (Archives)
Laconia, New Hampshire, United States

Feed Status: UP
Listen in your browser - HTML5 player(in browser, HTML5)
Click here to listen with your own player(launches your MP3 player)

KLCI 051856Z AUTO 23016G19KT 10SM FEW060 29/16 A2995 RMK AO2 SLP138 T02890161

KLCI Airport Info (Airnav.com)

KLCI Flight Activity (Flightaware)

Listeners: 0 out of 1343 total

Laconia AWOS: 133.525

KLCI Del/CTAF (Archives)
Laconia, New Hampshire, United States

Feed Status: UP
Listen in your browser - HTML5 player(in browser, HTML5)
Click here to listen with your own player(launches your MP3 player)

KLCI 051856Z AUTO 23016G19KT 10SM FEW060 29/16 A2995 RMK AO2 SLP138 T02890161

KLCI Airport Info (Airnav.com)

KLCI Flight Activity (Flightaware)

Listeners: 2 out of 1343 total

Laconia Clearance Delivery (Boston Approach): 119.850
Laconia CTAF: 123.000

KLEE App/Dep (Archives)
Leesburg, Florida, United States

Feed Status: UP
Listen in your browser - HTML5 player(in browser, HTML5)
Click here to listen with your own player(launches your MP3 player)

KLEE 051853Z 11005KT 10SM CLR 33/23 A3001 RMK AO2 LTG DSNT SE AND S SLP162 T03330233

KLEE Airport Info (Airnav.com)

KLEE Flight Activity (Flightaware)

Listeners: 0 out of 1343 total

Orlando Approach: 135.300
Orlando Approach: 120.225

KLEE ASOS (Archives)
Leesburg, Florida, United States

Feed Status: UP
Listen in your browser - HTML5 player(in browser, HTML5)
Click here to listen with your own player(launches your MP3 player)

KLEE 051853Z 11005KT 10SM CLR 33/23 A3001 RMK AO2 LTG DSNT SE AND S SLP162 T03330233

KLEE Airport Info (Airnav.com)

KLEE Flight Activity (Flightaware)

Listeners: 0 out of 1343 total

Leesburg ASOS: 134.325

KLEE Ground (Archives)
Leesburg, Florida, United States

Feed Status: UP
Listen in your browser - HTML5 player(in browser, HTML5)
Click here to listen with your own player(launches your MP3 player)

KLEE 051853Z 11005KT 10SM CLR 33/23 A3001 RMK AO2 LTG DSNT SE AND S SLP162 T03330233

KLEE Airport Info (Airnav.com)

KLEE Flight Activity (Flightaware)

Listeners: 0 out of 1343 total

Leesburg Ground: 121.725

KLEE Tower (Archives)
Leesburg, Florida, United States

Feed Status: UP
Listen in your browser - HTML5 player(in browser, HTML5)
Click here to listen with your own player(launches your MP3 player)

KLEE 051853Z 11005KT 10SM CLR 33/23 A3001 RMK AO2 LTG DSNT SE AND S SLP162 T03330233

KLEE Airport Info (Airnav.com)

KLEE Flight Activity (Flightaware)

Listeners: 0 out of 1343 total

Leesburg Tower: 119.350

KLFI Del/Gnd/Twr (Archives)
Hampton, Virginia, United States

Feed Status: UP
Listen in your browser - HTML5 player(in browser, HTML5)
Click here to listen with your own player(launches your MP3 player)

KLFI 051756Z AUTO 30003KT 10SM CLR 32/23 A3004 RMK AO2 SLP179 T03170227 10322 20264 57008 $

KLFI Airport Info (Airnav.com)

KLFI Flight Activity (Flightaware)

Listeners: 1 out of 1343 total

Langley Clearance Delivery: 257.625
Langley Ground: 275.800
Langley Tower: 253.500
Langley Tower: 236.600

KLGB Clearance Delivery (Archives)
Long Beach, California, United States

Feed Status: UP
Listen in your browser - HTML5 player(in browser, HTML5)
Click here to listen with your own player(launches your MP3 player)

KLGB 051853Z 20004KT 10SM BKN025 22/15 A2996 RMK AO2 SLP145 T02220150

KLGB Airport Info (Airnav.com)

KLGB Flight Activity (Flightaware)

Listeners: 2 out of 1343 total

Long Beach Clearance Delivery: 118.150

KLGB Ground (Archives)
Long Beach, California, United States

Feed Status: UP
Listen in your browser - HTML5 player(in browser, HTML5)
Click here to listen with your own player(launches your MP3 player)

KLGB 051853Z 20004KT 10SM BKN025 22/15 A2996 RMK AO2 SLP145 T02220150

KLGB Airport Info (Airnav.com)

KLGB Flight Activity (Flightaware)

Listeners: 1 out of 1343 total

Long Beach Ground: 133.000

KLGB Tower (Archives)
Long Beach, California, United States

Feed Status: UP
Listen in your browser - HTML5 player(in browser, HTML5)
Click here to listen with your own player(launches your MP3 player)

KLGB 051853Z 20004KT 10SM BKN025 22/15 A2996 RMK AO2 SLP145 T02220150

KLGB Airport Info (Airnav.com)

KLGB Flight Activity (Flightaware)

Listeners: 2 out of 1343 total

Long Beach Tower: 119.400

KCTJ/KLGC CTAF
LaGrange, Georgia, United States

Feed Status: DOWN
Offline since: 2020-08-05 11:45:39 UTC

KCCO 051835Z AUTO 13007KT 10SM SCT049 BKN055 BKN100 32/21 A3003 RMK AO2 T03160210

KCCO Airport Info (Airnav.com)

KCTJ/KLGC CTAF: 122.975

KLGC CTAF (Air Race Classic)
LaGrange, Georgia, United States

Feed Status: DOWN
Offline since: 2020-04-29 17:54:05 UTC

LaGrange CTAF: 122.975

KLHZ CTAF (Archives)
Louisburg, North Carolina, United States

Feed Status: UP
Listen in your browser - HTML5 player(in browser, HTML5)
Click here to listen with your own player(launches your MP3 player)

KLHZ 051855Z AUTO 17008KT 140V200 10SM CLR 30/23 A3008 RMK AO2

KLHZ Airport Info (Airnav.com)

KLHZ Flight Activity (Flightaware)

Listeners: 0 out of 1343 total

Louisburg CTAF/UNICOM: 123.000
Louisburg GCO: 135.075
Raleigh Approach (East): 125.300

KFTG/KEIK/KBDU/KLMO/Misc (Archives)
Longmont, Colorado, United States

Feed Status: UP
Listen in your browser - HTML5 player(in browser, HTML5)
Click here to listen with your own player(launches your MP3 player)

KDEN 051853Z 13013G21KT 10SM FEW080 FEW120 SCT220 33/10 A3007 RMK AO2 SLP090 T03280100

KDEN Airport Info (Airnav.com)

KDEN Flight Activity (Flightaware)

Listeners: 0 out of 1343 total

Air-to-Air Fixed Wing: 122.750
Air-to-Air Informal: 123.450
Boulder CTAF: 122.725
Erie CTAF: 123.000
Front Range Tower: 120.200
KBKF Tower: 121.000
Longmont CTAF: 122.975
MULTICOM: 122.900
UNICOM: 122.950

KLMO CTAF (Archives)
Longmont, Colorado, United States

Feed Status: UP
Listen in your browser - HTML5 player(in browser, HTML5)
Click here to listen with your own player(launches your MP3 player)

KLMO 051855Z AUTO 03005KT 10SM CLR 29/14 A3009 RMK AO2 T02860143

KLMO Airport Info (Airnav.com)

KLMO Flight Activity (Flightaware)

Listeners: 0 out of 1343 total

Fort Collins CTAF: 122.700
Longmont CTAF: 122.975

KLNS Ground/Tower (Archives)
Lancaster, Pennsylvania, United States

Feed Status: UP
Listen in your browser - HTML5 player(in browser, HTML5)
Click here to listen with your own player(launches your MP3 player)

KLNS 051853Z 31007KT 10SM CLR 29/16 A3006 RMK AO2 SLPNO T02890156

KLNS Airport Info (Airnav.com)

KLNS Flight Activity (Flightaware)

Listeners: 5 out of 1343 total

Lancaster Ground: 121.800
Lancaster Tower: 120.900

KLNS Tower (Archives)
Lancaster, Pennsylvania, United States

Feed Status: UP
Listen in your browser - HTML5 player(in browser, HTML5)
Click here to listen with your own player(launches your MP3 player)

KLNS 051853Z 31007KT 10SM CLR 29/16 A3006 RMK AO2 SLPNO T02890156

KLNS Airport Info (Airnav.com)

KLNS Flight Activity (Flightaware)

Listeners: 0 out of 1343 total

Lancaster Tower: 120.900

KLOU ATIS (Archives)
Louisville, Kentucky, United States

Feed Status: UP
Listen in your browser - HTML5 player(in browser, HTML5)
Click here to listen with your own player(launches your MP3 player)

KLOU 051853Z 04004KT 10SM SCT055 26/13 A3011 RMK AO2 SLP191 T02560133

KLOU Airport Info (Airnav.com)

KLOU Flight Activity (Flightaware)

Listeners: 0 out of 1343 total

Bowman ATIS: 120.025

KLOU Del/Gnd (Archives)
Louisville, Kentucky, United States

Feed Status: UP
Listen in your browser - HTML5 player(in browser, HTML5)
Click here to listen with your own player(launches your MP3 player)

KLOU 051853Z 04004KT 10SM SCT055 26/13 A3011 RMK AO2 SLP191 T02560133

KLOU Airport Info (Airnav.com)

KLOU Flight Activity (Flightaware)

Listeners: 0 out of 1343 total

Bowman Clearance Delivery: 118.900
Bowman Ground: 121.800

KLOU Del/Gnd/Twr (Archives)
Louisville, Kentucky, United States

Feed Status: UP
Listen in your browser - HTML5 player(in browser, HTML5)
Click here to listen with your own player(launches your MP3 player)

KLOU 051853Z 04004KT 10SM SCT055 26/13 A3011 RMK AO2 SLP191 T02560133

KLOU Airport Info (Airnav.com)

KLOU Flight Activity (Flightaware)

Listeners: 1 out of 1343 total

Bowman Clearance Delivery: 118.900
Bowman Ground: 121.800
Bowman Tower: 119.500

KLOU Tower (Archives)
Louisville, Kentucky, United States

Feed Status: UP
Listen in your browser - HTML5 player(in browser, HTML5)
Click here to listen with your own player(launches your MP3 player)

KLOU 051853Z 04004KT 10SM SCT055 26/13 A3011 RMK AO2 SLP191 T02560133

KLOU Airport Info (Airnav.com)

KLOU Flight Activity (Flightaware)

Listeners: 0 out of 1343 total

Bowman Tower: 119.500

KLRD Ground/Tower (Archives)
Laredo, Texas, United States

Feed Status: UP
Listen in your browser - HTML5 player(in browser, HTML5)
Click here to listen with your own player(launches your MP3 player)

KLRD 051856Z 13010KT 10SM BKN055 35/21 A2997 RMK AO2 SLP145 T03500211 PNO $

KLRD Airport Info (Airnav.com)

KLRD Flight Activity (Flightaware)

Listeners: 0 out of 1343 total

Laredo Ground: 121.800
Laredo Tower: 120.100
Laredo UNICOM: 122.950

KLUK Twr/App/Dep (Archives)
Cincinnati, Ohio, United States

Feed Status: UP
Listen in your browser - HTML5 player(in browser, HTML5)
Click here to listen with your own player(launches your MP3 player)

KLUK 051853Z 08004KT 10SM SCT048 24/13 A3012 RMK AO2 SLP198 T02440128

KLUK Airport Info (Airnav.com)

KLUK Flight Activity (Flightaware)

Listeners: 0 out of 1343 total

Cincinnati Approach: 121.000
Cincinnati Departure: 128.700
Lunken Tower: 118.700

KLWM Ground/Tower (Archives)
Lawrence, Massachusetts, United States

Feed Status: UP
Listen in your browser - HTML5 player(in browser, HTML5)
Click here to listen with your own player(launches your MP3 player)

KLWM 051854Z 21008G14KT 170V240 10SM SCT060 BKN075 30/17 A2996 RMK AO2 SLP142 T03000172

KLWM Airport Info (Airnav.com)

KLWM Flight Activity (Flightaware)

Listeners: 0 out of 1343 total

Eagle East Jet Service: 122.850
Emergency/Guard: 121.500
Four Star Aviation Jet Center: 123.300
Lawrence Clearance (after hours, Boston Approach): 126.150
Lawrence Ground: 124.300
Lawrence Tower: 119.250
Northeast Executive Jet: 130.600

KLXT CTAF (Air Race Classic)
Lee's Summit, Missouri, United States

Feed Status: DOWN
Offline since: 2019-06-27 20:24:02 UTC

Lee's Summit CTAF: 122.800

KLXT/3GV CTAF (Archives)
Lee's Summit, Missouri, United States

Feed Status: UP
Listen in your browser - HTML5 player(in browser, HTML5)
Click here to listen with your own player(launches your MP3 player)

KOJC 051853Z 14008KT 10SM CLR 24/14 A3008 RMK AO2 SLP179 T02390144

KOJC Airport Info (Airnav.com)

KOJC Flight Activity (Flightaware)

Listeners: 0 out of 1343 total

Lee's Summit/Grain Valley CTAF: 122.800

KLXT/KMKC Area Helicopters (Archives)
Lee's Summit, Missouri, United States

Feed Status: UP
Listen in your browser - HTML5 player(in browser, HTML5)
Click here to listen with your own player(launches your MP3 player)

KOJC 051853Z 14008KT 10SM CLR 24/14 A3008 RMK AO2 SLP179 T02390144

KOJC Airport Info (Airnav.com)

KOJC Flight Activity (Flightaware)

Listeners: 0 out of 1343 total

Helicopter Air to Air: 123.025

KLXV CTAF
Leadville, Colorado, United States

Feed Status: DOWN
Offline since: 2020-02-11 19:07:39 UTC

KLXV 051853Z AUTO 10SM CLR 23/M06 A3043 RMK AO2 SLP117 T02281061

KLXV Airport Info (Airnav.com)

Leadville CTAF: 122.800

KLYH Ground
Lynchburg, Virginia, United States

Feed Status: DOWN
Offline since: 2020-07-30 04:43:21 UTC

KLYH 051854Z 20004KT 10SM CLR 31/19 A3007 RMK AO2 SLP170 T03060189

KLYH Airport Info (Airnav.com)

Lynchburg Ground: 121.900

KLYH Tower
Lynchburg, Virginia, United States

Feed Status: DOWN
Offline since: 2020-07-30 04:43:39 UTC

KLYH 051854Z 20004KT 10SM CLR 31/19 A3007 RMK AO2 SLP170 T03060189

KLYH Airport Info (Airnav.com)

Lynchburg Tower: 127.650

KLZU Tower (Archives)
Lawrenceville, Georgia, United States

Feed Status: UP
Listen in your browser - HTML5 player(in browser, HTML5)
Click here to listen with your own player(launches your MP3 player)

KLZU 051856Z 18005KT 10SM SCT060 SCT080 31/21 A3003 RMK AO2 LTG DSNT SW SLP167 T03060206

KLZU Airport Info (Airnav.com)

KLZU Flight Activity (Flightaware)

Listeners: 2 out of 1343 total

Gwinnett Tower: 124.100

KMAN/KEUL CTAF (Archives)
Nampa, Idaho, United States

Feed Status: UP
Listen in your browser - HTML5 player(in browser, HTML5)
Click here to listen with your own player(launches your MP3 player)

KMAN 051855Z AUTO 17005KT 10SM CLR 31/08 A2985 RMK A01

KMAN Airport Info (Airnav.com)

KMAN Flight Activity (Flightaware)

Listeners: 0 out of 1343 total

Nampa/Caldwell CTAF/UNICOM: 122.700

KMCC CTAF/Del/Gnd/Twr (Archives)
Sacramento, California, United States

Feed Status: UP
Listen in your browser - HTML5 player(in browser, HTML5)
Click here to listen with your own player(launches your MP3 player)

KMCC 051855Z AUTO 17012KT 10SM CLR 23/13 A2990 RMK AO2

KMCC Airport Info (Airnav.com)

KMCC Flight Activity (Flightaware)

Listeners: 1 out of 1343 total

McClellan Clearance Delivery: 119.825
McClellan CTAF: 122.975
McClellan Ground (temp): 118.650
McClellan Tower (temp): 119.300

KMCO App (Disney/OVIDO Sectors) #1
Orlando, Florida, United States

Feed Status: DOWN
Offline since: 2020-05-21 12:29:40 UTC

KMCO 051844Z 18024G32KT 1/2SM R35L/3000V6000FT -TSRA FG SCT010 BKN016CB OVC035 23/22 A3009 RMK AO2 PK WND 17032/1844 WSHFT 1820 LTG DSNT ALQDS RAB35 TSB1754E09B10 CONS LTGICCG OHD ALQDS TS OHD ALQDS MOV N P0014 T02330222

KMCO Airport Info (Airnav.com)

Orlando Approach (Disney Satellite Sector): 119.400
Orlando Approach (OVIDO Satellite Sector): 119.775

KMCO App (North Satellite) (Archives)
Orlando, Florida, United States

Feed Status: UP
Listen in your browser - HTML5 player(in browser, HTML5)
Click here to listen with your own player(launches your MP3 player)

KORL 051858Z 18015G27KT 1/4SM +TSRA SCT010 BKN023 OVC039 25/22 A3009 RMK AO2 LTG DSNT ALQDS P0029 T02500222 RVRNO

KORL Airport Info (Airnav.com)

KORL Flight Activity (Flightaware)

Listeners: 1 out of 1343 total

Orlando Approach (North Satellite): 121.100
Orlando Approach (North Satellite): 135.300

KMDD ASOS (Archives)
Midland, Texas, United States

Feed Status: UP
Listen in your browser - HTML5 player(in browser, HTML5)
Click here to listen with your own player(launches your MP3 player)

KMAF 051853Z 13009G16KT 10SM CLR 37/08 A3001 RMK AO2 SLP106 T03670083

KMAF Airport Info (Airnav.com)

KMAF Flight Activity (Flightaware)

Listeners: 0 out of 1343 total

Midland Airpark ASOS: 118.125

KMDD Clearance Delivery (Archives)
Midland, Texas, United States

Feed Status: UP
Listen in your browser - HTML5 player(in browser, HTML5)
Click here to listen with your own player(launches your MP3 player)

KMAF 051853Z 13009G16KT 10SM CLR 37/08 A3001 RMK AO2 SLP106 T03670083

KMAF Airport Info (Airnav.com)

KMAF Flight Activity (Flightaware)

Listeners: 0 out of 1343 total

Midland Airpark Clearance Delivery: 121.800

KMDD CTAF (Archives)
Midland, Texas, United States

Feed Status: UP
Listen in your browser - HTML5 player(in browser, HTML5)
Click here to listen with your own player(launches your MP3 player)

KMAF 051853Z 13009G16KT 10SM CLR 37/08 A3001 RMK AO2 SLP106 T03670083

KMAF Airport Info (Airnav.com)

KMAF Flight Activity (Flightaware)

Listeners: 0 out of 1343 total

Midland Airpark CTAF: 122.700

KMDH Ground/Tower
Carbondale/Murphysboro, Illinois, United States

Feed Status: DOWN
Offline since: 2020-07-20 00:13:05 UTC

KMDH 051852Z 00000KT 10SM BKN055 24/12 A3012 RMK AO2 SLP195 T02440122

KMDH Airport Info (Airnav.com)

Carbondale Ground: 121.800
Carbondale Tower: 126.250
Carbondale Tower: 125.350

KMDQ CTAF
Huntsville, Alabama, United States

Feed Status: DOWN
Offline since: 2020-04-06 12:25:06 UTC

Huntsville Executive CTAF: 123.000

KMDT App/Dep (East) (Archives)
Harrisburg, Pennsylvania, United States

Feed Status: UP
Listen in your browser - HTML5 player(in browser, HTML5)
Click here to listen with your own player(launches your MP3 player)

KMDT 051856Z 28010G17KT 10SM FEW060 29/14 A3004 RMK AO2 SLP172 T02940139

KMDT Airport Info (Airnav.com)

KMDT Flight Activity (Flightaware)

Listeners: 0 out of 1343 total

Harrisburg App/Dep (East): 126.450

KMDT App/Dep (East/West) (Archives)
Harrisburg, Pennsylvania, United States

Feed Status: UP
Listen in your browser - HTML5 player(in browser, HTML5)
Click here to listen with your own player(launches your MP3 player)

KMDT 051856Z 28010G17KT 10SM FEW060 29/14 A3004 RMK AO2 SLP172 T02940139

KMDT Airport Info (Airnav.com)

KMDT Flight Activity (Flightaware)

Listeners: 0 out of 1343 total

Harrisburg App/Dep (East): 126.450
Harrisburg App/Dep (North): 118.250
Harrisburg App/Dep (West): 124.100

KMDT App/Dep (North) (Archives)
Harrisburg, Pennsylvania, United States

Feed Status: UP
Listen in your browser - HTML5 player(in browser, HTML5)
Click here to listen with your own player(launches your MP3 player)

KMDT 051856Z 28010G17KT 10SM FEW060 29/14 A3004 RMK AO2 SLP172 T02940139

KMDT Airport Info (Airnav.com)

KMDT Flight Activity (Flightaware)

Listeners: 0 out of 1343 total

Harrisburg App/Dep (North): 118.250

KMDT App/Dep (West) (Archives)
Harrisburg, Pennsylvania, United States

Feed Status: UP
Listen in your browser - HTML5 player(in browser, HTML5)
Click here to listen with your own player(launches your MP3 player)

KMDT 051856Z 28010G17KT 10SM FEW060 29/14 A3004 RMK AO2 SLP172 T02940139

KMDT Airport Info (Airnav.com)

KMDT Flight Activity (Flightaware)

Listeners: 0 out of 1343 total

Harrisburg App/Dep (West): 124.100

KMDT ATIS (Archives)
Harrisburg, Pennsylvania, United States

Feed Status: UP
Listen in your browser - HTML5 player(in browser, HTML5)
Click here to listen with your own player(launches your MP3 player)

KMDT 051856Z 28010G17KT 10SM FEW060 29/14 A3004 RMK AO2 SLP172 T02940139

KMDT Airport Info (Airnav.com)

KMDT Flight Activity (Flightaware)

Listeners: 0 out of 1343 total

Harrisburg ATIS: 118.800

KMDT Emergency/Ground (Archives)
Harrisburg, Pennsylvania, United States

Feed Status: UP
Listen in your browser - HTML5 player(in browser, HTML5)
Click here to listen with your own player(launches your MP3 player)

KMDT 051856Z 28010G17KT 10SM FEW060 29/14 A3004 RMK AO2 SLP172 T02940139

KMDT Airport Info (Airnav.com)

KMDT Flight Activity (Flightaware)

Listeners: 0 out of 1343 total

Emergency/Guard: 121.500

KMDT Ground (Archives)
Harrisburg, Pennsylvania, United States

Feed Status: UP
Listen in your browser - HTML5 player(in browser, HTML5)
Click here to listen with your own player(launches your MP3 player)

KMDT 051856Z 28010G17KT 10SM FEW060 29/14 A3004 RMK AO2 SLP172 T02940139

KMDT Airport Info (Airnav.com)

KMDT Flight Activity (Flightaware)

Listeners: 0 out of 1343 total

Harrisburg Ground: 121.700

KMDT Tower (Archives)
Harrisburg, Pennsylvania, United States

Feed Status: UP
Listen in your browser - HTML5 player(in browser, HTML5)
Click here to listen with your own player(launches your MP3 player)

KMDT 051856Z 28010G17KT 10SM FEW060 29/14 A3004 RMK AO2 SLP172 T02940139

KMDT Airport Info (Airnav.com)

KMDT Flight Activity (Flightaware)

Listeners: 0 out of 1343 total

Harrisburg Tower: 124.800

KMEV CTAF/Unicom (Archives)
Minden, Nevada, United States

Feed Status: UP
Listen in your browser - HTML5 player(in browser, HTML5)
Click here to listen with your own player(launches your MP3 player)

KMEV 051855Z AUTO VRB04G12KT 10SM CLR 30/M00 A3001 RMK AO2

KMEV Airport Info (Airnav.com)

KMEV Flight Activity (Flightaware)

Listeners: 3 out of 1343 total

Minden CTAF/UNICOM: 123.050

KMFD ATIS (Archives)
Mansfield, Ohio, United States

Feed Status: UP
Listen in your browser - HTML5 player(in browser, HTML5)
Click here to listen with your own player(launches your MP3 player)

KMFD 051852Z 22007KT 10SM FEW048 22/11 A3014 RMK AO2 SLP203 T02220106

KMFD Airport Info (Airnav.com)

KMFD Flight Activity (Flightaware)

Listeners: 0 out of 1343 total

Mansfield ATIS: 125.300

KMFE App/Dep (Archives)
Mc Allen, Texas, United States

Feed Status: UP
Listen in your browser - HTML5 player(in browser, HTML5)
Click here to listen with your own player(launches your MP3 player)

KMFE 051853Z 13011KT 10SM CLR 34/23 A2997 RMK AO2 SLP145 T03440228

KMFE Airport Info (Airnav.com)

KMFE Flight Activity (Flightaware)

Listeners: 0 out of 1343 total

Valley Approach: 121.000
Valley Departure: 120.700

KMFE Gnd/Twr (Archives)
Mc Allen, Texas, United States

Feed Status: UP
Listen in your browser - HTML5 player(in browser, HTML5)
Click here to listen with your own player(launches your MP3 player)

KMFE 051853Z 13011KT 10SM CLR 34/23 A2997 RMK AO2 SLP145 T03440228

KMFE Airport Info (Airnav.com)

KMFE Flight Activity (Flightaware)

Listeners: 0 out of 1343 total

Mc Allen Ground: 121.800
Mc Allen Tower: 118.500
San Angelo Radio: 122.200

KMFR App/Dep (Archives)
Medford, Oregon, United States

Feed Status: UP
Listen in your browser - HTML5 player(in browser, HTML5)
Click here to listen with your own player(launches your MP3 player)

KMFR 051853Z 32006KT 10SM CLR 27/14 A2991 RMK AO2 SLP115 T02670139

KMFR Airport Info (Airnav.com)

KMFR Flight Activity (Flightaware)

Listeners: 0 out of 1343 total

Cascade Approach/Departure: 124.300

KMFR Emergency/Guard (Archives)
Medford, Oregon, United States

Feed Status: UP
Listen in your browser - HTML5 player(in browser, HTML5)
Click here to listen with your own player(launches your MP3 player)

KMFR 051853Z 32006KT 10SM CLR 27/14 A2991 RMK AO2 SLP115 T02670139

KMFR Airport Info (Airnav.com)

KMFR Flight Activity (Flightaware)

Listeners: 0 out of 1343 total

Emergency/Guard: 121.500

KMFR Ground (Archives)
Medford, Oregon, United States

Feed Status: UP
Listen in your browser - HTML5 player(in browser, HTML5)
Click here to listen with your own player(launches your MP3 player)

KMFR 051853Z 32006KT 10SM CLR 27/14 A2991 RMK AO2 SLP115 T02670139

KMFR Airport Info (Airnav.com)

KMFR Flight Activity (Flightaware)

Listeners: 0 out of 1343 total

Medford Ground: 121.800

KMFR Ground/Tower (Archives)
Medford, Oregon, United States

Feed Status: UP
Listen in your browser - HTML5 player(in browser, HTML5)
Click here to listen with your own player(launches your MP3 player)

KMFR 051853Z 32006KT 10SM CLR 27/14 A2991 RMK AO2 SLP115 T02670139

KMFR Airport Info (Airnav.com)

KMFR Flight Activity (Flightaware)

Listeners: 1 out of 1343 total

Medford Ground: 121.800
Medford Tower: 119.400

Atlanta Approach (N. Sat) (Archives)
Marietta, Georgia, United States

Feed Status: UP
Listen in your browser - HTML5 player(in browser, HTML5)
Click here to listen with your own player(launches your MP3 player)

KRYY 051850Z 18006KT 10SM SCT050 BKN110 30/20 A3003 RMK AO2 SLP890 T03000200 PNO $

KRYY Airport Info (Airnav.com)

KRYY Flight Activity (Flightaware)

Listeners: 1 out of 1343 total

Atlanta Approach (North Satellite): 121.000

KMGE Ground (Archives)
Marietta, Georgia, United States

Feed Status: UP
Listen in your browser - HTML5 player(in browser, HTML5)
Click here to listen with your own player(launches your MP3 player)

KRYY 051850Z 18006KT 10SM SCT050 BKN110 30/20 A3003 RMK AO2 SLP890 T03000200 PNO $

KRYY Airport Info (Airnav.com)

KRYY Flight Activity (Flightaware)

Listeners: 0 out of 1343 total

Dobbins Ground: 125.300

KMGE Tower (Archives)
Marietta, Georgia, United States

Feed Status: UP
Listen in your browser - HTML5 player(in browser, HTML5)
Click here to listen with your own player(launches your MP3 player)

KRYY 051850Z 18006KT 10SM SCT050 BKN110 30/20 A3003 RMK AO2 SLP890 T03000200 PNO $

KRYY Airport Info (Airnav.com)

KRYY Flight Activity (Flightaware)

Listeners: 0 out of 1343 total

Dobbins Tower: 120.750

KMGW Ground/Tower (Archives)
Morgantown, West Virginia, United States

Feed Status: UP
Listen in your browser - HTML5 player(in browser, HTML5)
Click here to listen with your own player(launches your MP3 player)

KMGW 051853Z 00000KT 10SM FEW050 26/12 A3013 RMK AO2 SLP193 T02610122

KMGW Airport Info (Airnav.com)

KMGW Flight Activity (Flightaware)

Listeners: 0 out of 1343 total

Morgantown Ground: 121.700
Morgantown Tower: 125.100

KMGY Air to Air (Archives)
Dayton, Ohio, United States

Feed Status: UP
Listen in your browser - HTML5 player(in browser, HTML5)
Click here to listen with your own player(launches your MP3 player)

KMGY 051853Z AUTO 30005KT 10SM CLR 23/11 A3013 RMK AO2 SLP198 T02280106 TSNO

KMGY Airport Info (Airnav.com)

KMGY Flight Activity (Flightaware)

Listeners: 0 out of 1343 total

Air to Air: 123.450

KMGY App/Dep (Archives)
Dayton, Ohio, United States

Feed Status: UP
Listen in your browser - HTML5 player(in browser, HTML5)
Click here to listen with your own player(launches your MP3 player)

KMGY 051853Z AUTO 30005KT 10SM CLR 23/11 A3013 RMK AO2 SLP198 T02280106 TSNO

KMGY Airport Info (Airnav.com)

KMGY Flight Activity (Flightaware)

Listeners: 0 out of 1343 total

Dayton Approach/Departure: 118.850

KMGY AWOS (Archives)
Dayton, Ohio, United States

Feed Status: UP
Listen in your browser - HTML5 player(in browser, HTML5)
Click here to listen with your own player(launches your MP3 player)

KMGY 051853Z AUTO 30005KT 10SM CLR 23/11 A3013 RMK AO2 SLP198 T02280106 TSNO

KMGY Airport Info (Airnav.com)

KMGY Flight Activity (Flightaware)

Listeners: 0 out of 1343 total

Dayton-Wright Brothers AWOS: 118.375

KMGY Clearance Delivery (Archives)
Dayton, Ohio, United States

Feed Status: UP
Listen in your browser - HTML5 player(in browser, HTML5)
Click here to listen with your own player(launches your MP3 player)

KMGY 051853Z AUTO 30005KT 10SM CLR 23/11 A3013 RMK AO2 SLP198 T02280106 TSNO

KMGY Airport Info (Airnav.com)

KMGY Flight Activity (Flightaware)

Listeners: 0 out of 1343 total

Dayton Clearance Delivery (KMGY): 119.400

KMGY CTAF (Archives)
Dayton, Ohio, United States

Feed Status: UP
Listen in your browser - HTML5 player(in browser, HTML5)
Click here to listen with your own player(launches your MP3 player)

KMGY 051853Z AUTO 30005KT 10SM CLR 23/11 A3013 RMK AO2 SLP198 T02280106 TSNO

KMGY Airport Info (Airnav.com)

KMGY Flight Activity (Flightaware)

Listeners: 0 out of 1343 total

Dayton-Wright Brothers CTAF: 122.800

KMGY Emergency/Guard (Archives)
Dayton, Ohio, United States

Feed Status: UP
Listen in your browser - HTML5 player(in browser, HTML5)
Click here to listen with your own player(launches your MP3 player)

KMGY 051853Z AUTO 30005KT 10SM CLR 23/11 A3013 RMK AO2 SLP198 T02280106 TSNO

KMGY Airport Info (Airnav.com)

KMGY Flight Activity (Flightaware)

Listeners: 0 out of 1343 total

Emergency/Guard: 121.500

KMHR Ground/Tower (Archives)
Sacramento, California, United States

Feed Status: UP
Listen in your browser - HTML5 player(in browser, HTML5)
Click here to listen with your own player(launches your MP3 player)

KMHR 051745Z 23008G14KT 10SM SKC 21/13 A2991

KMHR Airport Info (Airnav.com)

KMHR Flight Activity (Flightaware)

Listeners: 7 out of 1343 total

Mather Ground: 121.850
Mather Tower: 120.650

NORCAL App (EXPO/127.4) (Archives)
Sacramento, California, United States

Feed Status: UP
Listen in your browser - HTML5 player(in browser, HTML5)
Click here to listen with your own player(launches your MP3 player)

KMHR 051745Z 23008G14KT 10SM SKC 21/13 A2991

KMHR Airport Info (Airnav.com)

KMHR Flight Activity (Flightaware)

Listeners: 3 out of 1343 total

NORCAL Approach (EXPO Sector): 127.400

KMIC Tower/CTAF (Archives)
Minneapolis, Minnesota, United States

Feed Status: UP
Listen in your browser - HTML5 player(in browser, HTML5)
Click here to listen with your own player(launches your MP3 player)

KMIC 051853Z 21009KT 10SM FEW047 SCT055 25/13 A3003 RMK AO2 SLP166 T02500128

KMIC Airport Info (Airnav.com)

KMIC Flight Activity (Flightaware)

Listeners: 0 out of 1343 total

Crystal Tower/CTAF: 120.700

KBLM/N12/3N6/KMJX
Toms River, New Jersey, United States

Feed Status: DOWN
Offline since: 2020-08-04 22:30:22 UTC

KBLM 041656Z AUTO 15027G37KT 5SM HZ SCT013 OVC020 23/ A2954 RMK AO2 PK WND 13046/1558 RAE45 PRESFR SLP002 P0005 T0228

KBLM Airport Info (Airnav.com)

3N6 Old Bridge CTAF: 123.075
Emergency/Guard: 121.500
Monmouth Clearance: 120.950
Monmouth Clearance: 126.150
Monmouth CTAF: 123.000
N12 Lakewood CTAF: 122.800
Ocean County KMJX CTAF: 122.700

KMJX CTAF
Toms River, New Jersey, United States

Feed Status: DOWN
Offline since: 2020-08-04 16:44:39 UTC

KMJX 051856Z AUTO 28007KT 10SM FEW085 32/18 A3003 RMK AO2 SLP170 T03220178

KMJX Airport Info (Airnav.com)

Toms River CTAF: 122.700

KLXT/KMKC Area Helicopters (Archives)
Kansas City, Missouri, United States

Feed Status: UP
Listen in your browser - HTML5 player(in browser, HTML5)
Click here to listen with your own player(launches your MP3 player)

KOJC 051853Z 14008KT 10SM CLR 24/14 A3008 RMK AO2 SLP179 T02390144

KOJC Airport Info (Airnav.com)

KOJC Flight Activity (Flightaware)

Listeners: 0 out of 1343 total

Helicopter Air to Air: 123.025

KMKC ATIS (Archives)
Kansas City, Missouri, United States

Feed Status: UP
Listen in your browser - HTML5 player(in browser, HTML5)
Click here to listen with your own player(launches your MP3 player)

KMKC 051854Z 13009KT 10SM FEW085 26/12 A3007 RMK AO2 SLP177 T02560122

KMKC Airport Info (Airnav.com)

KMKC Flight Activity (Flightaware)

Listeners: 0 out of 1343 total

Downtown ATIS: 120.750

KMKC Ground (Archives)
Kansas City, Missouri, United States

Feed Status: UP
Listen in your browser - HTML5 player(in browser, HTML5)
Click here to listen with your own player(launches your MP3 player)

KMKC 051854Z 13009KT 10SM FEW085 26/12 A3007 RMK AO2 SLP177 T02560122

KMKC Airport Info (Airnav.com)

KMKC Flight Activity (Flightaware)

Listeners: 0 out of 1343 total

Downtown Ground: 121.900

KMKC Tower (Archives)
Kansas City, Missouri, United States

Feed Status: UP
Listen in your browser - HTML5 player(in browser, HTML5)
Click here to listen with your own player(launches your MP3 player)

KMKC 051854Z 13009KT 10SM FEW085 26/12 A3007 RMK AO2 SLP177 T02560122

KMKC Airport Info (Airnav.com)

KMKC Flight Activity (Flightaware)

Listeners: 0 out of 1343 total

Downtown Tower: 133.300

KMKL Tower (Air Race Classic Start)
Jackson, Tennessee, United States

Feed Status: DOWN
Offline since: 2019-06-20 14:39:02 UTC

Jackson Tower: 127.150

KMLB Twr/App (Archives)
Melbourne, Florida, United States

Feed Status: UP
Listen in your browser - HTML5 player(in browser, HTML5)
Click here to listen with your own player(launches your MP3 player)

KMLB 051853Z 34003KT 10SM SCT040 BKN060 28/26 A3004 RMK AO2 LTG DSNT N AND W SLP172 T02830261

KMLB Airport Info (Airnav.com)

KMLB Flight Activity (Flightaware)

Listeners: 4 out of 1343 total

Melbourne Tower: 118.200
Orlando Approach: 132.650

KMMU ATIS (Archives)
Morristown, New Jersey, United States

Feed Status: UP
Listen in your browser - HTML5 player(in browser, HTML5)
Click here to listen with your own player(launches your MP3 player)

KMMU 051845Z 26010G18KT 10SM SCT060 31/18 A3003

KMMU Airport Info (Airnav.com)

KMMU Flight Activity (Flightaware)

Listeners: 0 out of 1343 total

Morristown ATIS: 124.250

KMMU Clearance Delivery (Archives)
Morristown, New Jersey, United States

Feed Status: UP
Listen in your browser - HTML5 player(in browser, HTML5)
Click here to listen with your own player(launches your MP3 player)

KMMU 051845Z 26010G18KT 10SM SCT060 31/18 A3003

KMMU Airport Info (Airnav.com)

KMMU Flight Activity (Flightaware)

Listeners: 0 out of 1343 total

Morristown Clearance Delivery: 128.600

KMMU Ground (Archives)
Morristown, New Jersey, United States

Feed Status: UP
Listen in your browser - HTML5 player(in browser, HTML5)
Click here to listen with your own player(launches your MP3 player)

KMMU 051845Z 26010G18KT 10SM SCT060 31/18 A3003

KMMU Airport Info (Airnav.com)

KMMU Flight Activity (Flightaware)

Listeners: 0 out of 1343 total

Morristown Ground: 134.200

KMMU Tower #1 (Archives)
Morristown, New Jersey, United States

Feed Status: UP
Listen in your browser - HTML5 player(in browser, HTML5)
Click here to listen with your own player(launches your MP3 player)

KMMU 051845Z 26010G18KT 10SM SCT060 31/18 A3003

KMMU Airport Info (Airnav.com)

KMMU Flight Activity (Flightaware)

Listeners: 1 out of 1343 total

Morristown Tower: 118.100

KMMU Tower #2 (Archives)
Morristown, New Jersey, United States

Feed Status: UP
Listen in your browser - HTML5 player(in browser, HTML5)
Click here to listen with your own player(launches your MP3 player)

KMMU 051845Z 26010G18KT 10SM SCT060 31/18 A3003

KMMU Airport Info (Airnav.com)

KMMU Flight Activity (Flightaware)

Listeners: 0 out of 1343 total

Morristown Tower: 118.100

KMMV CTAF
Mc Minnville, Oregon, United States

Feed Status: DOWN
Offline since: 2020-08-04 15:55:39 UTC

KMMV 051853Z AUTO VRB03KT 10SM CLR 24/13 A2995 RMK AO2 SLP139 T02440133

KMMV Airport Info (Airnav.com)

Mc Minnville CTAF: 123.000

KMOD App/Dep 120.95 (Archives)
Modesto, California, United States

Feed Status: UP
Listen in your browser - HTML5 player(in browser, HTML5)
Click here to listen with your own player(launches your MP3 player)

KMOD 051853Z 34009KT 10SM CLR 26/12 A2990 RMK AO2 SLP123 T02560122

KMOD Airport Info (Airnav.com)

KMOD Flight Activity (Flightaware)

Listeners: 0 out of 1343 total

NORCAL Approach: 120.950

KMOD App/Dep 125.1 (Archives)
Modesto, California, United States

Feed Status: UP
Listen in your browser - HTML5 player(in browser, HTML5)
Click here to listen with your own player(launches your MP3 player)

KMOD 051853Z 34009KT 10SM CLR 26/12 A2990 RMK AO2 SLP123 T02560122

KMOD Airport Info (Airnav.com)

KMOD Flight Activity (Flightaware)

Listeners: 0 out of 1343 total

NORCAL Approach: 125.100

KMOD ATIS (Archives)
Modesto, California, United States

Feed Status: UP
Listen in your browser - HTML5 player(in browser, HTML5)
Click here to listen with your own player(launches your MP3 player)

KMOD 051853Z 34009KT 10SM CLR 26/12 A2990 RMK AO2 SLP123 T02560122

KMOD Airport Info (Airnav.com)

KMOD Flight Activity (Flightaware)

Listeners: 0 out of 1343 total

Modesto ATIS: 127.700

KMOD Emergency/Guard (Archives)
Modesto, California, United States

Feed Status: UP
Listen in your browser - HTML5 player(in browser, HTML5)
Click here to listen with your own player(launches your MP3 player)

KMOD 051853Z 34009KT 10SM CLR 26/12 A2990 RMK AO2 SLP123 T02560122

KMOD Airport Info (Airnav.com)

KMOD Flight Activity (Flightaware)

Listeners: 0 out of 1343 total

Emergency/Guard: 121.500

KMOD Ground (Archives)
Modesto, California, United States

Feed Status: UP
Listen in your browser - HTML5 player(in browser, HTML5)
Click here to listen with your own player(launches your MP3 player)

KMOD 051853Z 34009KT 10SM CLR 26/12 A2990 RMK AO2 SLP123 T02560122

KMOD Airport Info (Airnav.com)

KMOD Flight Activity (Flightaware)

Listeners: 0 out of 1343 total

Modesto Ground: 121.700

KMOD Tower (Archives)
Modesto, California, United States

Feed Status: UP
Listen in your browser - HTML5 player(in browser, HTML5)
Click here to listen with your own player(launches your MP3 player)

KMOD 051853Z 34009KT 10SM CLR 26/12 A2990 RMK AO2 SLP123 T02560122

KMOD Airport Info (Airnav.com)

KMOD Flight Activity (Flightaware)

Listeners: 0 out of 1343 total

Modesto Tower: 125.300

KMOD UNICOM (Archives)
Modesto, California, United States

Feed Status: UP
Listen in your browser - HTML5 player(in browser, HTML5)
Click here to listen with your own player(launches your MP3 player)

KMOD 051853Z 34009KT 10SM CLR 26/12 A2990 RMK AO2 SLP123 T02560122

KMOD Airport Info (Airnav.com)

KMOD Flight Activity (Flightaware)

Listeners: 0 out of 1343 total

Modesto UNICOM: 122.950

KMOR AWOS (Archives)
Morristown, Tennessee, United States

Feed Status: UP
Listen in your browser - HTML5 player(in browser, HTML5)
Click here to listen with your own player(launches your MP3 player)

KMOR 051855Z AUTO VRB05KT 10SM CLR 29/19 A3005 RMK A01

KMOR Airport Info (Airnav.com)

KMOR Flight Activity (Flightaware)

Listeners: 0 out of 1343 total

Morristown AWOS: 126.725

KMOR Clearance Delivery (Archives)
Morristown, Tennessee, United States

Feed Status: UP
Listen in your browser - HTML5 player(in browser, HTML5)
Click here to listen with your own player(launches your MP3 player)

KMOR 051855Z AUTO VRB05KT 10SM CLR 29/19 A3005 RMK A01

KMOR Airport Info (Airnav.com)

KMOR Flight Activity (Flightaware)

Listeners: 0 out of 1343 total

Morristown Clearance Delivery (RCO): 132.800

KMOR CTAF (Archives)
Morristown, Tennessee, United States

Feed Status: UP
Listen in your browser - HTML5 player(in browser, HTML5)
Click here to listen with your own player(launches your MP3 player)

KMOR 051855Z AUTO VRB05KT 10SM CLR 29/19 A3005 RMK A01

KMOR Airport Info (Airnav.com)

KMOR Flight Activity (Flightaware)

Listeners: 0 out of 1343 total

Morristown CTAF: 122.800

KMQJ CTAF
Indianapolis, Indiana, United States

Feed Status: DOWN
Offline since: 2020-08-05 18:15:39 UTC

KMQJ 051829Z AUTO 05005KT 10SM BKN050 22/15 A3015 RMK AO1

KMQJ Airport Info (Airnav.com)

Executive CTAF: 122.975

KMQJ Del/App
Indianapolis, Indiana, United States

Feed Status: DOWN
Offline since: 2020-08-05 18:15:39 UTC

KMQJ 051829Z AUTO 05005KT 10SM BKN050 22/15 A3015 RMK AO1

KMQJ Airport Info (Airnav.com)

Executive Clearance Delivery: 119.250
Indianapolis Approach/Departure: 127.150

KMQY AWOS (Archives)
Smyrna, Tennessee, United States

Feed Status: UP
Listen in your browser - HTML5 player(in browser, HTML5)
Click here to listen with your own player(launches your MP3 player)

KMQY 051856Z 35006KT 10SM SCT039 29/19 A3006 RMK AO2 SLP181 T02890194 PNO $

KMQY Airport Info (Airnav.com)

KMQY Flight Activity (Flightaware)

Listeners: 0 out of 1343 total

Smyrna AWOS: 119.125

KMQY Clearance Delivery (Archives)
Smyrna, Tennessee, United States

Feed Status: UP
Listen in your browser - HTML5 player(in browser, HTML5)
Click here to listen with your own player(launches your MP3 player)

KMQY 051856Z 35006KT 10SM SCT039 29/19 A3006 RMK AO2 SLP181 T02890194 PNO $

KMQY Airport Info (Airnav.com)

KMQY Flight Activity (Flightaware)

Listeners: 0 out of 1343 total

Smyrna Clearance Delivery (after Tower closes): 121.700

KMQY Emergency/Guard (Archives)
Smyrna, Tennessee, United States

Feed Status: UP
Listen in your browser - HTML5 player(in browser, HTML5)
Click here to listen with your own player(launches your MP3 player)

KMQY 051856Z 35006KT 10SM SCT039 29/19 A3006 RMK AO2 SLP181 T02890194 PNO $

KMQY Airport Info (Airnav.com)

KMQY Flight Activity (Flightaware)

Listeners: 0 out of 1343 total

Emergency/Guard: 121.500

KMQY Ground (Archives)
Smyrna, Tennessee, United States

Feed Status: UP
Listen in your browser - HTML5 player(in browser, HTML5)
Click here to listen with your own player(launches your MP3 player)

KMQY 051856Z 35006KT 10SM SCT039 29/19 A3006 RMK AO2 SLP181 T02890194 PNO $

KMQY Airport Info (Airnav.com)

KMQY Flight Activity (Flightaware)

Listeners: 0 out of 1343 total

Smyrna Ground: 121.400

KMQY Ground/Tower (Archives)
Smyrna, Tennessee, United States

Feed Status: UP
Listen in your browser - HTML5 player(in browser, HTML5)
Click here to listen with your own player(launches your MP3 player)

KMQY 051856Z 35006KT 10SM SCT039 29/19 A3006 RMK AO2 SLP181 T02890194 PNO $

KMQY Airport Info (Airnav.com)

KMQY Flight Activity (Flightaware)

Listeners: 0 out of 1343 total

Smyrna Ground: 121.400
Smyrna Tower: 233.100
Smyrna Tower: 118.500

KMQY Tower (Archives)
Smyrna, Tennessee, United States

Feed Status: UP
Listen in your browser - HTML5 player(in browser, HTML5)
Click here to listen with your own player(launches your MP3 player)

KMQY 051856Z 35006KT 10SM SCT039 29/19 A3006 RMK AO2 SLP181 T02890194 PNO $

KMQY Airport Info (Airnav.com)

KMQY Flight Activity (Flightaware)

Listeners: 0 out of 1343 total

Smyrna Tower: 118.500
Smyrna Tower: 233.100

KMRB ATIS (Archives)
Martinsburg, West Virginia, United States

Feed Status: UP
Listen in your browser - HTML5 player(in browser, HTML5)
Click here to listen with your own player(launches your MP3 player)

KMRB 051853Z VRB04KT 10SM SCT065 29/16 A3006 RMK AO2 SLP174 T02890156

KMRB Airport Info (Airnav.com)

KMRB Flight Activity (Flightaware)

Listeners: 0 out of 1343 total

Martinsburg ATIS/AWOS: 119.925

KMRB Del/Gnd (Archives)
Martinsburg, West Virginia, United States

Feed Status: UP
Listen in your browser - HTML5 player(in browser, HTML5)
Click here to listen with your own player(launches your MP3 player)

KMRB 051853Z VRB04KT 10SM SCT065 29/16 A3006 RMK AO2 SLP174 T02890156

KMRB Airport Info (Airnav.com)

KMRB Flight Activity (Flightaware)

Listeners: 0 out of 1343 total

Martinsburg Clearance Delivery (after hours via Potomac TRACON): 132.075
Martinsburg Ground: 121.800

KMRB Emergency/Guard (Archives)
Martinsburg, West Virginia, United States

Feed Status: UP
Listen in your browser - HTML5 player(in browser, HTML5)
Click here to listen with your own player(launches your MP3 player)

KMRB 051853Z VRB04KT 10SM SCT065 29/16 A3006 RMK AO2 SLP174 T02890156

KMRB Airport Info (Airnav.com)

KMRB Flight Activity (Flightaware)

Listeners: 0 out of 1343 total

Emergency/Guard: 121.500

KMRB Tower/CTAF (Archives)
Martinsburg, West Virginia, United States

Feed Status: UP
Listen in your browser - HTML5 player(in browser, HTML5)
Click here to listen with your own player(launches your MP3 player)

KMRB 051853Z VRB04KT 10SM SCT065 29/16 A3006 RMK AO2 SLP174 T02890156

KMRB Airport Info (Airnav.com)

KMRB Flight Activity (Flightaware)

Listeners: 0 out of 1343 total

Martinsburg Tower: 124.300

KMRN CTAF (Archives)
Morganton, North Carolina, United States

Feed Status: UP
Listen in your browser - HTML5 player(in browser, HTML5)
Click here to listen with your own player(launches your MP3 player)

KHKY 051853Z 00000KT 10SM SCT050 BKN070 BKN120 28/21 A3006 RMK AO2 SLP155 T02830206

KHKY Airport Info (Airnav.com)

KHKY Flight Activity (Flightaware)

Listeners: 0 out of 1343 total

Foothills CTAF: 122.700

KMSO Gnd/Twr/App/ZLC/ZSE (Archives)
Missoula, Montana, United States

Feed Status: UP
Listen in your browser - HTML5 player(in browser, HTML5)
Click here to listen with your own player(launches your MP3 player)

KMSO 051853Z 05004KT 10SM CLR 28/07 A2993 RMK AO2 SLP112 T02830067

KMSO Airport Info (Airnav.com)

KMSO Flight Activity (Flightaware)

Listeners: 1 out of 1343 total

Emergency/Guard: 121.500
Great Falls Radio Miller Peak RCO: 122.450
Minuteman Jet Center Unicom: 122.950
Missoula Ground/Clearance Delivery: 121.900
Missoula International Airport Operations: 155.820
Missoula International Airport Operations: 154.965
Missoula Tower: 118.400
Northstar Unicom: 123.300
Salt Lake Center: 132.400
Salt Lake City Center: 133.400
Seattle Center (Mullan Pass RCAG): 128.450
Spokane Approach/Departure: 124.900

KMTC App/Dep (Archives)
Mount Clemens, Michigan, United States

Feed Status: UP
Listen in your browser - HTML5 player(in browser, HTML5)
Click here to listen with your own player(launches your MP3 player)

KMTC 051856Z 27008KT 10SM SCT060 22/11 A3010 RMK AO2A SLP196 T02220113

KMTC Airport Info (Airnav.com)

KMTC Flight Activity (Flightaware)

Listeners: 0 out of 1343 total

Selfridge Approach: 119.600
Selfridge Approach: 318.200
Selfridge Approach: 391.900

KMTC Ground/Tower (Archives)
Mount Clemens, Michigan, United States

Feed Status: UP
Listen in your browser - HTML5 player(in browser, HTML5)
Click here to listen with your own player(launches your MP3 player)

KMTC 051856Z 27008KT 10SM SCT060 22/11 A3010 RMK AO2A SLP196 T02220113

KMTC Airport Info (Airnav.com)

KMTC Flight Activity (Flightaware)

Listeners: 0 out of 1343 total

Selfridge Ground: 128.300
Selfridge Ground: 275.800
Selfridge Tower: 120.150
Selfridge Tower: 225.400

KMTJ CTAF/ZDV/Guard (Archives)
Montrose, Colorado, United States

Feed Status: UP
Listen in your browser - HTML5 player(in browser, HTML5)
Click here to listen with your own player(launches your MP3 player)

KMTJ 051853Z AUTO 25009KT 10SM CLR 33/02 A3013 RMK AO2 SLP101 T03280017

KMTJ Airport Info (Airnav.com)

KMTJ Flight Activity (Flightaware)

Listeners: 0 out of 1343 total

Denver Center (Sector 12 Gunnison Low): 125.350
Emergency/Guard: 121.500
Montrose CTAF: 122.800

KMTN Ground/Misc (Archives)
Baltimore, Maryland, United States

Feed Status: UP
Listen in your browser - HTML5 player(in browser, HTML5)
Click here to listen with your own player(launches your MP3 player)

KMTN 051854Z 14005KT 10SM SCT055 29/20 A3006

KMTN Airport Info (Airnav.com)

KMTN Flight Activity (Flightaware)

Listeners: 0 out of 1343 total

Helo Air to Air: 123.025
Martin Ground/Clearance: 121.800
Martin Ground/Clearance: 253.400

KMTN Tower (Archives)
Baltimore, Maryland, United States

Feed Status: UP
Listen in your browser - HTML5 player(in browser, HTML5)
Click here to listen with your own player(launches your MP3 player)

KMTN 051854Z 14005KT 10SM SCT055 29/20 A3006

KMTN Airport Info (Airnav.com)

KMTN Flight Activity (Flightaware)

Listeners: 1 out of 1343 total

Martin Tower: 121.300
Martin Tower: 254.425

KMTW CTAF (Archives)
Manitowoc, Wisconsin, United States

Feed Status: UP
Listen in your browser - HTML5 player(in browser, HTML5)
Click here to listen with your own player(launches your MP3 player)

KMTW 051856Z AUTO 13007KT 10SM CLR 21/14 A3011 RMK AO2 SLP196 T02060139

KMTW Airport Info (Airnav.com)

KMTW Flight Activity (Flightaware)

Listeners: 1 out of 1343 total

Manitowoc CTAF: 122.800

KMVY Cape Approach (Archives)
Vineyard Haven, Massachusetts, United States

Feed Status: UP
Listen in your browser - HTML5 player(in browser, HTML5)
Click here to listen with your own player(launches your MP3 player)

KMVY 051853Z 23009KT 10SM CLR 28/21 A3001 RMK AO2 SLP163 T02830211

KMVY Airport Info (Airnav.com)

KMVY Flight Activity (Flightaware)

Listeners: 0 out of 1343 total

Cape Approach: 119.700
Cape Approach: 133.750
Cape Approach (ACK): 126.100
Cape Approach (split off in summer): 118.200

KMVY Del/Gnd/Twr (Archives)
Vineyard Haven, Massachusetts, United States

Feed Status: UP
Listen in your browser - HTML5 player(in browser, HTML5)
Click here to listen with your own player(launches your MP3 player)

KMVY 051853Z 23009KT 10SM CLR 28/21 A3001 RMK AO2 SLP163 T02830211

KMVY Airport Info (Airnav.com)

KMVY Flight Activity (Flightaware)

Listeners: 0 out of 1343 total

Vineyard Del/Ground: 124.350
Vineyard Tower: 121.400

KMWA Gnd/Twr/CTAF (Archives)
Marion, Illinois, United States

Feed Status: UP
Listen in your browser - HTML5 player(in browser, HTML5)
Click here to listen with your own player(launches your MP3 player)

KMWA 051845Z 01007KT 20SM SCT050 23/12 A3012

KMWA Airport Info (Airnav.com)

KMWA Flight Activity (Flightaware)

Listeners: 0 out of 1343 total

Marion Ground: 121.700
Marion Tower/CTAF: 128.400

KMWC Gnd/Twr/App
Milwaukee, Wisconsin, United States

Feed Status: DOWN
Offline since: 2020-04-20 13:00:40 UTC

KMWC 051845Z 28006G10KT 10SM SCT055 SCT075 24/07 A3011

KMWC Airport Info (Airnav.com)

Milwaukee Approach: 125.350
Timmerman Ground: 121.700
Timmerman Tower: 120.500

KMYF ATIS (Archives)
San Diego, California, United States

Feed Status: UP
Listen in your browser - HTML5 player(in browser, HTML5)
Click here to listen with your own player(launches your MP3 player)

KSAN 051851Z 23008KT 10SM SCT018 SCT250 22/14 A2998 RMK AO2 SLP152 T02220144

KSAN Airport Info (Airnav.com)

KSAN Flight Activity (Flightaware)

Listeners: 0 out of 1343 total

Montgomery ATIS: 126.900

KMYF Clearance Delivery
San Diego, California, United States

Feed Status: DOWN
Offline since: 2020-06-05 10:33:39 UTC

KMYF 051853Z 24009G14KT 10SM CLR 23/14 A2997 RMK AO2 SLP142 T02330144

KMYF Airport Info (Airnav.com)

Montgomery Clearance: 123.725

KMYF Del/Gnd/Twr (Archives)
San Diego, California, United States

Feed Status: UP
Listen in your browser - HTML5 player(in browser, HTML5)
Click here to listen with your own player(launches your MP3 player)

KMYF 051853Z 24009G14KT 10SM CLR 23/14 A2997 RMK AO2 SLP142 T02330144

KMYF Airport Info (Airnav.com)

KMYF Flight Activity (Flightaware)

Listeners: 1 out of 1343 total

Air to Air: 122.750
Montgomery Clearance Delivery: 123.725
Montgomery Ground: 118.225
Montgomery Tower: 125.700
Montgomery Tower/CTAF: 119.200
San Diego VFR Corridor: 126.050

KMYF Ground #1
San Diego, California, United States

Feed Status: DOWN
Offline since: 2020-06-05 10:33:39 UTC

KMYF 051853Z 24009G14KT 10SM CLR 23/14 A2997 RMK AO2 SLP142 T02330144

KMYF Airport Info (Airnav.com)

Montgomery Ground: 118.225

KMYF Ground #2 (Archives)
San Diego, California, United States

Feed Status: UP
Listen in your browser - HTML5 player(in browser, HTML5)
Click here to listen with your own player(launches your MP3 player)

KSAN 051851Z 23008KT 10SM SCT018 SCT250 22/14 A2998 RMK AO2 SLP152 T02220144

KSAN Airport Info (Airnav.com)

KSAN Flight Activity (Flightaware)

Listeners: 0 out of 1343 total

Montgomery Ground: 118.225

KMYF SOCAL Approach
San Diego, California, United States

Feed Status: DOWN
Offline since: 2020-06-05 10:33:39 UTC

KMYF 051853Z 24009G14KT 10SM CLR 23/14 A2997 RMK AO2 SLP142 T02330144

KMYF Airport Info (Airnav.com)

SOCAL Approach (East): 124.350
SOCAL Approach (West): 119.600

KMYF Tower #1
San Diego, California, United States

Feed Status: DOWN
Offline since: 2020-06-05 10:33:39 UTC

KMYF 051853Z 24009G14KT 10SM CLR 23/14 A2997 RMK AO2 SLP142 T02330144

KMYF Airport Info (Airnav.com)

Montgomery Tower: 125.700
Montgomery Tower: 119.200

KMYF Tower (Primary) (Archives)
San Diego, California, United States

Feed Status: UP
Listen in your browser - HTML5 player(in browser, HTML5)
Click here to listen with your own player(launches your MP3 player)

KSAN 051851Z 23008KT 10SM SCT018 SCT250 22/14 A2998 RMK AO2 SLP152 T02220144

KSAN Airport Info (Airnav.com)

KSAN Flight Activity (Flightaware)

Listeners: 0 out of 1343 total

Montgomery Tower (Primary): 119.200

KNEL/KWRI/ZNY
Lakehurst, New Jersey, United States

Feed Status: DOWN
Offline since: 2020-08-04 22:30:22 UTC

KBLM 041656Z AUTO 15027G37KT 5SM HZ SCT013 OVC020 23/ A2954 RMK AO2 PK WND 13046/1558 RAE45 PRESFR SLP002 P0005 T0228

KBLM Airport Info (Airnav.com)

Emergency/Guard: 121.500
Lakehurst Ground: 307.050
Lakehurst Ground: 118.375
Lakehurst Tower: 340.200
Lakehurst Tower: 360.200
Lakehurst Tower: 127.775
McGuire Approach: 126.475
McGuire Approach: 124.150
McGuire Arrival: 120.250
McGuire Tower: 257.800
McGuire Tower: 255.600
McGuire Tower: 118.650
NEL Army Ops: 255.700
New York Center (DIXIE Sector Low): 118.975
New York Center (DIXIE Sector Low): 307.800
New York Center (Kennedy Sector High): 282.300
New York Center (Kennedy Sector High): 125.325
WRI 108 ANG Command Post: 251.200
WRI 108 ANG Command Post: 321.000
WRI Army Ops: 139.300
WRI Army Ops: 265.600
WRI Army Ops: 41.350
WRI Army Ops Command Post: 319.400
WRI Army Ops Command Post (backup): 349.400
WRI Pilot to Dispatch: 134.100
WRI Pilot to Dispatch: 372.200
WRI USMC HMH 772 Ops: 283.000
WRI USMC HMLA 773 Ops: 264.200

KNEW Del/Gnd (Archives)
New Orleans, Louisiana, United States

Feed Status: UP
Listen in your browser - HTML5 player(in browser, HTML5)
Click here to listen with your own player(launches your MP3 player)

KNEW 051853Z 35005KT 10SM CLR 34/22 A3000 RMK AO2 SLP152 T03390217

KNEW Airport Info (Airnav.com)

KNEW Flight Activity (Flightaware)

Listeners: 0 out of 1343 total

Lakefront Clearance Delivery: 127.400
Lakefront Ground: 121.700

KNEW Tower (Archives)
New Orleans, Louisiana, United States

Feed Status: UP
Listen in your browser - HTML5 player(in browser, HTML5)
Click here to listen with your own player(launches your MP3 player)

KNEW 051853Z 35005KT 10SM CLR 34/22 A3000 RMK AO2 SLP152 T03390217

KNEW Airport Info (Airnav.com)

KNEW Flight Activity (Flightaware)

Listeners: 0 out of 1343 total

Lakefront Tower: 119.900

KNGU Del/Gnd/Twr (Archives)
Norfolk, Virginia, United States

Feed Status: UP
Listen in your browser - HTML5 player(in browser, HTML5)
Click here to listen with your own player(launches your MP3 player)

KNGU 051759Z 22006KT 10SM BKN055 BKN260 33/21 A3005 RMK AO2 SLP174 T03280206 10333 20272 58008

KNGU Airport Info (Airnav.com)

KNGU Flight Activity (Flightaware)

Listeners: 0 out of 1343 total

AMC/ATOC: 349.500
AMC/ATOC: 130.650
Chambers Clearance Delivery: 339.800
Chambers Clearance Delivery: 120.700
Chambers Ground: 370.850
Chambers Ground: 121.800
Chambers Ground (Helicopters): 298.950
Chambers Tower: 257.975
Chambers Tower: 126.375
Chambers Tower (Helicopters): 279.600
Metro: 271.600
Norfolk Approach/Departure: 335.625
Norfolk Departure: 363.125
Radar: 279.525
Radar: 335.800
Radar: 322.525

KNKX Del/Gnd/Twr (Archives)
San Diego, California, United States

Feed Status: UP
Listen in your browser - HTML5 player(in browser, HTML5)
Click here to listen with your own player(launches your MP3 player)

KNKX 051855Z VRB04KT 10SM CLR 26/15 A2996 RMK SLP139 T02560150

KNKX Airport Info (Airnav.com)

KNKX Flight Activity (Flightaware)

Listeners: 0 out of 1343 total

Miramar Clearance Delivery: 125.975
Miramar Clearance Delivery: 254.325
Miramar Ground: 128.625
Miramar Ground: 307.325
Miramar Tower: 135.200
Miramar Tower: 298.925
Miramar Tower: 340.200

KNTU Giant Killer (Archives)
Virginia Beach, Virginia, United States

Feed Status: UP
Listen in your browser - HTML5 player(in browser, HTML5)
Click here to listen with your own player(launches your MP3 player)

KORF 051851Z AUTO 03008KT 10SM SCT055 33/23 A3003 RMK AO2 SLP168 T03330233

KORF Airport Info (Airnav.com)

KORF Flight Activity (Flightaware)

Listeners: 0 out of 1343 total

Giant Killer: 118.125
Giant Killer: 125.375
Giant Killer: 233.700
Giant Killer: 271.500
Giant Killer: 127.650
Giant Killer: 238.100
Giant Killer: 350.000
Giant Killer W-107: 255.000

KNTU Gnd/Twr/App/Radar (Archives)
Virginia Beach, Virginia, United States

Feed Status: UP
Listen in your browser - HTML5 player(in browser, HTML5)
Click here to listen with your own player(launches your MP3 player)

KNTU 051856Z 21010KT 10SM SCT060 BKN250 33/21 A3003 RMK AO2 SLP171 T2 SET T03330211

KNTU Airport Info (Airnav.com)

KNTU Flight Activity (Flightaware)

Listeners: 3 out of 1343 total

Base Ops: 289.400
Emergency/Guard: 121.500
Emergency/Guard: 243.000
Oceana Approach: 123.900
Oceana Approach: 266.800
Oceana Clearance Delivery: 254.400
Oceana Departure: 119.600
Oceana Departure: 288.300
Oceana Ground: 336.400
Oceana Metro: 387.400
Oceana Radar: 363.600
Oceana Radar: 134.100
Oceana Radar: 310.800
Oceana Radar: 322.000
Oceana Radar: 325.200
Oceana Radar: 346.000
Oceana Tower: 127.075
Oceana Tower: 360.200
PMSV Metro: 287.400
SFA: 328.400
SFA: 346.400
SFA: 348.750
SFA: 352.100
SFA: 363.100

KNUQ Gnd/Twr (Archives)
Mountain View, California, United States

Feed Status: UP
Listen in your browser - HTML5 player(in browser, HTML5)
Click here to listen with your own player(launches your MP3 player)

KNUQ 051355Z AUTO VRB06KT 10SM BKN020 OVC024 16/12 A2998 RMK AO2

KNUQ Airport Info (Airnav.com)

KNUQ Flight Activity (Flightaware)

Listeners: 0 out of 1343 total

Golden Gate Traffic: 124.300
Moffett Ground: 121.850
Moffett Ground: 336.400
Moffett Tower: 119.550
Moffett Tower: 346.250
Stanford University Hospital Heliport: 130.050

KOAJ Gnd/Twr (Archives)
Jacksonville, North Carolina, United States

Feed Status: UP
Listen in your browser - HTML5 player(in browser, HTML5)
Click here to listen with your own player(launches your MP3 player)

KOAJ 051856Z 18003KT 10SM SCT016 SCT026 BKN047 30/25 A3006 RMK AO2 SLP180 T03000250 PNO $

KOAJ Airport Info (Airnav.com)

KOAJ Flight Activity (Flightaware)

Listeners: 0 out of 1343 total

Ellis Ground: 125.400
Ellis Tower: 132.650

KOCF Gnd/Twr/App (Archives)
Ocala, Florida, United States

Feed Status: UP
Listen in your browser - HTML5 player(in browser, HTML5)
Click here to listen with your own player(launches your MP3 player)

KOCF 051851Z 19007KT 10SM BKN043 34/23 A3000 RMK AO2 SLP160 T03440233 PNO $

KOCF Airport Info (Airnav.com)

KOCF Flight Activity (Flightaware)

Listeners: 0 out of 1343 total

Jacksonville Approach (OCF RCO): 118.600
Ocala Ground: 121.400
Ocala Tower: 119.250
UNICOM: 123.000

KOFP CTAF (Archives)
Richmond/Ashland, Virginia, United States

Feed Status: UP
Listen in your browser - HTML5 player(in browser, HTML5)
Click here to listen with your own player(launches your MP3 player)

KOFP 051854Z AUTO 00000KT 10SM CLR 31/21 A3005 RMK AO2 SLP174 T03060206

KOFP Airport Info (Airnav.com)

KOFP Flight Activity (Flightaware)

Listeners: 0 out of 1343 total

Hanover County CTAF: 122.700

KOGB CTAF (Archives)
Orangeburg, South Carolina, United States

Feed Status: UP
Listen in your browser - HTML5 player(in browser, HTML5)
Click here to listen with your own player(launches your MP3 player)

KOGB 051853Z AUTO VRB04KT 10SM VCTS CLR 29/25 A3002 RMK AO2 LTG DSNT SW AND W RAB14E31 SLP164 P0000 T02940250

KOGB Airport Info (Airnav.com)

KOGB Flight Activity (Flightaware)

Listeners: 0 out of 1343 total

Orangeburg CTAF: 122.700

KOGD Ogden Ground/Tower (Archives)
Ogden, Utah, United States

Feed Status: UP
Listen in your browser - HTML5 player(in browser, HTML5)
Click here to listen with your own player(launches your MP3 player)

KOGD 051853Z 18008KT 10SM CLR 34/M01 A2998 RMK AO2 SLP076 T03441011

KOGD Airport Info (Airnav.com)

KOGD Flight Activity (Flightaware)

Listeners: 1 out of 1343 total

Ogden Ground: 121.700
Ogden Tower: 118.700

KOJC App/Dep (Archives)
Olathe, Kansas, United States

Feed Status: UP
Listen in your browser - HTML5 player(in browser, HTML5)
Click here to listen with your own player(launches your MP3 player)

KOJC 051853Z 14008KT 10SM CLR 24/14 A3008 RMK AO2 SLP179 T02390144

KOJC Airport Info (Airnav.com)

KOJC Flight Activity (Flightaware)

Listeners: 0 out of 1343 total

Kansas City Approach/Departure: 118.900

KOJC ATIS (Archives)
Olathe, Kansas, United States

Feed Status: UP
Listen in your browser - HTML5 player(in browser, HTML5)
Click here to listen with your own player(launches your MP3 player)

KOJC 051853Z 14008KT 10SM CLR 24/14 A3008 RMK AO2 SLP179 T02390144

KOJC Airport Info (Airnav.com)

KOJC Flight Activity (Flightaware)

Listeners: 0 out of 1343 total

Executive ATIS: 119.350

KOJC Gnd/Twr (Archives)
Olathe, Kansas, United States

Feed Status: UP
Listen in your browser - HTML5 player(in browser, HTML5)
Click here to listen with your own player(launches your MP3 player)

KOJC 051853Z 14008KT 10SM CLR 24/14 A3008 RMK AO2 SLP179 T02390144

KOJC Airport Info (Airnav.com)

KOJC Flight Activity (Flightaware)

Listeners: 0 out of 1343 total

Executive Ground: 121.600
Executive Tower: 126.000

KOMN ATIS
Ormond Beach, Florida, United States

Feed Status: DOWN
Offline since: 2020-04-11 22:09:05 UTC

KOMN 051750Z 11009G14KT 7SM SCT034 A3003

KOMN Airport Info (Airnav.com)

Ormond Beach ATIS: 118.475

KOMN Ground
Ormond Beach, Florida, United States

Feed Status: DOWN
Offline since: 2020-04-11 22:09:05 UTC

KOMN 051750Z 11009G14KT 7SM SCT034 A3003

KOMN Airport Info (Airnav.com)

Ormond Beach Ground: 121.625

KOMN Tower
Ormond Beach, Florida, United States

Feed Status: DOWN
Offline since: 2020-04-11 22:09:05 UTC

KOMN 051750Z 11009G14KT 7SM SCT034 A3003

KOMN Airport Info (Airnav.com)

Ormond Beach Tower: 119.075

KGDM/KORE CTAF (Archives)
Orange, Massachusetts, United States

Feed Status: UP
Listen in your browser - HTML5 player(in browser, HTML5)
Click here to listen with your own player(launches your MP3 player)

KGDM Airport Info (Airnav.com)

KGDM Flight Activity (Flightaware)

Listeners: 0 out of 1343 total

Gardner CTAF: 122.800

MA/NH/RI/CT Area CTAF (Archives)
Orange, Massachusetts, United States

Feed Status: UP
Listen in your browser - HTML5 player(in browser, HTML5)
Click here to listen with your own player(launches your MP3 player)

KBOS 051854Z 24010KT 10SM BKN065 33/16 A2993 RMK AO2 SLP136 T03280156

KBOS Airport Info (Airnav.com)

KBOS Flight Activity (Flightaware)

Listeners: 0 out of 1343 total

Air-to-Air: 122.750
Bridgeport Flight Service: 122.200
CTAF: 122.700
CTAF: 122.800
CTAF: 122.900
CTAF: 123.000
Emergency/Guard: 121.500

MA/NH/RI/CT Area CTAF (Archives)
Orange, Massachusetts, United States

Feed Status: UP
Listen in your browser - HTML5 player(in browser, HTML5)
Click here to listen with your own player(launches your MP3 player)

KBOS 051854Z 24010KT 10SM BKN065 33/16 A2993 RMK AO2 SLP136 T03280156

KBOS Airport Info (Airnav.com)

KBOS Flight Activity (Flightaware)

Listeners: 0 out of 1343 total

Air-to-Air: 122.750
Bridgeport Flight Service: 122.200
CTAF: 122.700
CTAF: 122.800
CTAF: 122.900
CTAF: 123.000
Emergency/Guard: 121.500

MA/NH/RI/CT Area CTAF (Archives)
Orange, Massachusetts, United States

Feed Status: UP
Listen in your browser - HTML5 player(in browser, HTML5)
Click here to listen with your own player(launches your MP3 player)

KBOS 051854Z 24010KT 10SM BKN065 33/16 A2993 RMK AO2 SLP136 T03280156

KBOS Airport Info (Airnav.com)

KBOS Flight Activity (Flightaware)

Listeners: 0 out of 1343 total

Air-to-Air: 122.750
Bridgeport Flight Service: 122.200
CTAF: 122.700
CTAF: 122.800
CTAF: 122.900
CTAF: 123.000
Emergency/Guard: 121.500

FSS (Central MA) (Archives)
Worcester, Massachusetts, United States

Feed Status: UP
Listen in your browser - HTML5 player(in browser, HTML5)
Click here to listen with your own player(launches your MP3 player)

KORH 051854Z 24010KT 10SM SCT048 SCT070 29/17 A3000 RMK AO2 SLP153 T02890167

KORH Airport Info (Airnav.com)

KORH Flight Activity (Flightaware)

Listeners: 0 out of 1343 total

Flight Service: 122.200

KORH ATIS (Archives)
Worcester, Massachusetts, United States

Feed Status: UP
Listen in your browser - HTML5 player(in browser, HTML5)
Click here to listen with your own player(launches your MP3 player)

KORH 051854Z 24010KT 10SM SCT048 SCT070 29/17 A3000 RMK AO2 SLP153 T02890167

KORH Airport Info (Airnav.com)

KORH Flight Activity (Flightaware)

Listeners: 0 out of 1343 total

Worcester ATIS: 126.550

KORH Bradley App/Dep (Archives)
Worcester, Massachusetts, United States

Feed Status: UP
Listen in your browser - HTML5 player(in browser, HTML5)
Click here to listen with your own player(launches your MP3 player)

KORH 051854Z 24010KT 10SM SCT048 SCT070 29/17 A3000 RMK AO2 SLP153 T02890167

KORH Airport Info (Airnav.com)

KORH Flight Activity (Flightaware)

Listeners: 1 out of 1343 total

Bradley Approach (Worcester Sector): 119.000

KORH Tower (Archives)
Worcester, Massachusetts, United States

Feed Status: UP
Listen in your browser - HTML5 player(in browser, HTML5)
Click here to listen with your own player(launches your MP3 player)

KORH 051854Z 24010KT 10SM SCT048 SCT070 29/17 A3000 RMK AO2 SLP153 T02890167

KORH Airport Info (Airnav.com)

KORH Flight Activity (Flightaware)

Listeners: 0 out of 1343 total

Worcester Tower: 120.500

KORK CTAF/ZME (Archives)
North Little Rock, Arkansas, United States

Feed Status: UP
Listen in your browser - HTML5 player(in browser, HTML5)
Click here to listen with your own player(launches your MP3 player)

KORK Airport Info (Airnav.com)

KORK Flight Activity (Flightaware)

Listeners: 1 out of 1343 total

Little Rock Approach: 291.750
Little Rock Approach (East): 353.600
Little Rock Approach (East): 135.400
Little Rock Approach (West): 306.200
Little Rock Approach (West): 119.500
Little Rock Ground: 335.800
Little Rock Tower: 257.800
Memphis Center (Sector 20 Little Rock Ultra High): 316.050
Memphis Center (Sector 20 Little Rock Ultra High): 125.475
Memphis Center (Sector 21 Conway High): 323.250
Memphis Center (Sector 21 Conway High): 132.425
North Little Rock Clearance Delivery: 121.600
North Little Rock CTAF: 123.075

KORK/KLIT CTAF/Del/Gnd/Twr/App (Archives)
North Little Rock, Arkansas, United States

Feed Status: UP
Listen in your browser - HTML5 player(in browser, HTML5)
Click here to listen with your own player(launches your MP3 player)

KORK Airport Info (Airnav.com)

KORK Flight Activity (Flightaware)

Listeners: 0 out of 1343 total

Little Rock Approach: 291.750
Little Rock Approach (East): 135.400
Little Rock Approach (East): 353.600
Little Rock Approach (West): 119.500
Little Rock Approach (West): 306.200
Little Rock Ground: 335.800
Little Rock Tower: 257.800
North Little Rock Clearance Delivery: 121.600
North Little Rock CTAF: 123.075

KMCO App (Disney/Ovido Sectors)
Orlando, Florida, United States

Feed Status: DOWN
Offline since: 2020-05-21 12:29:40 UTC

KMCO 051844Z 18024G32KT 1/2SM R35L/3000V6000FT -TSRA FG SCT010 BKN016CB OVC035 23/22 A3009 RMK AO2 PK WND 17032/1844 WSHFT 1820 LTG DSNT ALQDS RAB35 TSB1754E09B10 CONS LTGICCG OHD ALQDS TS OHD ALQDS MOV N P0014 T02330222

KMCO Airport Info (Airnav.com)

Orlando Approach (Disney Satellite Sector): 119.400
Orlando Approach (OVIDO Satellite Sector): 119.775

KMCO App (North Satellite) (Archives)
Orlando, Florida, United States

Feed Status: UP
Listen in your browser - HTML5 player(in browser, HTML5)
Click here to listen with your own player(launches your MP3 player)

KORL 051858Z 18015G27KT 1/4SM +TSRA SCT010 BKN023 OVC039 25/22 A3009 RMK AO2 LTG DSNT ALQDS P0029 T02500222 RVRNO

KORL Airport Info (Airnav.com)

KORL Flight Activity (Flightaware)

Listeners: 1 out of 1343 total

Orlando Approach (North Satellite): 121.100
Orlando Approach (North Satellite): 135.300

KORL ATIS (Archives)
Orlando, Florida, United States

Feed Status: UP
Listen in your browser - HTML5 player(in browser, HTML5)
Click here to listen with your own player(launches your MP3 player)

KORL 051858Z 18015G27KT 1/4SM +TSRA SCT010 BKN023 OVC039 25/22 A3009 RMK AO2 LTG DSNT ALQDS P0029 T02500222 RVRNO

KORL Airport Info (Airnav.com)

KORL Flight Activity (Flightaware)

Listeners: 0 out of 1343 total

Orlando Executive ATIS: 127.250

KORL Ground (Archives)
Orlando, Florida, United States

Feed Status: UP
Listen in your browser - HTML5 player(in browser, HTML5)
Click here to listen with your own player(launches your MP3 player)

KORL 051858Z 18015G27KT 1/4SM +TSRA SCT010 BKN023 OVC039 25/22 A3009 RMK AO2 LTG DSNT ALQDS P0029 T02500222 RVRNO

KORL Airport Info (Airnav.com)

KORL Flight Activity (Flightaware)

Listeners: 0 out of 1343 total

Executive Ground: 121.400

KORL Tower (Archives)
Orlando, Florida, United States

Feed Status: UP
Listen in your browser - HTML5 player(in browser, HTML5)
Click here to listen with your own player(launches your MP3 player)

KORL 051858Z 18015G27KT 1/4SM +TSRA SCT010 BKN023 OVC039 25/22 A3009 RMK AO2 LTG DSNT ALQDS P0029 T02500222 RVRNO

KORL Airport Info (Airnav.com)

KORL Flight Activity (Flightaware)

Listeners: 3 out of 1343 total

Executive Tower: 118.700

KOSH Air Show
Oshkosh, Wisconsin, United States

Feed Status: DOWN
Offline since: 2019-08-10 20:03:40 UTC

KOSH 051853Z VRB03KT 10SM CLR 23/09 A3010 RMK AO2 SLP186 T02330094

KOSH Airport Info (Airnav.com)

Air Boss: 133.850
Air Show Control: 123.900
Air Show Control: 128.000
Air Show Control: 128.100
Air Show Control Warbirds: 121.400
Blue Angels: Misc
Emergency (Guard): 121.500
Julie Clark: 123.150
Oshkosh Tower (UHF): 290.900
Patty Wagstaff: 123.050
Sean D. Tucker: 122.925

KOSH Air Show/Twr
Oshkosh, Wisconsin, United States

Feed Status: DOWN
Offline since: 2019-08-10 20:03:40 UTC

KOSH 051853Z VRB03KT 10SM CLR 23/09 A3010 RMK AO2 SLP186 T02330094

KOSH Airport Info (Airnav.com)

Air Boss: 133.850
Air Show Control: 123.900
Air Show Control: 128.000
Air Show Control: 128.100
Air Show Control Warbirds: 121.400
Emergency (Guard): 121.500
Julie Clark: 123.150
KOSH South Tower: 126.600
Patty Wagstaff: 123.050
Sean D. Tucker: 122.925

KOSH Arrival ATIS
Oshkosh, Wisconsin, United States

Feed Status: DOWN
Offline since: 2019-08-10 20:03:40 UTC

KOSH 051853Z VRB03KT 10SM CLR 23/09 A3010 RMK AO2 SLP186 T02330094

KOSH Airport Info (Airnav.com)

Airventure Arrival ATIS: 125.900

KOSH Del/Gnd/Misc
Oshkosh, Wisconsin, United States

Feed Status: DOWN
Offline since: 2019-08-10 20:03:40 UTC

KOSH 051853Z VRB03KT 10SM CLR 23/09 A3010 RMK AO2 SLP186 T02330094

KOSH Airport Info (Airnav.com)

AirVenture Seaplane Base: 123.300
Green Bay Radio: 122.250
Oshkosh Clearance: 119.050
Oshkosh Ground: 132.300
UNICOM (Basler FBO): 122.950
Warbird Ground: 123.900

KOSH Departure ATIS
Oshkosh, Wisconsin, United States

Feed Status: DOWN
Offline since: 2019-08-10 20:04:39 UTC

KOSH 051853Z VRB03KT 10SM CLR 23/09 A3010 RMK AO2 SLP186 T02330094

KOSH Airport Info (Airnav.com)

KOSH Departure ATIS: 121.750

KOSH Departure Monitor
Oshkosh, Wisconsin, United States

Feed Status: DOWN
Offline since: 2019-08-10 20:04:39 UTC

KOSH 051853Z VRB03KT 10SM CLR 23/09 A3010 RMK AO2 SLP186 T02330094

KOSH Airport Info (Airnav.com)

Oshkosh Departure Monitor (Rwy 18/36): 118.900
Oshkosh Departure Monitor (Rwy 9/27): 128.750

KOSH Fisk VFR Approach #1
Oshkosh, Wisconsin, United States

Feed Status: DOWN
Offline since: 2019-08-10 20:03:40 UTC

KOSH 051853Z VRB03KT 10SM CLR 23/09 A3010 RMK AO2 SLP186 T02330094

KOSH Airport Info (Airnav.com)

Oshkosh Approach (Fisk): 120.700

KOSH Fisk VFR Approach #2
Oshkosh, Wisconsin, United States

Feed Status: DOWN
Offline since: 2019-08-10 20:04:39 UTC

KOSH 051853Z VRB03KT 10SM CLR 23/09 A3010 RMK AO2 SLP186 T02330094

KOSH Airport Info (Airnav.com)

Oshkosh Approach (Fisk): 120.700

KOSH Gnd/Twr/App #1 (Archives)
Oshkosh, Wisconsin, United States

Feed Status: UP
Listen in your browser - HTML5 player(in browser, HTML5)
Click here to listen with your own player(launches your MP3 player)

KOSH 051853Z VRB03KT 10SM CLR 23/09 A3010 RMK AO2 SLP186 T02330094

KOSH Airport Info (Airnav.com)

KOSH Flight Activity (Flightaware)

Listeners: 0 out of 1343 total

Emergency (Guard): 121.500
Flight Watch: 122.200
Green Bay Radio: 122.250
Green Bay Radio: 122.500
KFLD Fond du Lac CTAF/UNICOM: 123.050
Milwaukee Approach (Oshkosh): 127.000
Oshkosh Ground: 132.300
Oshkosh Tower: 118.500
Oshkosh UNICOM: 122.950

KOSH Gnd/Twr/App #2 (Archives)
Oshkosh, Wisconsin, United States

Feed Status: UP
Listen in your browser - HTML5 player(in browser, HTML5)
Click here to listen with your own player(launches your MP3 player)

KOSH 051853Z VRB03KT 10SM CLR 23/09 A3010 RMK AO2 SLP186 T02330094

KOSH Airport Info (Airnav.com)

KOSH Flight Activity (Flightaware)

Listeners: 0 out of 1343 total

Milwaukee Approach (Oshkosh): 127.000
Oshkosh Ground: 132.300
Oshkosh Tower: 118.500

KOSH North Tower (Rwy 9/27)
Oshkosh, Wisconsin, United States

Feed Status: DOWN
Offline since: 2019-08-10 20:03:40 UTC

KOSH 051853Z VRB03KT 10SM CLR 23/09 A3010 RMK AO2 SLP186 T02330094

KOSH Airport Info (Airnav.com)

Oshkosh Tower (North): 118.500

KOSH South Tower (Rwy 18/36)
Oshkosh, Wisconsin, United States

Feed Status: DOWN
Offline since: 2019-08-10 20:03:40 UTC

KOSH 051853Z VRB03KT 10SM CLR 23/09 A3010 RMK AO2 SLP186 T02330094

KOSH Airport Info (Airnav.com)

Oshkosh Tower (South): 126.600

KOSH Tower (North+South)
Oshkosh, Wisconsin, United States

Feed Status: DOWN
Offline since: 2019-08-10 20:03:40 UTC

KOSH 051853Z VRB03KT 10SM CLR 23/09 A3010 RMK AO2 SLP186 T02330094

KOSH Airport Info (Airnav.com)

KOSH Tower (North): 118.500
KOSH Tower (South): 126.600

Milwaukee App (OSH)
Oshkosh, Wisconsin, United States

Feed Status: DOWN
Offline since: 2019-08-10 20:03:40 UTC

KOSH 051853Z VRB03KT 10SM CLR 23/09 A3010 RMK AO2 SLP186 T02330094

KOSH Airport Info (Airnav.com)

Milwaukee Approach (Oshkosh IFR Arrivals): 127.000

KOSU Ground/Tower (Archives)
Columbus, Ohio, United States

Feed Status: UP
Listen in your browser - HTML5 player(in browser, HTML5)
Click here to listen with your own player(launches your MP3 player)

KOSU 051853Z 31005KT 10SM FEW050 24/11 A3012 RMK AO2 SLP197 T02390111

KOSU Airport Info (Airnav.com)

KOSU Flight Activity (Flightaware)

Listeners: 3 out of 1343 total

State Ground: 121.700
State Tower: 118.800

KOTH ATIS/AWOS (Archives)
North Bend, Oregon, United States

Feed Status: UP
Listen in your browser - HTML5 player(in browser, HTML5)
Click here to listen with your own player(launches your MP3 player)

KOTH 051856Z 35009KT 10SM FEW015 OVC028 19/14 A3004 RMK AO2 SLP172 T01890144

KOTH Airport Info (Airnav.com)

KOTH Flight Activity (Flightaware)

Listeners: 0 out of 1343 total

North Bend ATIS/AWOS: 135.075

KOTH Gnd/Twr (Archives)
North Bend, Oregon, United States

Feed Status: UP
Listen in your browser - HTML5 player(in browser, HTML5)
Click here to listen with your own player(launches your MP3 player)

KOTH 051856Z 35009KT 10SM FEW015 OVC028 19/14 A3004 RMK AO2 SLP172 T01890144

KOTH Airport Info (Airnav.com)

KOTH Flight Activity (Flightaware)

Listeners: 0 out of 1343 total

North Bend Ground: 127.100
North Bend Tower/CTAF: 118.450

KOTH Ground (Archives)
North Bend, Oregon, United States

Feed Status: UP
Listen in your browser - HTML5 player(in browser, HTML5)
Click here to listen with your own player(launches your MP3 player)

KOTH 051856Z 35009KT 10SM FEW015 OVC028 19/14 A3004 RMK AO2 SLP172 T01890144

KOTH Airport Info (Airnav.com)

KOTH Flight Activity (Flightaware)

Listeners: 0 out of 1343 total

North Bend Ground: 127.100

KOTH Tower/CTAF (Archives)
North Bend, Oregon, United States

Feed Status: UP
Listen in your browser - HTML5 player(in browser, HTML5)
Click here to listen with your own player(launches your MP3 player)

KOTH 051856Z 35009KT 10SM FEW015 OVC028 19/14 A3004 RMK AO2 SLP172 T01890144

KOTH Airport Info (Airnav.com)

KOTH Flight Activity (Flightaware)

Listeners: 0 out of 1343 total

North Bend Tower/CTAF: 118.450

KOTM Del/Twr/App/Center (Archives)
Ottumwa, Iowa, United States

Feed Status: UP
Listen in your browser - HTML5 player(in browser, HTML5)
Click here to listen with your own player(launches your MP3 player)

KOTM 051853Z AUTO 21004KT 10SM FEW047 BKN065 22/13 A3012 RMK AO2 SLP196 T02170128

KOTM Airport Info (Airnav.com)

KOTM Flight Activity (Flightaware)

Listeners: 0 out of 1343 total

Cedar Rapids Approach: 134.050
Cedar Rapids Approach: 119.700
Cedar Rapids Clearance Delivery: 125.450
Cedar Rapids Tower: 118.700
Cedar Rapids UNICOM: 122.950
Chicago Center: 118.150
Chicago Center (Sector 55 Burlington Low): 135.600
Chicago Center (Sector 56 Ottumwa Low SFC to FL230): 132.800
Chicago Center (Sector 74 FARMM Low): 133.350
Chicago Center (Sector 91 Hanna City Super Hi): 134.325
Des Moines Approach: 135.200
Des Moines Approach: 123.900
Des Moines Approach: 118.600
Des Moines Tower: 118.300
Emergency/Guard: 121.500
Kansas City Center: 132.600
KIRK Kirksville, MO CTAF: 122.800
Minneapolis Center: 118.825
Minneapolis Center (Sector 27 Low): 125.650
Minneapolis Center (Sector 30 High): 135.775
Ottumwa CTAF/UNICOM: 123.000

KOWD Ground/Tower (Archives)
Norwood, Massachusetts, United States

Feed Status: UP
Listen in your browser - HTML5 player(in browser, HTML5)
Click here to listen with your own player(launches your MP3 player)

KOWD 051853Z 25014G20KT 10SM SCT065 BKN080 33/17 A2994 RMK AO2 SLP138 T03330172

KOWD Airport Info (Airnav.com)

KOWD Flight Activity (Flightaware)

Listeners: 1 out of 1343 total

Norwood Ground: 121.800
Norwood Tower: 126.000

KOXC Ground/Tower (Archives)
Oxford, Connecticut, United States

Feed Status: UP
Listen in your browser - HTML5 player(in browser, HTML5)
Click here to listen with your own player(launches your MP3 player)

KOXC 051851Z 29005KT 10SM SCT049 27/18 A3003 RMK AO2 SLP176 T02720183

KOXC Airport Info (Airnav.com)

KOXC Flight Activity (Flightaware)

Listeners: 0 out of 1343 total

Oxford Ground: 121.650
Oxford Tower: 118.475

KPAE Gnd/Twr/App (Archives)
Everett, Washington, United States

Feed Status: UP
Listen in your browser - HTML5 player(in browser, HTML5)
Click here to listen with your own player(launches your MP3 player)

KPAE 051853Z 02004KT 10SM CLR 21/12 A2997 RMK AO2 SLP145 T02110122

KPAE Airport Info (Airnav.com)

KPAE Flight Activity (Flightaware)

Listeners: 2 out of 1343 total

Paine Ground: 121.800
Paine Tower: 120.200
Paine Tower: 132.950
Seattle Approach: 128.500

KPAO ATIS (Archives)
Palo Alto, California, United States

Feed Status: UP
Listen in your browser - HTML5 player(in browser, HTML5)
Click here to listen with your own player(launches your MP3 player)

KPAO 051747Z 27011KT 10SM BKN017 OVC027 18/13 A3000

KPAO Airport Info (Airnav.com)

KPAO Flight Activity (Flightaware)

Listeners: 0 out of 1343 total

Palo Alto ATIS: 135.275

KPAO Ground (Archives)
Palo Alto, California, United States

Feed Status: UP
Listen in your browser - HTML5 player(in browser, HTML5)
Click here to listen with your own player(launches your MP3 player)

KPAO 051747Z 27011KT 10SM BKN017 OVC027 18/13 A3000

KPAO Airport Info (Airnav.com)

KPAO Flight Activity (Flightaware)

Listeners: 0 out of 1343 total

Palo Alto Ground: 125.000

KPAO Tower (Archives)
Palo Alto, California, United States

Feed Status: UP
Listen in your browser - HTML5 player(in browser, HTML5)
Click here to listen with your own player(launches your MP3 player)

KPAO 051747Z 27011KT 10SM BKN017 OVC027 18/13 A3000

KPAO Airport Info (Airnav.com)

KPAO Flight Activity (Flightaware)

Listeners: 3 out of 1343 total

Palo Alto Tower: 118.600

KPCW CTAF/App (Archives)
Port Clinton, Ohio, United States

Feed Status: UP
Listen in your browser - HTML5 player(in browser, HTML5)
Click here to listen with your own player(launches your MP3 player)

KPCW 051855Z AUTO 02007KT 330V030 10SM CLR 22/12 A3012 RMK AO2

KPCW Airport Info (Airnav.com)

KPCW Flight Activity (Flightaware)

Listeners: 0 out of 1343 total

Cleveland Approach: 126.350
Port Clinton CTAF: 122.800

KPCW CTAF/App (Archives)
Port Clinton, Ohio, United States

Feed Status: UP
Listen in your browser - HTML5 player(in browser, HTML5)
Click here to listen with your own player(launches your MP3 player)

KPCW 051855Z AUTO 02007KT 330V030 10SM CLR 22/12 A3012 RMK AO2

KPCW Airport Info (Airnav.com)

KPCW Flight Activity (Flightaware)

Listeners: 0 out of 1343 total

Cleveland Approach: 126.350
Port Clinton CTAF: 122.800

KPDK Emergency/Guard (Archives)
Atlanta, Georgia, United States

Feed Status: UP
Listen in your browser - HTML5 player(in browser, HTML5)
Click here to listen with your own player(launches your MP3 player)

KPDK 051853Z VRB03KT 10SM FEW055 SCT095 BKN110 31/20 A3002 RMK AO2 LTG DSNT S AND SW SLP144 T03110200

KPDK Airport Info (Airnav.com)

KPDK Flight Activity (Flightaware)

Listeners: 0 out of 1343 total

Emergency/Guard: 121.500

KPDK Ground (Archives)
Atlanta, Georgia, United States

Feed Status: UP
Listen in your browser - HTML5 player(in browser, HTML5)
Click here to listen with your own player(launches your MP3 player)

KPDK 051853Z VRB03KT 10SM FEW055 SCT095 BKN110 31/20 A3002 RMK AO2 LTG DSNT S AND SW SLP144 T03110200

KPDK Airport Info (Airnav.com)

KPDK Flight Activity (Flightaware)

Listeners: 1 out of 1343 total

Peachtree Ground: 121.600

KPDK Tower #1 (Archives)
Atlanta, Georgia, United States

Feed Status: UP
Listen in your browser - HTML5 player(in browser, HTML5)
Click here to listen with your own player(launches your MP3 player)

KPDK 051853Z VRB03KT 10SM FEW055 SCT095 BKN110 31/20 A3002 RMK AO2 LTG DSNT S AND SW SLP144 T03110200

KPDK Airport Info (Airnav.com)

KPDK Flight Activity (Flightaware)

Listeners: 1 out of 1343 total

Peachtree Tower: 120.900

KPDK Tower #2
Atlanta, Georgia, United States

Feed Status: DOWN
Offline since: 2020-04-02 18:26:06 UTC

KPDK 051853Z VRB03KT 10SM FEW055 SCT095 BKN110 31/20 A3002 RMK AO2 LTG DSNT S AND SW SLP144 T03110200

KPDK Airport Info (Airnav.com)

Peachtree Tower: 120.900

KPDT Gnd/Twr/App (Archives)
Pendleton, Oregon, United States

Feed Status: UP
Listen in your browser - HTML5 player(in browser, HTML5)
Click here to listen with your own player(launches your MP3 player)

KPDT 051853Z VRB03KT 10SM CLR 32/08 A2985 RMK AO2 SLP088 T03170078

KPDT Airport Info (Airnav.com)